[[{"header":{"parameterUnit":"m.s-1","parameterCategory":1,"la1":30.6,"la2":28.766,"lo1":-90.7593,"lo2":-88.6598,"dy":0.0162,"dx":0.0183,"nx":116,"ny":114,"refTime":"2023-03-18T18:00:00:Z","depth":0,"parameterNumber":2,"parameterNumberName":"U-component_of_WINDS"},"data":[0.0,0.0,0.0,0.0,0.0,0.0,0.0,0.0,0.0,0.0,0.0,0.0,0.0,0.0,0.0,0.0,0.0,0.0,0.0,0.0,0.0,0.0,0.0,0.0,0.0,0.0,0.0,0.0,0.0,0.0,0.0,0.0,0.0,0.0,0.0,0.0,0.0,0.0,0.0,0.0,0.0,0.0,0.0,0.0,0.0,0.0,0.0,0.0,0.0,0.0,0.0,0.0,0.0,0.0,0.0,0.0,0.0,0.0,0.0,0.0,0.0,0.0,0.0,0.0,0.0,0.0,0.0,0.0,0.0,0.0,0.0,0.0,0.0,0.0,0.0,0.0,0.0,0.0,0.0,0.0,0.0,0.0,0.0,0.0,0.0,0.0,0.0,0.0,0.0,0.0,0.0,0.0,0.0,0.0,0.0,0.0,0.0,0.0,0.0,0.0,0.0,0.0,0.0,0.0,0.0,0.0,0.0,0.0,0.0,0.0,0.0,0.0,0.0,0.0,0.0,0.0,0.0,0.0,0.0,0.0,0.0,0.0,0.0,0.0,0.0,0.0,0.0,0.0,0.0,0.0,0.0,0.0,0.0,0.0,0.0,0.0,0.0,0.0,0.0,0.0,0.0,0.0,0.0,0.0,0.0,0.0,0.0,0.0,0.0,0.0,0.0,0.0,0.0,0.0,0.0,0.0,0.0,0.0,0.0,0.0,0.0,0.0,0.0,0.0,0.0,0.0,0.0,0.0,0.0,0.0,0.0,0.0,0.0,0.0,0.0,0.0,0.0,0.0,0.0,0.0,0.0,0.0,0.0,0.0,0.0,0.0,0.0,0.0,0.0,0.0,0.0,0.0,0.0,0.0,0.0,0.0,0.0,0.0,0.0,0.0,0.0,0.0,0.0,0.0,0.0,0.0,0.0,0.0,0.0,0.0,0.0,0.0,0.0,0.0,0.0,0.0,0.0,0.0,0.0,0.0,0.0,0.0,0.0,0.0,0.0,0.0,0.0,0.0,0.0,0.0,0.0,0.0,0.0,0.0,0.0,0.0,0.0,0.0,0.0,0.0,0.0,0.0,0.0,0.0,0.0,0.0,0.0,0.0,0.0,0.0,0.0,0.0,0.0,0.0,0.0,0.0,0.0,0.0,0.0,0.0,0.0,0.0,0.0,0.0,0.0,0.0,0.0,0.0,0.0,0.0,0.0,0.0,0.0,0.0,0.0,0.0,0.0,0.0,0.0,0.0,0.0,0.0,0.0,0.0,0.0,0.0,0.0,0.0,0.0,0.0,0.0,0.0,0.0,0.0,0.0,0.0,0.0,0.0,0.0,0.0,0.0,0.0,0.0,0.0,0.0,0.0,0.0,0.0,0.0,0.0,0.0,0.0,0.0,0.0,0.0,0.0,0.0,0.0,0.0,0.0,0.0,0.0,0.0,0.0,0.0,0.0,0.0,0.0,0.0,0.0,0.0,0.0,0.0,0.0,0.0,0.0,0.0,0.0,0.0,0.0,0.0,0.0,0.0,0.0,0.0,0.0,0.0,0.0,0.0,0.0,0.0,0.0,0.0,0.0,0.0,0.0,0.0,0.0,0.0,0.0,0.0,0.0,0.0,0.0,0.0,0.0,0.0,0.0,0.0,0.0,0.0,0.0,0.0,0.0,0.0,0.0,0.0,0.0,0.0,0.0,0.0,0.0,0.0,0.0,0.0,0.0,0.0,0.0,0.0,0.0,0.0,0.0,0.0,0.0,0.0,0.0,0.0,0.0,0.0,0.0,0.0,0.0,0.0,0.0,0.0,0.0,0.0,0.0,0.0,0.0,0.0,0.0,0.0,0.0,0.0,0.0,0.0,0.0,0.0,0.0,0.0,0.0,0.0,0.0,0.0,0.0,0.0,0.0,0.0,0.0,0.0,0.0,0.0,0.0,0.0,0.0,0.0,0.0,0.0,0.0,0.0,0.0,0.0,0.0,0.0,0.0,0.0,0.0,0.0,0.0,0.0,0.0,0.0,0.0,0.0,0.0,0.0,0.0,0.0,0.0,0.0,0.0,0.0,0.0,0.0,0.0,0.0,0.0,0.0,0.0,0.0,0.0,0.0,0.0,0.0,0.0,0.0,0.0,0.0,0.0,0.0,0.0,0.0,0.0,0.0,0.0,0.0,0.0,0.0,0.0,0.0,0.0,0.0,0.0,0.0,0.0,0.0,0.0,0.0,0.0,0.0,0.0,0.0,0.0,0.0,0.0,0.0,0.0,0.0,0.0,0.0,0.0,0.0,0.0,0.0,0.0,0.0,0.0,0.0,0.0,0.0,0.0,0.0,0.0,0.0,0.0,0.0,0.0,0.0,0.0,0.0,0.0,0.0,0.0,0.0,0.0,0.0,0.0,0.0,0.0,0.0,0.0,0.0,0.0,0.0,0.0,0.0,0.0,0.0,0.0,0.0,0.0,0.0,0.0,0.0,0.0,0.0,0.0,0.0,0.0,0.0,0.0,0.0,0.0,0.0,0.0,0.0,0.0,0.0,0.0,0.0,0.0,0.0,0.0,0.0,0.0,0.0,0.0,0.0,0.0,0.0,0.0,0.0,0.0,0.0,0.0,0.0,0.0,0.0,0.0,0.0,0.0,0.0,0.0,0.0,0.0,0.0,0.0,0.0,0.0,0.0,0.0,0.0,0.0,0.0,0.0,0.0,0.0,0.0,0.0,0.0,0.0,0.0,0.0,0.0,0.0,0.0,0.0,0.0,0.0,0.0,0.0,0.0,0.0,0.0,0.0,0.0,0.0,0.0,0.0,0.0,0.0,0.0,0.0,0.0,0.0,0.0,0.0,0.0,0.0,0.0,0.0,0.0,0.0,0.0,0.0,0.0,0.0,0.0,0.0,0.0,0.0,0.0,0.0,0.0,0.0,0.0,0.0,0.0,0.0,0.0,0.0,0.0,0.0,0.0,0.0,0.0,0.0,0.0,0.0,0.0,0.0,0.0,0.0,0.0,0.0,0.0,0.0,0.0,0.0,0.0,0.0,0.0,0.0,0.0,0.0,0.0,0.0,0.0,0.0,0.0,0.0,0.0,0.0,0.0,0.0,0.0,0.0,0.0,0.0,0.0,0.0,0.0,0.0,0.0,0.0,0.0,0.0,0.0,0.0,0.0,0.0,0.0,0.0,0.0,0.0,0.0,0.0,0.0,0.0,0.0,0.0,0.0,0.0,0.0,0.0,0.0,0.0,0.0,0.0,0.0,0.0,0.0,0.0,0.0,0.0,0.0,0.0,0.0,0.0,0.0,0.0,0.0,0.0,0.0,0.0,0.0,0.0,0.0,0.0,0.0,0.0,0.0,0.0,0.0,0.0,0.0,0.0,0.0,0.0,0.0,0.0,0.0,0.0,0.0,0.0,0.0,0.0,0.0,0.0,0.0,0.0,0.0,0.0,0.0,0.0,0.0,0.0,0.0,0.0,0.0,0.0,0.0,0.0,0.0,0.0,0.0,0.0,0.0,0.0,0.0,0.0,0.0,0.0,0.0,0.0,0.0,0.0,0.0,0.0,0.0,0.0,0.0,0.0,0.0,0.0,0.0,0.0,0.0,0.0,0.0,0.0,0.0,0.0,0.0,0.0,0.0,0.0,0.0,0.0,0.0,0.0,0.0,0.0,0.0,0.0,0.0,0.0,0.0,0.0,0.0,0.0,0.0,0.0,0.0,0.0,0.0,0.0,0.0,0.0,0.0,0.0,0.0,0.0,0.0,0.0,0.0,0.0,0.0,0.0,0.0,0.0,0.0,0.0,0.0,0.0,0.0,0.0,0.0,0.0,0.0,0.0,0.0,0.0,0.0,0.0,0.0,0.0,0.0,0.0,0.0,0.0,0.0,0.0,0.0,0.0,0.0,0.0,0.0,0.0,0.0,0.0,0.0,0.0,0.0,0.0,0.0,0.0,0.0,0.0,0.0,0.0,0.0,0.0,0.0,0.0,0.0,0.0,0.0,0.0,0.0,0.0,0.0,0.0,0.0,0.0,0.0,0.0,0.0,0.0,0.0,0.0,0.0,0.0,0.0,0.0,0.0,0.0,0.0,0.0,0.0,0.0,0.0,0.0,0.0,0.0,0.0,0.0,0.0,0.0,0.0,0.0,0.0,0.0,0.0,0.0,0.0,0.0,0.0,0.0,0.0,0.0,0.0,0.0,0.0,0.0,0.0,0.0,0.0,0.0,0.0,0.0,0.0,0.0,0.0,0.0,0.0,0.0,0.0,0.0,0.0,0.0,0.0,0.0,0.0,0.0,0.0,0.0,0.0,0.0,0.0,0.0,0.0,0.0,0.0,0.0,0.0,0.0,0.0,0.0,0.0,0.0,0.0,0.0,0.0,0.0,0.0,0.0,0.0,0.0,0.0,0.0,0.0,0.0,0.0,0.0,0.0,0.0,0.0,0.0,0.0,0.0,0.0,0.0,0.0,0.0,0.0,0.0,0.0,0.0,0.0,0.0,0.0,0.0,0.0,0.0,0.0,0.0,0.0,0.0,0.0,0.0,0.0,0.0,0.0,0.0,0.0,0.0,0.0,0.0,0.0,0.0,0.0,0.0,0.0,0.0,0.0,0.0,0.0,0.0,0.0,0.0,0.0,0.0,0.0,0.0,0.0,0.0,0.0,0.0,0.0,0.0,0.0,0.0,0.0,0.0,0.0,0.0,0.0,0.0,0.0,0.0,0.0,0.0,0.0,0.0,0.0,0.0,0.0,0.0,0.0,0.0,0.0,0.0,0.0,0.0,0.0,0.0,0.0,0.0,0.0,0.0,0.0,0.0,0.0,0.0,0.0,0.0,0.0,0.0,0.0,0.0,0.0,0.0,0.0,0.0,0.0,0.0,0.0,0.0,0.0,0.0,0.0,0.0,0.0,0.0,0.0,0.0,0.0,0.0,0.0,0.0,0.0,0.0,0.0,0.0,0.0,0.0,0.0,0.0,0.0,0.0,0.0,0.0,0.0,0.0,0.0,0.0,0.0,0.0,0.0,0.0,0.0,0.0,0.0,0.0,0.0,0.0,0.0,0.0,0.0,0.0,0.0,0.0,0.0,0.0,0.0,0.0,0.0,0.0,0.0,0.0,0.0,0.0,0.0,0.0,0.0,0.0,0.0,0.0,0.0,0.0,0.0,0.0,0.0,0.0,0.0,0.0,0.0,0.0,0.0,0.0,0.0,0.0,0.0,0.0,0.0,0.0,0.0,0.0,0.0,0.0,0.0,0.0,0.0,0.0,0.0,0.0,0.0,0.0,0.0,0.0,0.0,0.0,0.0,0.0,0.0,0.0,0.0,0.0,0.0,0.0,0.0,0.0,0.0,0.0,0.0,0.0,0.0,0.0,0.0,0.0,0.0,0.0,0.0,0.0,0.0,0.0,0.0,0.0,0.0,0.0,0.0,0.0,0.0,0.0,0.0,0.0,0.0,0.0,0.0,0.0,0.0,0.0,0.0,0.0,0.0,0.0,0.0,0.0,0.0,0.0,0.0,0.0,0.0,0.0,0.0,0.0,0.0,0.0,0.0,0.0,0.0,0.0,0.0,0.0,0.0,0.0,0.0,0.0,0.0,0.0,0.0,0.0,0.0,0.0,0.0,0.0,0.0,0.0,0.0,0.0,0.0,0.0,0.0,0.0,0.0,0.0,0.0,0.0,0.0,0.0,0.0,0.0,0.0,0.0,0.0,0.0,0.0,0.0,0.0,0.0,0.0,0.0,0.0,0.0,0.0,0.0,0.0,0.0,0.0,0.0,0.0,0.0,0.0,0.0,0.0,0.0,0.0,0.0,0.0,0.0,0.0,0.0,0.0,0.0,0.0,0.0,0.0,0.0,0.0,0.0,0.0,0.0,0.0,0.0,0.0,0.0,0.0,0.0,0.0,0.0,0.0,0.0,0.0,0.0,0.0,0.0,0.0,0.0,0.0,0.0,0.0,0.0,0.0,0.0,0.0,0.0,0.0,0.0,0.0,0.0,0.0,0.0,0.0,0.0,0.0,0.0,0.0,0.0,0.0,0.0,0.0,0.0,0.0,0.0,0.0,0.0,0.0,0.0,0.0,0.0,0.0,0.0,0.0,0.0,0.0,0.0,0.0,0.0,3.805,0.0,0.0,0.0,0.0,0.0,0.0,0.0,0.0,0.0,0.0,0.0,0.0,0.0,0.0,0.0,0.0,0.0,0.0,0.0,0.0,0.0,0.0,0.0,0.0,0.0,0.0,0.0,0.0,0.0,0.0,0.0,0.0,0.0,0.0,0.0,0.0,0.0,0.0,0.0,0.0,0.0,0.0,0.0,0.0,0.0,0.0,0.0,0.0,0.0,0.0,0.0,0.0,0.0,0.0,0.0,0.0,0.0,0.0,0.0,0.0,0.0,0.0,0.0,0.0,0.0,0.0,0.0,0.0,0.0,0.0,0.0,0.0,0.0,0.0,0.0,0.0,0.0,0.0,0.0,0.0,0.0,0.0,0.0,0.0,0.0,0.0,0.0,0.0,0.0,0.0,0.0,0.0,0.0,0.0,0.0,0.0,0.0,0.0,0.0,0.0,0.0,0.0,0.0,0.0,0.0,0.0,0.0,0.0,0.0,0.0,0.0,0.0,0.0,0.0,0.0,0.0,3.9507,0.0,0.0,0.0,0.0,0.0,0.0,0.0,0.0,0.0,0.0,0.0,0.0,0.0,0.0,0.0,0.0,0.0,0.0,0.0,0.0,0.0,0.0,0.0,0.0,0.0,0.0,0.0,0.0,0.0,0.0,0.0,0.0,0.0,0.0,0.0,0.0,0.0,0.0,0.0,0.0,0.0,0.0,0.0,0.0,0.0,0.0,0.0,0.0,0.0,0.0,0.0,0.0,0.0,0.0,0.0,0.0,0.0,0.0,0.0,0.0,0.0,0.0,0.0,0.0,0.0,0.0,0.0,0.0,0.0,0.0,0.0,0.0,0.0,0.0,0.0,0.0,0.0,0.0,0.0,0.0,0.0,0.0,0.0,0.0,0.0,0.0,0.0,0.0,0.0,0.0,0.0,0.0,0.0,0.0,0.0,0.0,0.0,0.0,0.0,0.0,0.0,0.0,0.0,0.0,0.0,0.0,0.0,0.0,5.0574,5.1751,5.2711,5.367,5.4919,5.5994,5.0152,4.6261,4.3864,0.0,0.0,0.0,0.0,0.0,0.0,0.0,0.0,0.0,0.0,0.0,0.0,0.0,0.0,0.0,0.0,0.0,0.0,0.0,0.0,0.0,0.0,0.0,0.0,0.0,0.0,0.0,0.0,0.0,0.0,0.0,0.0,0.0,0.0,0.0,0.0,0.0,0.0,0.0,0.0,0.0,0.0,0.0,0.0,0.0,0.0,0.0,0.0,0.0,0.0,0.0,0.0,0.0,0.0,0.0,0.0,0.0,0.0,0.0,0.0,0.0,0.0,0.0,0.0,0.0,0.0,0.0,0.0,0.0,0.0,0.0,0.0,0.0,0.0,0.0,0.0,0.0,0.0,0.0,0.0,0.0,0.0,0.0,0.0,0.0,0.0,0.0,3.8386,3.8129,0.0,0.0,0.0,0.0,0.0,0.0,0.0,0.0,0.0,0.0,0.0,0.0,0.0,0.0,5.0657,5.5242,5.6863,5.564,6.0651,6.2065,6.0242,6.179,6.2995,6.3827,6.2885,0.0,5.0555,4.8154,0.0,0.0,0.0,0.0,0.0,0.0,0.0,0.0,0.0,0.0,0.0,0.0,0.0,0.0,0.0,0.0,0.0,0.0,0.0,0.0,0.0,0.0,0.0,0.0,0.0,0.0,0.0,0.0,0.0,0.0,0.0,0.0,0.0,0.0,0.0,0.0,0.0,0.0,0.0,0.0,0.0,0.0,0.0,0.0,0.0,0.0,0.0,0.0,0.0,0.0,0.0,0.0,0.0,0.0,0.0,0.0,0.0,0.0,0.0,0.0,0.0,0.0,0.0,0.0,0.0,0.0,0.0,0.0,0.0,0.0,0.0,0.0,0.0,0.0,0.0,0.0,0.0,0.0,0.0,0.0,0.0,0.0,0.0,0.0,0.0,3.8786,4.0355,3.8261,3.9606,3.9382,0.0,0.0,0.0,0.0,0.0,0.0,0.0,0.0,0.0,5.2052,5.4149,5.6095,5.8064,6.1678,6.3732,6.431,6.7717,6.9486,6.9779,7.052,7.1202,7.1801,7.1502,6.8285,6.2781,5.6397,5.1169,4.6948,0.0,0.0,0.0,0.0,0.0,4.4762,0.0,0.0,0.0,0.0,0.0,0.0,0.0,0.0,0.0,0.0,0.0,0.0,0.0,0.0,0.0,0.0,0.0,0.0,0.0,0.0,0.0,0.0,0.0,0.0,0.0,0.0,0.0,0.0,0.0,0.0,0.0,0.0,0.0,0.0,0.0,0.0,0.0,0.0,0.0,0.0,0.0,0.0,0.0,0.0,0.0,0.0,0.0,0.0,0.0,0.0,0.0,0.0,0.0,0.0,0.0,0.0,0.0,0.0,0.0,0.0,0.0,0.0,0.0,0.0,0.0,0.0,0.0,0.0,0.0,0.0,0.0,0.0,0.0,0.0,0.0,0.0,0.0,4.153,4.32,3.9756,4.3102,4.353,0.0,0.0,0.0,0.0,0.0,0.0,5.0865,5.2852,5.5825,6.0083,6.2169,6.4297,6.6499,6.8965,7.1101,7.2899,7.4011,7.5476,7.723,7.6915,7.7004,7.7352,7.6771,7.5242,7.2527,6.3991,5.8112,5.4148,5.1086,4.9145,4.8233,4.9434,5.0388,5.1715,0.0,0.0,0.0,0.0,0.0,0.0,0.0,0.0,0.0,0.0,0.0,0.0,0.0,0.0,0.0,0.0,0.0,0.0,0.0,0.0,0.0,0.0,0.0,0.0,0.0,0.0,0.0,0.0,0.0,0.0,0.0,0.0,0.0,0.0,0.0,0.0,0.0,0.0,0.0,0.0,0.0,0.0,0.0,0.0,0.0,0.0,0.0,0.0,0.0,0.0,0.0,0.0,0.0,0.0,0.0,0.0,0.0,0.0,0.0,0.0,0.0,0.0,0.0,0.0,0.0,0.0,0.0,0.0,0.0,0.0,0.0,0.0,0.0,0.0,0.0,0.0,0.0,0.0,0.0,4.4741,5.0624,0.0,0.0,0.0,0.0,4.8898,5.1237,5.4425,5.8456,6.0921,6.4414,6.9272,7.2452,7.4903,7.6547,7.9022,8.0343,8.0445,8.0227,8.0172,8.0243,7.9164,7.8695,7.8645,7.7947,7.7077,7.5729,6.9707,6.48,6.0866,5.8406,5.6014,5.4252,5.6602,5.7954,5.9007,0.0,0.0,0.0,0.0,0.0,0.0,0.0,0.0,0.0,0.0,0.0,0.0,0.0,4.0867,0.0,0.0,0.0,0.0,0.0,0.0,0.0,0.0,0.0,0.0,0.0,0.0,0.0,0.0,0.0,0.0,0.0,0.0,0.0,0.0,0.0,0.0,0.0,0.0,0.0,0.0,0.0,0.0,0.0,0.0,0.0,0.0,0.0,0.0,0.0,0.0,0.0,0.0,0.0,0.0,0.0,0.0,0.0,0.0,0.0,0.0,0.0,0.0,0.0,0.0,0.0,0.0,0.0,0.0,0.0,0.0,0.0,0.0,0.0,0.0,0.0,0.0,0.0,0.0,0.0,5.2632,5.7562,0.0,5.3036,5.4205,5.6077,5.7917,6.0823,6.4494,6.9068,7.0919,7.3305,7.6615,7.8108,7.9093,7.9675,8.1064,8.1764,8.179,8.2185,8.2628,8.3101,8.218,8.1677,8.1472,8.0852,8.0032,7.8938,7.6524,7.2401,6.741,6.5489,6.4023,6.3142,6.4494,6.5515,6.6476,0.0,0.0,0.0,0.0,0.0,0.0,0.0,0.0,0.0,0.0,0.0,3.7465,4.0043,4.5477,0.0,0.0,0.0,0.0,0.0,0.0,0.0,0.0,0.0,0.0,0.0,5.0946,0.0,0.0,0.0,0.0,0.0,0.0,0.0,0.0,0.0,0.0,0.0,0.0,0.0,0.0,0.0,0.0,4.3342,0.0,0.0,0.0,0.0,0.0,0.0,0.0,0.0,0.0,0.0,0.0,0.0,0.0,0.0,0.0,0.0,0.0,0.0,0.0,0.0,0.0,0.0,0.0,0.0,0.0,0.0,0.0,0.0,0.0,0.0,0.0,0.0,0.0,0.0,0.0,5.9003,5.8724,6.3961,6.5688,6.0782,6.3085,6.5692,6.7557,7.0347,7.3606,7.7377,7.8243,7.9472,8.1354,8.1935,8.222,8.222,8.3019,8.3407,8.3407,8.3576,8.3912,8.438,8.3483,8.2984,8.2751,8.2164,8.1482,8.0789,8.0245,7.7694,7.4013,7.2375,7.1512,7.1296,7.194,7.2679,7.3531,0.0,0.0,0.0,0.0,0.0,0.0,0.0,0.0,0.0,0.0,0.0,4.113,4.5861,5.1122,5.5302,0.0,0.0,0.0,0.0,0.0,0.0,0.0,0.0,0.0,5.0944,5.5714,6.0994,6.6903,0.0,0.0,0.0,0.0,0.0,0.0,0.0,0.0,0.0,0.0,0.0,0.0,0.0,0.0,5.0694,0.0,0.0,0.0,0.0,0.0,0.0,0.0,0.0,0.0,0.0,0.0,0.0,0.0,0.0,0.0,0.0,0.0,0.0,0.0,0.0,0.0,0.0,0.0,0.0,0.0,0.0,0.0,0.0,0.0,0.0,0.0,0.0,0.0,5.2276,5.8999,6.3656,6.2927,6.9832,7.2819,6.808,7.2891,7.6617,7.7416,7.937,8.124,8.2816,8.2501,8.2661,8.3445,8.4187,8.4621,8.4621,8.5373,8.5773,8.5751,8.4646,8.4123,8.4075,8.2951,8.2462,8.2428,8.171,8.1405,8.1338,8.0615,8.0451,8.0524,7.8892,7.8216,7.8188,7.8565,7.9158,7.9765,0.0,0.0,0.0,0.0,0.0,0.0,0.0,0.0,0.0,0.0,3.7906,4.3522,4.779,5.342,5.7834,6.0167,0.0,0.0,0.0,0.0,0.0,0.0,0.0,0.0,5.7377,6.0969,6.4884,6.9259,7.0432,0.0,0.0,0.0,0.0,0.0,0.0,0.0,0.0,0.0,0.0,0.0,0.0,0.0,5.3974,0.0,0.0,0.0,0.0,0.0,0.0,0.0,0.0,0.0,0.0,0.0,0.0,0.0,0.0,0.0,0.0,0.0,0.0,0.0,0.0,0.0,0.0,0.0,0.0,0.0,0.0,0.0,0.0,0.0,0.0,0.0,0.0,5.9297,5.8759,6.4568,6.9774,7.2269,7.6028,7.8089,7.7291,7.9212,8.0863,8.1668,8.2781,8.3881,8.4907,8.4593,8.4483,8.4715,8.4631,8.459,8.459,8.4808,8.4924,8.4924,8.46,8.4453,8.4453,8.4143,8.4018,8.3971,8.3781,8.368,8.3646,8.2915,8.2635,8.2604,8.1629,8.049,7.9509,8.0496,8.0098,7.9181,0.0,0.0,0.0,0.0,0.0,0.0,0.0,0.0,0.0,0.0,3.9589,4.5219,4.9448,5.4964,5.8761,5.9776,5.7442,0.0,0.0,0.0,0.0,0.0,0.0,5.5944,6.1873,6.4952,6.7861,7.0669,7.1097,7.13,7.13,0.0,0.0,0.0,0.0,0.0,0.0,0.0,0.0,0.0,0.0,0.0,6.0308,5.5615,5.3795,5.3213,4.933,4.8257,4.8186,4.497,0.0,0.0,0.0,0.0,0.0,0.0,0.0,0.0,0.0,0.0,0.0,0.0,0.0,0.0,0.0,0.0,0.0,0.0,0.0,0.0,0.0,0.0,0.0,0.0,6.2471,6.7087,6.7755,7.1065,7.4726,7.8203,8.0141,8.1504,8.2228,8.3475,8.4415,8.486,8.551,8.6078,8.6545,8.6135,8.59,8.59,8.5704,8.5574,8.5574,8.5574,8.5574,8.5574,8.5574,8.5574,8.5574,8.5574,8.5574,0.0,8.5236,8.51,8.5033,8.4289,8.395,0.0,0.0,0.0,0.0,0.0,8.1606,7.9995,0.0,0.0,0.0,0.0,0.0,0.0,0.0,0.0,0.0,0.0,0.0,4.6252,5.0964,5.58,5.8549,5.806,5.5928,5.3052,0.0,0.0,0.0,4.9898,5.6181,6.1356,6.5019,6.7963,7.0128,7.1436,7.1503,7.1537,7.1537,7.1537,0.0,0.0,0.0,0.0,0.0,0.0,0.0,0.0,0.0,0.0,6.7286,6.183,6.0926,6.1883,5.6977,5.403,5.2161,5.0174,0.0,0.0,0.0,0.0,0.0,0.0,0.0,0.0,0.0,0.0,0.0,0.0,0.0,0.0,0.0,0.0,0.0,0.0,0.0,0.0,0.0,0.0,0.0,0.0,6.9845,7.4913,7.7498,7.7856,7.8799,8.1476,8.2537,8.3379,8.4208,8.5858,8.6913,8.6972,8.7313,8.7537,8.7537,0.0,0.0,0.0,0.0,8.6893,8.6893,8.6893,8.6893,8.6893,8.6893,8.6893,8.6893,8.6893,8.6893,8.6859,8.6108,8.5804,8.5736,8.4931,8.4614,8.4496,8.3406,8.3485,8.4233,8.4326,8.3079,0.0,0.0,0.0,0.0,0.0,0.0,0.0,0.0,0.0,0.0,3.686,4.1114,4.6034,5.2359,5.5539,5.7636,5.8684,5.6224,5.3255,0.0,0.0,5.1327,5.5996,6.0892,6.4986,6.8166,7.0534,7.1887,7.2191,7.2766,7.3082,7.3082,7.3082,7.3082,0.0,0.0,0.0,0.0,0.0,0.0,0.0,0.0,0.0,6.7624,6.53,6.3937,6.2912,6.0047,6.0291,6.1268,5.6756,5.5877,5.5904,5.1405,0.0,0.0,0.0,0.0,0.0,0.0,0.0,0.0,0.0,0.0,0.0,0.0,0.0,0.0,0.0,0.0,0.0,0.0,0.0,0.0,6.9693,7.5507,8.0288,8.2372,8.2427,8.2242,8.2267,8.2938,8.395,8.5343,8.5831,8.6282,8.687,8.6972,8.7029,8.7029,8.6942,0.0,8.6893,8.6893,8.6893,8.6893,8.6893,8.6893,8.6893,0.0,0.0,8.6893,8.6893,8.6893,8.6859,8.6108,8.5804,8.5736,8.4931,8.4614,8.4505,8.3684,8.4067,8.4885,8.3395,8.2557,8.2413,0.0,0.0,0.0,0.0,0.0,0.0,0.0,0.0,0.0,0.0,3.9919,4.3896,4.9526,5.1116,5.1928,5.2317,5.0642,0.0,0.0,5.2342,5.6334,6.1579,6.5402,6.811,6.9616,7.0717,7.1485,7.1852,7.1465,7.1688,7.2386,7.1651,7.17,7.241,0.0,0.0,0.0,0.0,0.0,0.0,0.0,0.0,7.0578,6.9462,6.8368,6.7208,6.5696,6.5392,6.5256,6.2245,6.0957,5.9975,5.6584,5.383,5.1098,0.0,0.0,0.0,0.0,0.0,0.0,0.0,0.0,0.0,0.0,0.0,0.0,0.0,0.0,5.7336,0.0,0.0,7.2207,7.5893,7.9901,8.2975,8.4139,8.4493,8.4505,8.4133,8.4451,8.5093,8.623,8.6332,8.6501,8.6859,8.7231,8.7448,8.7448,8.7786,8.8158,8.855,8.8192,8.8361,8.9106,8.8734,8.8734,8.9106,8.872,8.855,8.855,8.8158,8.7786,8.7414,8.667,8.6129,8.5736,8.4931,8.4614,8.4546,8.4187,8.418,8.433,8.3739,8.3037,8.2679,0.0,0.0,0.0,0.0,0.0,0.0,0.0,0.0,0.0,0.0,0.0,4.0954,4.544,4.592,4.5643,0.0,0.0,0.0,0.0,5.5683,6.1274,6.6349,6.9191,7.0486,7.0223,7.0494,7.0798,7.1125,7.0045,7.0167,7.1296,7.0083,7.0194,7.1322,7.1322,0.0,0.0,0.0,0.0,0.0,0.0,0.0,7.3827,7.2947,7.2157,7.1436,7.0669,6.9045,6.7208,6.688,6.4918,6.2381,6.1119,5.9425,5.6832,5.1531,5.1189,0.0,0.0,0.0,0.0,0.0,0.0,0.0,0.0,0.0,5.3403,5.6526,6.067,6.5163,7.0002,7.3909,7.7625,8.1268,8.345,8.4764,8.5003,8.5587,8.6075,8.621,8.6108,8.6366,8.7245,8.7347,8.7448,8.7739,8.8328,8.8632,8.8632,8.9221,8.9782,9.0391,8.983,9.0101,9.1271,9.0729,9.0729,9.1271,9.056,9.0208,9.0174,8.9458,8.8714,8.7955,8.7076,8.6264,8.552,8.4864,8.4614,8.4614,8.4614,8.4255,8.3795,8.439,8.3836,8.3108,0.0,0.0,0.0,0.0,0.0,0.0,0.0,0.0,0.0,0.0,0.0,0.0,0.0,0.0,0.0,0.0,0.0,0.0,5.3797,5.9564,6.4918,6.9496,7.1278,7.1526,7.0223,7.1474,7.1581,7.0391,7.0898,7.1232,7.1394,7.1218,7.1232,7.1394,7.1394,0.0,0.0,0.0,0.0,0.0,0.0,0.0,7.5303,7.3894,7.2913,7.2191,7.1436,7.015,6.9045,7.0252,6.9113,6.7117,6.6948,6.4959,6.1699,5.6448,0.0,5.0321,4.6211,4.5805,4.7486,5.1318,5.2182,5.4422,0.0,0.0,6.4795,7.0299,7.3553,7.5956,7.7739,8.128,8.412,8.4576,8.6066,8.7077,8.6691,8.6724,8.7008,8.7685,8.7177,8.7313,8.8714,8.8849,8.939,9.0696,9.0865,9.0932,9.0932,9.1,9.1102,9.1169,9.1116,9.1135,9.1305,9.1203,9.1203,9.1271,9.056,9.0208,9.0174,8.9458,8.8714,8.7922,8.6514,8.5486,8.4728,8.4647,8.4614,8.4614,8.4614,8.4546,8.4478,8.458,8.4512,8.4603,0.0,0.0,0.0,0.0,0.0,0.0,0.0,0.0,0.0,0.0,0.0,0.0,0.0,0.0,0.0,0.0,0.0,0.0,5.2401,6.025,6.6236,6.9468,7.0211,6.9858,6.8413,6.9004,6.9418,6.9661,6.9104,6.9288,7.01,6.9245,6.952,7.0711,7.0711,7.1893,0.0,0.0,0.0,0.0,0.0,0.0,7.4965,7.3894,7.2778,7.1503,6.9406,6.8019,0.0,0.0,6.7421,6.6924,6.8673,6.6305,6.2245,5.9167,5.551,0.0,5.0493,5.0468,5.1795,5.5526,5.806,6.126,6.7427,6.9325,7.1207,7.6218,7.9376,8.1644,8.3111,8.4749,8.6053,0.0,8.7272,8.7774,8.7564,8.7922,8.8139,8.8023,8.8091,8.8598,8.9647,9.0135,9.0642,9.1237,9.1305,9.1305,9.1305,9.1305,9.1508,9.1933,9.1933,9.2373,9.3267,9.3267,9.3267,9.3267,9.2522,9.1711,9.0831,9.0087,8.8869,8.7299,8.6244,8.5351,8.4614,8.4614,8.4614,8.4614,8.4614,8.4614,8.4614,8.4614,8.4614,8.4723,0.0,0.0,0.0,0.0,0.0,0.0,0.0,0.0,0.0,0.0,0.0,0.0,0.0,0.0,0.0,0.0,0.0,0.0,0.0,5.9505,6.5945,6.8495,6.9184,6.8663,6.686,6.7207,6.7703,6.8314,6.7427,6.7548,6.856,6.7502,6.782,6.9327,6.9327,7.0616,7.2728,0.0,0.0,0.0,0.0,0.0,7.369,7.3356,7.1412,6.8651,6.6855,6.5459,0.0,0.0,6.3406,6.3676,6.6045,6.4353,6.1061,5.9133,5.5446,5.2132,5.2888,5.4012,5.6009,6.0279,6.4183,6.8076,7.229,7.4449,7.6856,8.1349,8.3634,8.515,8.6222,8.6579,8.6955,8.7602,8.8047,8.8443,8.8835,8.9018,8.8815,8.8091,8.8294,8.8767,8.9512,9.0628,9.1541,9.2184,9.2252,9.2252,9.2252,9.2252,9.2489,9.3015,9.3049,9.3658,9.4977,9.5011,9.4909,9.4673,9.3958,9.2774,9.1271,9.0121,8.872,8.7144,8.621,8.5466,8.4898,8.4681,8.4614,8.4614,8.4614,8.4614,8.4614,8.4614,8.4614,8.473,0.0,0.0,0.0,0.0,0.0,0.0,0.0,0.0,0.0,0.0,0.0,0.0,0.0,0.0,0.0,0.0,0.0,0.0,0.0,5.7485,6.3877,6.6944,6.913,6.8973,6.6192,6.7466,6.7475,6.6102,6.67,6.7029,6.7075,6.7029,6.7029,6.7121,6.7121,6.8683,7.1304,7.0608,0.0,0.0,0.0,0.0,7.1671,7.2212,6.8417,6.2946,6.4226,0.0,0.0,0.0,5.7645,5.7205,5.8026,5.866,0.0,5.5624,5.1589,0.0,0.0,0.0,5.8481,6.5864,7.0515,7.4851,8.0985,8.1983,8.2954,8.7572,8.7653,8.6803,8.6465,8.7028,8.7679,8.7939,8.8606,8.956,9.1014,8.9999,8.8815,8.8091,8.738,8.7265,0.0,9.0019,9.2218,9.4436,9.4605,9.4605,9.4605,9.4605,9.4605,9.4639,9.4639,9.4992,9.577,9.577,9.5398,9.4673,9.3958,9.2774,9.1237,8.9072,8.8023,8.7888,8.6447,8.577,8.5702,8.4931,8.4614,8.4614,8.4614,8.4614,8.4614,8.4614,8.4614,8.4943,0.0,0.0,0.0,0.0,0.0,0.0,0.0,0.0,0.0,0.0,0.0,0.0,0.0,0.0,0.0,0.0,0.0,0.0,0.0,5.4109,5.9833,6.1936,6.47,6.5518,6.4136,6.4956,6.5375,6.5338,6.5577,6.5667,6.5697,6.6131,6.658,6.7014,6.7463,6.8448,6.9773,6.95,7.077,0.0,0.0,0.0,7.1171,7.0001,6.6031,6.0775,0.0,0.0,0.0,0.0,0.0,0.0,5.6461,0.0,0.0,4.9687,0.0,0.0,0.0,0.0,6.6899,7.1888,7.5561,7.9075,8.3457,8.4298,8.496,8.7794,8.5896,8.3786,8.4142,8.3792,8.3947,8.5485,8.8463,9.0744,9.1237,9.1759,9.0879,8.7651,8.7922,0.0,0.0,0.0,0.0,9.3015,9.3673,9.3977,9.3977,9.489,9.5229,9.4706,9.5635,9.6293,9.6529,9.7022,9.665,9.5398,9.3131,9.1541,9.0527,8.9275,8.8192,8.7231,8.6738,8.5946,8.4965,8.4715,8.4614,8.4614,8.4614,8.4614,8.4614,8.4614,8.4614,8.4824,0.0,0.0,0.0,0.0,0.0,0.0,0.0,0.0,0.0,0.0,0.0,0.0,0.0,0.0,0.0,0.0,0.0,0.0,0.0,0.0,5.3802,5.5675,5.7954,5.8969,5.8497,5.889,5.9744,6.1136,6.2316,6.3274,6.3992,6.5129,6.5877,6.6311,6.6729,6.7298,6.7926,6.7926,6.8423,6.9087,0.0,0.0,6.5361,6.4328,6.0125,0.0,0.0,0.0,0.0,0.0,0.0,0.0,0.0,0.0,0.0,0.0,0.0,0.0,0.0,6.6721,7.2406,7.6635,7.9769,8.2531,8.5449,8.5802,8.5861,8.7258,8.4041,8.1034,8.124,7.9968,7.9803,8.2598,8.5689,8.8578,9.0966,9.1237,9.0425,8.8314,8.8226,8.7766,0.0,0.0,0.0,9.1831,9.3233,9.3977,9.3977,9.5379,9.5973,9.5499,9.6394,9.7037,9.7308,9.7495,9.6717,9.4958,9.2503,9.0899,9.0174,8.9458,8.8578,8.7651,8.7144,8.6487,8.5743,8.4918,8.4762,8.4999,8.4715,8.4614,8.4614,8.4614,8.4614,8.4824,0.0,0.0,0.0,0.0,0.0,0.0,0.0,0.0,0.0,0.0,0.0,0.0,0.0,0.0,0.0,0.0,0.0,0.0,0.0,0.0,0.0,4.8516,4.958,5.0083,5.0051,5.0117,5.1415,5.4,5.7124,5.9638,6.1583,6.3483,6.4336,6.4336,6.4426,6.4785,6.5413,6.5413,6.4695,6.3493,6.2939,0.0,5.5136,5.5915,0.0,0.0,0.0,0.0,0.0,0.0,0.0,0.0,0.0,0.0,0.0,0.0,0.0,5.9404,6.8176,7.227,7.5281,8.0323,8.3139,8.5209,8.7062,8.6541,8.5738,8.5918,8.2038,7.8336,0.0,0.0,7.5664,7.9431,8.1033,8.4078,9.056,8.914,8.8145,0.0,0.0,0.0,0.0,0.0,0.0,9.1135,0.0,9.4639,9.474,9.6142,9.6935,9.6902,9.6935,9.7308,9.7987,9.724,9.5717,9.3518,9.2063,9.0932,9.0106,8.9458,8.912,8.8984,8.755,8.7333,8.7753,8.5574,8.51,8.5736,8.4898,8.4614,8.4614,8.4614,8.4633,8.5014,0.0,0.0,0.0,0.0,0.0,0.0,0.0,0.0,0.0,0.0,0.0,0.0,0.0,0.0,0.0,0.0,0.0,0.0,0.0,0.0,0.0,0.0,0.0,0.0,0.0,0.0,0.0,0.0,0.0,5.3,5.4,5.4987,5.5466,5.5508,5.6513,5.7051,5.7201,5.7201,5.7304,5.7305,0.0,5.4306,5.2935,0.0,0.0,0.0,0.0,0.0,0.0,0.0,0.0,4.9221,5.0744,5.2604,5.5006,5.8973,6.3304,6.8007,7.3646,7.8416,8.2361,8.4843,8.5912,8.6312,8.628,8.5143,8.3324,8.0684,7.5619,7.1075,0.0,0.0,0.0,7.713,8.393,0.0,9.3368,9.4112,0.0,9.2034,0.0,9.1203,8.9531,9.0343,0.0,0.0,9.2677,9.3726,9.5432,9.692,9.7461,9.6902,9.7428,9.78,9.7987,9.6717,9.4924,9.2711,9.2305,9.1169,8.939,8.9748,8.9309,8.8274,8.7888,8.7502,8.7096,8.596,8.5601,8.5736,8.4898,8.4614,8.4614,8.4614,8.5183,8.6165,0.0,0.0,0.0,0.0,0.0,0.0,0.0,0.0,0.0,0.0,0.0,0.0,0.0,0.0,0.0,0.0,0.0,0.0,0.0,0.0,0.0,0.0,0.0,0.0,0.0,0.0,0.0,0.0,0.0,0.0,0.0,4.9452,5.0062,5.0092,5.084,5.1349,5.1618,0.0,0.0,0.0,0.0,0.0,0.0,0.0,0.0,0.0,0.0,0.0,0.0,4.7631,5.0135,5.3078,5.5987,5.8457,6.1163,6.5876,7.0071,7.4199,7.8978,8.2902,8.5811,8.669,8.713,8.6602,8.3558,8.2205,7.9972,7.4255,6.9383,6.5368,6.2773,6.5595,6.9586,0.0,0.0,0.0,9.3049,9.4112,9.433,0.0,9.4282,0.0,9.2339,9.2914,9.3827,0.0,9.4267,9.4436,9.5736,9.7191,9.78,9.7394,9.7766,9.7683,9.7056,9.5905,9.4334,9.2392,9.2068,9.1102,8.9579,8.9681,8.9275,8.8477,0.0,8.7955,8.7786,8.6704,8.6264,8.6196,8.5418,8.4898,8.4614,8.4614,8.5369,8.6597,0.0,0.0,0.0,0.0,0.0,0.0,0.0,0.0,0.0,0.0,0.0,0.0,0.0,0.0,0.0,0.0,0.0,0.0,0.0,0.0,0.0,0.0,0.0,0.0,0.0,0.0,0.0,0.0,0.0,0.0,0.0,0.0,0.0,0.0,0.0,0.0,0.0,0.0,0.0,0.0,0.0,0.0,0.0,0.0,0.0,0.0,0.0,0.0,0.0,5.4794,5.668,5.7829,6.1603,6.4367,6.732,7.2913,7.5992,7.8674,8.3578,8.5946,8.7062,8.7164,8.7617,8.6433,8.0467,7.8708,7.5968,6.7512,6.3328,6.0327,5.7383,6.08,6.5425,6.9766,0.0,8.4248,9.1798,9.2387,9.3098,9.5905,9.6311,9.6142,9.5484,9.5417,9.6195,9.8003,9.6954,9.6244,9.6244,9.736,9.7987,9.7987,9.7901,9.7191,9.5804,9.506,9.3928,9.2392,9.173,9.1068,9.0324,8.9593,8.9255,8.9187,0.0,0.0,8.8984,8.7617,8.6995,8.6825,8.6108,8.5317,8.4614,8.4614,8.5451,8.6793,0.0,0.0,0.0,0.0,0.0,0.0,0.0,0.0,0.0,0.0,2.8536,2.9967,0.0,0.0,0.0,0.0,0.0,0.0,0.0,0.0,0.0,0.0,0.0,0.0,0.0,0.0,0.0,0.0,0.0,0.0,0.0,0.0,0.0,0.0,0.0,0.0,0.0,0.0,0.0,0.0,0.0,0.0,0.0,0.0,0.0,0.0,0.0,0.0,0.0,0.0,6.1796,6.5517,6.9282,7.2462,7.5439,7.8936,8.0648,8.2192,8.5574,8.713,8.7955,8.8578,8.8375,8.6433,8.0467,7.669,0.0,6.2303,5.7534,5.4296,5.1902,5.663,6.3328,7.0804,7.8247,8.596,9.4079,9.5601,9.6563,0.0,9.9085,9.9374,9.9273,9.9239,0.0,0.0,0.0,9.851,9.851,9.8206,9.7987,9.7987,9.7409,9.6699,9.5804,9.506,9.3928,9.2392,9.2271,9.1831,9.1068,9.0357,9.0019,8.9985,0.0,0.0,8.9018,8.8158,8.7448,8.6825,8.6108,8.5317,8.4614,8.4614,8.6025,8.7987,0.0,0.0,0.0,0.0,0.0,0.0,0.0,0.0,2.5708,2.8998,3.0083,3.0687,3.1121,3.1253,0.0,0.0,0.0,0.0,0.0,0.0,0.0,0.0,0.0,0.0,0.0,0.0,0.0,0.0,0.0,0.0,0.0,0.0,0.0,0.0,0.0,0.0,0.0,0.0,0.0,0.0,0.0,0.0,0.0,0.0,0.0,0.0,0.0,0.0,0.0,0.0,6.2482,7.0489,7.5033,7.8247,8.0682,8.2475,8.3862,8.5067,8.6521,8.7719,8.8646,8.9018,8.7651,8.4052,7.5765,7.0996,0.0,5.4803,5.1251,4.9424,4.7579,5.367,6.0622,6.5797,7.3172,8.1439,9.0459,9.2368,9.4398,9.8578,10.01,10.0811,10.0811,10.0811,10.0691,0.0,0.0,9.8916,9.8544,9.8206,9.7987,9.7987,9.692,9.6157,9.5804,9.4687,9.3774,9.303,9.2609,9.2203,9.1831,9.0715,9.0208,9.0154,8.9424,0.0,8.9052,8.8714,8.7922,8.6859,8.6501,8.5642,8.4614,8.4614,8.614,8.8259,0.0,0.0,0.0,0.0,0.0,0.0,0.0,2.5742,2.7538,3.1427,3.1904,3.1831,3.1684,3.0534,3.0309,0.0,0.0,0.0,0.0,0.0,0.0,0.0,0.0,0.0,0.0,0.0,0.0,0.0,0.0,0.0,0.0,0.0,0.0,0.0,0.0,0.0,0.0,0.0,0.0,0.0,0.0,0.0,0.0,0.0,0.0,0.0,0.0,0.0,0.0,5.3441,6.0689,7.006,7.5777,8.0073,8.3084,8.3342,8.483,8.6487,8.6825,8.7989,8.9086,8.9086,8.6704,8.1684,7.1447,6.5821,5.9631,4.8586,4.6056,4.5582,4.4743,5.0718,5.7045,6.0892,6.7184,7.5315,8.6041,8.8443,9.159,9.8307,10.059,0.0,10.1589,10.1589,0.0,0.0,0.0,0.0,9.8037,9.7867,9.7766,9.7766,9.6345,9.5567,9.5567,9.4263,9.3586,9.3586,9.2778,9.2493,9.2609,9.0952,9.0275,9.0391,8.9492,0.0,0.0,8.9086,8.8328,8.713,8.6961,8.6048,8.483,8.4647,8.6127,8.8212,0.0,0.0,0.0,0.0,0.0,0.0,0.0,2.6791,2.9834,3.3149,3.3587,3.3293,3.2586,3.2366,3.1889,0.0,0.0,0.0,0.0,0.0,0.0,0.0,0.0,0.0,0.0,0.0,0.0,0.0,0.0,0.0,0.0,0.0,0.0,0.0,0.0,0.0,0.0,0.0,0.0,0.0,0.0,0.0,0.0,0.0,0.0,0.0,0.0,0.0,4.6462,5.3239,5.6722,5.9505,6.6745,7.4774,8.1236,7.9993,8.209,8.5134,8.6521,8.7989,8.9086,8.9086,8.6345,8.1054,7.1312,6.458,5.7442,4.6969,4.3687,4.3112,4.4371,4.6921,5.1784,6.0834,6.4038,7.024,8.4045,8.78,9.159,9.8307,10.1097,0.0,10.2384,10.2384,10.2096,0.0,0.0,0.0,9.8037,9.736,9.7003,9.7003,9.5567,9.4808,9.4808,9.3992,9.3586,9.3586,9.2778,9.2778,9.3417,9.1203,9.056,9.1102,0.0,0.0,0.0,8.9086,8.8646,8.782,8.7164,8.6399,8.5601,8.4864,8.6187,8.8281,0.0,0.0,0.0,0.0,0.0,0.0,0.0,2.7855,3.0344,3.405,3.4094,3.3473,3.2696,3.1742,3.0769,0.0,0.0,0.0,0.0,0.0,0.0,0.0,0.0,0.0,0.0,0.0,0.0,0.0,0.0,0.0,0.0,0.0,0.0,0.0,0.0,0.0,0.0,0.0,0.0,0.0,0.0,0.0,0.0,0.0,0.0,0.0,0.0,0.0,4.6259,4.8315,5.2198,5.6181,5.6452,6.298,7.1548,7.6352,8.0073,8.3253,8.6115,8.7989,8.8984,8.8545,8.3943,7.7333,6.8954,6.0994,5.3213,4.5466,4.2686,4.2117,4.3606,4.5358,4.8706,5.5243,5.7205,6.2076,7.4063,7.8022,8.3199,9.2624,9.6548,9.9525,0.0,0.0,10.2198,0.0,0.0,0.0,9.8037,9.7308,9.6699,9.6259,9.5229,9.4706,9.4706,9.3958,9.3586,9.3586,9.2778,9.2575,9.2827,9.102,9.0343,9.0594,0.0,0.0,0.0,8.9086,8.868,8.7955,8.7685,8.7286,8.6839,8.6517,8.7642,8.9316,0.0,0.0,0.0,0.0,0.0,2.3098,2.6872,2.8956,3.1259,3.456,3.4494,3.3763,3.2696,3.0534,2.8919,2.8326,0.0,0.0,0.0,0.0,0.0,0.0,0.0,0.0,0.0,0.0,0.0,0.0,0.0,0.0,0.0,0.0,0.0,0.0,0.0,0.0,0.0,0.0,0.0,0.0,0.0,0.0,0.0,0.0,0.0,0.0,0.0,0.0,0.0,0.0,0.0,5.2596,4.9856,0.0,0.0,7.0906,7.6466,8.056,8.4776,8.7313,8.8646,8.8125,8.2408,7.4931,6.7398,5.8761,5.0541,4.4336,4.1908,4.1339,4.2787,4.4133,4.6474,5.0913,5.2706,5.7061,6.732,7.1109,7.6487,8.6399,0.0,9.4112,0.0,10.1302,10.2198,0.0,0.0,0.0,9.8055,9.7308,9.6462,9.5499,9.4977,9.462,9.4383,9.3605,9.3349,9.3586,9.2556,9.2203,9.2358,9.0884,9.0208,9.0154,0.0,0.0,0.0,8.9086,8.868,8.7989,8.7753,8.7448,8.7082,8.721,8.8181,8.9516,0.0,0.0,0.0,0.0,0.0,0.0,0.0,3.0017,3.3133,3.4781,3.4997,3.4377,3.2766,2.9026,2.6644,2.6644,0.0,0.0,0.0,0.0,0.0,0.0,0.0,0.0,0.0,0.0,0.0,0.0,0.0,0.0,0.0,0.0,0.0,0.0,0.0,0.0,0.0,0.0,0.0,0.0,0.0,0.0,4.349,0.0,0.0,0.0,0.0,0.0,0.0,0.0,0.0,0.0,0.0,0.0,0.0,0.0,7.0545,7.6893,8.2103,8.5723,8.8023,8.7989,8.2408,7.4931,6.7398,5.8761,5.0405,4.368,4.1156,4.0546,4.2022,4.2922,4.4877,4.9398,5.2029,5.6867,6.6542,6.988,7.3837,8.0593,8.2725,8.596,9.1933,9.8562,10.2198,0.0,0.0,0.0,9.8089,9.7308,9.6225,9.474,9.4706,9.4349,9.362,9.2812,9.2812,9.3586,9.2029,9.1711,9.2358,9.0884,9.0208,0.0,0.0,0.0,0.0,8.9086,8.868,8.7922,8.7211,8.6481,8.5857,8.6263,8.7187,8.8391,0.0,0.0,0.0,0.0,0.0,0.0,0.0,2.7669,2.947,3.2189,3.1595,3.0895,3.0974,2.8369,2.6276,2.55,0.0,0.0,0.0,0.0,0.0,0.0,0.0,0.0,0.0,0.0,0.0,0.0,0.0,0.0,0.0,0.0,0.0,0.0,0.0,0.0,0.0,0.0,0.0,0.0,0.0,4.1982,4.2692,0.0,0.0,0.0,0.0,0.0,0.0,0.0,0.0,0.0,0.0,0.0,0.0,0.0,0.0,6.9902,7.4627,7.7705,7.9092,7.7084,7.2146,6.6328,6.0858,5.4253,4.8097,4.3896,4.1874,4.1305,4.2787,4.2821,4.479,5.1352,5.345,5.6393,6.2516,6.9271,7.5473,8.0695,9.029,9.7225,0.0,0.0,10.2198,0.0,0.0,0.0,9.8089,9.7308,9.6225,9.474,9.4214,9.3571,9.2778,9.2049,9.1778,9.2029,9.1034,9.0681,9.085,8.9884,0.0,0.0,0.0,0.0,0.0,8.8545,8.8206,8.8018,8.8091,8.8172,8.8365,8.9335,9.0113,9.0706,0.0,0.0,0.0,0.0,0.0,0.0,0.0,2.6546,2.7861,2.979,2.9433,2.9097,2.9252,2.742,2.585,2.5166,0.0,0.0,0.0,0.0,0.0,0.0,0.0,0.0,0.0,0.0,0.0,0.0,0.0,0.0,0.0,0.0,0.0,0.0,0.0,0.0,0.0,0.0,0.0,0.0,4.0994,4.1312,4.1547,0.0,0.0,0.0,0.0,0.0,0.0,0.0,0.0,0.0,0.0,0.0,0.0,0.0,0.0,0.0,6.8041,7.1718,7.3172,7.1345,6.6734,6.1559,5.7365,5.1547,4.6297,4.3565,4.1813,4.1244,4.2719,4.2828,4.4519,5.0067,5.2503,5.5513,6.0588,6.803,7.5236,8.1405,9.1947,0.0,0.0,10.0912,0.0,0.0,0.0,0.0,9.8055,9.7308,9.6225,9.474,9.4248,9.3503,9.2392,9.1677,9.1305,9.1271,9.0256,8.9918,9.0174,8.9458,0.0,0.0,0.0,0.0,0.0,8.7888,8.7414,8.7206,8.7499,8.7872,8.8393,8.9601,9.0536,9.1228,0.0,0.0,0.0,0.0,0.0,0.0,0.0,0.0,0.0,2.7712,2.8335,2.8476,2.7792,2.6292,2.5303,2.5303,0.0,0.0,0.0,0.0,0.0,0.0,0.0,0.0,0.0,0.0,0.0,3.5538,3.5571,3.641,3.7965,0.0,0.0,0.0,0.0,0.0,0.0,0.0,0.0,0.0,4.0631,4.0798,0.0,0.0,0.0,0.0,0.0,0.0,0.0,0.0,0.0,0.0,0.0,0.0,0.0,0.0,0.0,0.0,0.0,6.6688,6.8954,6.8819,6.4546,5.9462,5.58,5.0119,0.0,4.2767,4.1156,4.0682,4.2333,4.299,4.4201,4.6928,5.027,5.4591,6.0554,6.7049,0.0,0.0,8.9498,0.0,9.3789,0.0,0.0,0.0,0.0,0.0,9.7969,9.7172,9.609,9.4687,9.4571,9.3827,9.2339,9.1541,9.1135,9.1135,8.9763,8.9458,9.0106,8.9424,0.0,0.0,0.0,0.0,0.0,8.7144,8.6433,8.5831,8.5931,8.6204,8.6672,8.7986,8.9189,9.0377,0.0,0.0,0.0,0.0,0.0,0.0,0.0,0.0,0.0,0.0,2.6505,2.6397,2.683,2.544,2.4488,0.0,0.0,0.0,0.0,0.0,0.0,0.0,0.0,0.0,0.0,0.0,0.0,3.4748,3.5306,3.641,3.7998,3.7697,0.0,0.0,0.0,0.0,0.0,0.0,0.0,0.0,4.0829,4.1152,0.0,0.0,0.0,0.0,4.425,4.5115,0.0,0.0,0.0,0.0,0.0,0.0,0.0,0.0,4.6421,0.0,0.0,0.0,5.7002,5.5252,5.3357,0.0,0.0,0.0,0.0,0.0,0.0,4.1921,4.5135,4.3985,4.4797,0.0,0.0,5.6587,6.1477,7.3161,0.0,9.0439,9.648,9.9085,9.6394,0.0,0.0,0.0,0.0,9.7935,9.7206,9.5905,9.4789,9.389,9.3252,9.2508,9.1575,9.027,8.9627,8.9593,8.9255,8.9187,8.9357,8.9187,0.0,0.0,0.0,0.0,8.7096,8.6366,8.5973,8.5917,8.7167,8.7691,8.8032,9.0158,9.1144,9.1462,0.0,0.0,0.0,0.0,0.0,0.0,0.0,0.0,0.0,0.0,0.0,0.0,0.0,0.0,0.0,0.0,0.0,0.0,0.0,0.0,0.0,0.0,0.0,0.0,0.0,0.0,0.0,0.0,0.0,3.7984,0.0,0.0,0.0,0.0,0.0,0.0,0.0,0.0,0.0,4.0435,4.0776,0.0,0.0,0.0,0.0,0.0,4.4612,4.5462,0.0,4.7897,4.7704,4.6756,0.0,0.0,0.0,0.0,4.4864,4.5887,4.6285,4.9086,5.1623,5.0413,0.0,0.0,0.0,0.0,0.0,0.0,0.0,4.1914,4.4289,4.4526,0.0,0.0,5.4964,0.0,0.0,0.0,8.6318,9.3721,9.7461,9.9288,0.0,0.0,0.0,0.0,0.0,9.6902,9.5447,9.4958,9.4045,9.2605,9.2116,9.1527,9.0797,8.9985,8.9424,8.9086,8.8748,8.8612,8.8578,8.8226,8.7854,0.0,0.0,0.0,8.6332,8.5587,8.5568,8.6149,8.7039,8.8054,8.9164,9.0483,9.1305,9.1803,0.0,0.0,0.0,0.0,0.0,0.0,0.0,0.0,0.0,0.0,0.0,0.0,0.0,0.0,0.0,0.0,0.0,0.0,0.0,0.0,0.0,0.0,0.0,0.0,0.0,0.0,0.0,0.0,0.0,0.0,0.0,0.0,4.1135,0.0,0.0,0.0,0.0,0.0,0.0,4.0172,4.0883,0.0,0.0,0.0,0.0,0.0,0.0,0.0,0.0,4.8352,4.8666,4.7944,4.6675,0.0,0.0,0.0,0.0,0.0,4.5007,4.7706,5.0244,4.9466,0.0,0.0,0.0,0.0,0.0,0.0,0.0,0.0,0.0,4.5477,0.0,0.0,0.0,0.0,7.6927,8.165,8.6825,9.4687,9.6244,0.0,0.0,0.0,0.0,0.0,0.0,9.5684,9.3721,9.4079,9.3353,9.1203,9.1,9.0594,8.987,8.987,8.9545,8.8917,8.8158,8.782,8.782,8.7164,8.6825,0.0,0.0,0.0,8.5567,8.4898,8.5318,8.6426,8.6587,8.8054,9.0016,9.0224,9.0926,9.1803,0.0,0.0,0.0,0.0,0.0,0.0,0.0,0.0,0.0,0.0,0.0,0.0,0.0,0.0,0.0,0.0,0.0,0.0,0.0,0.0,0.0,0.0,0.0,0.0,0.0,0.0,0.0,0.0,0.0,0.0,4.4451,4.5991,4.4207,0.0,0.0,0.0,0.0,0.0,0.0,4.1548,4.216,0.0,0.0,0.0,0.0,0.0,0.0,0.0,0.0,4.6581,4.6949,4.7303,4.5841,0.0,0.0,0.0,0.0,0.0,4.688,4.9619,5.0913,0.0,0.0,0.0,0.0,0.0,0.0,0.0,0.0,0.0,0.0,4.8615,5.0051,0.0,0.0,7.3364,0.0,0.0,9.1865,9.4537,0.0,0.0,0.0,0.0,0.0,0.0,0.0,0.0,9.3654,9.3049,9.2034,9.0425,8.9748,8.9086,8.8328,8.8328,8.826,8.8158,8.7414,8.7062,8.7062,8.6961,8.6569,0.0,0.0,8.5418,8.4749,8.4647,8.5318,8.6512,8.7515,8.8765,9.0107,9.1154,9.1638,9.1803,0.0,0.0,0.0,0.0,0.0,0.0,0.0,0.0,0.0,0.0,0.0,0.0,0.0,0.0,0.0,0.0,0.0,0.0,0.0,0.0,0.0,0.0,0.0,0.0,0.0,0.0,0.0,0.0,0.0,4.6007,4.939,4.7895,4.4641,4.0014,0.0,0.0,0.0,0.0,0.0,4.1858,0.0,0.0,0.0,0.0,0.0,0.0,0.0,0.0,0.0,0.0,4.6856,4.6922,4.5205,0.0,0.0,0.0,0.0,0.0,4.5846,4.7394,4.8545,0.0,0.0,0.0,0.0,0.0,0.0,0.0,0.0,0.0,0.0,0.0,5.7974,6.8628,0.0,7.9194,8.6399,8.8584,0.0,0.0,0.0,0.0,0.0,0.0,0.0,0.0,0.0,0.0,9.1846,0.0,9.0546,8.9072,8.8666,8.8158,8.7414,8.7008,8.7008,8.7414,8.667,8.6298,8.6298,8.5845,8.5473,8.5134,0.0,8.4931,8.4614,8.4614,8.5318,8.6536,8.7723,8.8928,9.0137,9.137,9.1803,9.1803,0.0,0.0,0.0,0.0,0.0,0.0,0.0,0.0,0.0,0.0,0.0,0.0,0.0,0.0,0.0,0.0,0.0,0.0,0.0,0.0,0.0,0.0,0.0,0.0,0.0,0.0,3.879,4.3666,4.6819,5.0135,5.3408,4.9424,4.5094,0.0,0.0,0.0,0.0,0.0,0.0,4.2052,0.0,0.0,0.0,0.0,0.0,0.0,0.0,0.0,0.0,0.0,0.0,0.0,0.0,0.0,0.0,4.3689,4.3653,4.4675,4.5014,4.6015,4.7455,0.0,0.0,0.0,0.0,0.0,0.0,0.0,0.0,0.0,0.0,5.9488,0.0,7.7355,8.1359,0.0,0.0,0.0,0.0,0.0,0.0,0.0,0.0,0.0,0.0,0.0,0.0,0.0,0.0,0.0,8.9275,8.7786,8.755,8.7211,8.667,8.5892,8.5892,8.6636,8.5892,8.552,8.5486,8.4898,8.4614,8.4614,8.4614,8.4614,8.4614,8.4614,8.5318,8.6536,8.7723,8.9089,9.0513,9.1454,9.1693,9.151,0.0,0.0,0.0,0.0,0.0,0.0,0.0,0.0,0.0,0.0,0.0,0.0,0.0,0.0,0.0,0.0,0.0,0.0,0.0,0.0,0.0,0.0,0.0,0.0,0.0,3.7252,4.0635,4.4499,5.0202,5.3171,5.3441,5.0988,4.7097,4.2124,0.0,0.0,0.0,0.0,0.0,4.2679,4.3223,0.0,0.0,0.0,0.0,0.0,0.0,0.0,0.0,0.0,0.0,0.0,0.0,0.0,4.524,4.4612,4.4506,4.4912,4.6252,4.868,5.0533,4.9383,0.0,0.0,0.0,0.0,0.0,0.0,0.0,0.0,0.0,6.6531,7.3172,7.8268,8.4403,9.0338,0.0,0.0,0.0,0.0,0.0,0.0,0.0,0.0,0.0,0.0,0.0,0.0,0.0,0.0,0.0,8.7028,8.6311,8.5939,8.5872,8.51,8.51,8.5872,8.5067,8.4695,8.4681,8.4614,8.4614,8.4614,8.4614,8.4614,8.4614,8.4614,8.5318,8.6536,8.7723,8.961,9.1675,9.1785,9.1326,9.0693,0.0,0.0,0.0,0.0,0.0,0.0,0.0,0.0,0.0,0.0,0.0,0.0,0.0,0.0,0.0,0.0,0.0,0.0,0.0,0.0,0.0,0.0,0.0,3.4052,3.4488,4.0189,4.5676,5.0827,5.4905,5.5505,5.2706,4.9991,0.0,0.0,0.0,0.0,0.0,0.0,0.0,4.2737,4.3277,4.3506,0.0,0.0,0.0,0.0,0.0,0.0,0.0,0.0,4.4574,4.5096,4.3572,4.4138,4.5082,4.3605,4.3856,4.4601,4.4681,4.7853,5.1202,5.1123,0.0,0.0,0.0,0.0,0.0,0.0,0.0,0.0,0.0,0.0,7.9486,8.209,8.8178,0.0,0.0,0.0,0.0,0.0,0.0,0.0,0.0,0.0,0.0,0.0,0.0,0.0,0.0,0.0,0.0,8.623,8.5452,8.5033,8.5033,8.4749,8.4749,8.5033,8.4762,8.4614,8.4614,8.4614,8.4614,8.4614,8.4614,8.4614,8.4614,8.4614,8.5318,8.6575,8.8557,9.0344,9.1803,9.1803,9.1289,9.0583,0.0,0.0,0.0,0.0,0.0,0.0,0.0,0.0,0.0,0.0,0.0,0.0,0.0,0.0,0.0,0.0,0.0,0.0,0.0,0.0,0.0,0.0,0.0,3.4893,3.6586,4.3024,4.874,5.3518,5.7196,5.6452,5.1555,0.0,0.0,0.0,0.0,0.0,0.0,0.0,0.0,0.0,4.3339,4.3506,0.0,0.0,0.0,0.0,0.0,0.0,0.0,0.0,4.4048,4.4098,4.3182,4.3763,4.455,4.3354,4.3958,4.4763,4.3978,4.6575,4.9879,0.0,0.0,0.0,0.0,0.0,0.0,0.0,0.0,0.0,0.0,0.0,0.0,0.0,0.0,0.0,0.0,0.0,0.0,0.0,0.0,0.0,0.0,0.0,0.0,0.0,0.0,0.0,0.0,0.0,0.0,0.0,8.4898,8.4614,8.4614,8.4614,8.4614,8.4614,8.4614,8.4614,8.4614,8.4614,8.4614,8.4614,8.4614,8.4614,8.4614,8.4614,8.5528,8.7116,8.8787,9.0394,9.173,9.1087,9.0575,9.0179,0.0,0.0,0.0,0.0,0.0,0.0,0.0,0.0,0.0,0.0,0.0,0.0,0.0,0.0,0.0,0.0,0.0,0.0,0.0,0.0,0.0,0.0,0.0,3.6314,4.1007,4.5553,4.8969,5.1235,5.6409,5.5877,5.0007,4.7808,0.0,0.0,0.0,0.0,0.0,0.0,0.0,0.0,4.3506,4.3506,0.0,0.0,0.0,0.0,0.0,0.0,0.0,0.0,4.3793,4.2977,4.4636,4.4277,4.3407,4.4327,4.5135,4.5534,4.477,4.5176,4.6715,0.0,0.0,0.0,0.0,0.0,0.0,0.0,0.0,0.0,0.0,0.0,0.0,0.0,0.0,0.0,0.0,0.0,0.0,0.0,0.0,0.0,0.0,0.0,0.0,0.0,0.0,0.0,0.0,0.0,0.0,0.0,8.4614,8.4614,8.4614,8.4614,8.4614,8.4614,8.4614,8.4614,8.4614,8.4614,8.4614,8.4614,8.4614,8.4614,8.4614,8.4606,8.6028,8.8201,8.8212,8.9672,9.1538,8.9544,8.9044,8.929,0.0,0.0,0.0,0.0,0.0,0.0,0.0,0.0,0.0,0.0,0.0,0.0,0.0,0.0,0.0,0.0,0.0,0.0,0.0,0.0,0.0,0.0,0.0,0.0,0.0,0.0,4.7387,5.438,5.4321,5.1792,0.0,0.0,0.0,4.1167,0.0,0.0,0.0,0.0,0.0,0.0,4.3726,4.3506,0.0,0.0,0.0,0.0,0.0,0.0,0.0,0.0,0.0,0.0,4.342,4.3858,4.4143,4.383,4.4681,4.5297,4.3477,4.7387,0.0,5.2089,0.0,0.0,0.0,0.0,0.0,0.0,0.0,0.0,0.0,0.0,0.0,0.0,0.0,0.0,0.0,0.0,0.0,0.0,0.0,0.0,0.0,0.0,0.0,0.0,0.0,0.0,0.0,0.0,0.0,0.0,8.4614,8.4614,8.4614,8.4614,8.4614,8.4614,8.4614,8.4614,8.4614,8.4614,8.4614,8.4614,8.4614,8.4614,8.4739,8.6414,8.7538,8.822,8.8545,8.9982,9.1474,8.8977,8.8609,8.929,0.0,0.0,0.0,0.0,0.0,0.0,0.0,0.0,0.0,0.0,0.0,0.0,0.0,0.0,0.0,0.0,0.0,0.0,0.0,0.0,0.0,0.0,0.0,0.0,0.0,4.1339,4.6143,0.0,0.0,0.0,0.0,0.0,0.0,4.2908,0.0,4.6949,0.0,0.0,4.5879,4.47,4.4525,4.4273,4.3979,0.0,0.0,0.0,0.0,0.0,0.0,0.0,0.0,0.0,0.0,0.0,4.4222,4.4613,4.4783,4.4952,4.5628,4.9536,0.0,5.7673,6.4227,7.1186,0.0,0.0,0.0,0.0,0.0,0.0,0.0,0.0,0.0,0.0,0.0,0.0,0.0,0.0,0.0,0.0,0.0,0.0,0.0,0.0,0.0,0.0,0.0,0.0,0.0,0.0,0.0,0.0,8.4323,8.4153,8.4153,8.4153,8.4018,8.3734,8.4018,8.4018,8.3734,8.4309,8.4444,8.4153,8.4153,8.4153,8.4331,8.6755,8.7553,8.7323,8.7606,8.8978,9.0502,8.7564,8.7539,8.8821,0.0,0.0,0.0,0.0,0.0,0.0,0.0,0.0,0.0,0.0,0.0,0.0,0.0,0.0,0.0,0.0,0.0,0.0,0.0,0.0,0.0,0.0,0.0,0.0,0.0,0.0,0.0,0.0,0.0,0.0,0.0,0.0,4.7421,4.6859,0.0,5.0735,0.0,4.9042,4.7575,4.4883,4.5626,4.5443,4.481,4.481,0.0,0.0,0.0,0.0,0.0,0.0,0.0,0.0,4.392,4.3885,4.3937,4.5981,4.5297,4.4877,4.9781,5.1748,0.0,6.5155,6.984,0.0,8.0513,8.4583,8.7265,0.0,0.0,0.0,0.0,0.0,0.0,0.0,0.0,0.0,0.0,0.0,0.0,0.0,0.0,0.0,0.0,0.0,0.0,0.0,0.0,0.0,0.0,0.0,0.0,8.4411,8.3748,8.3389,8.3389,8.3389,8.305,0.0,8.3084,8.305,8.2462,8.3781,8.4018,8.3389,8.3389,8.3389,8.3564,8.5822,8.6391,8.5889,8.572,8.7161,8.902,8.5779,8.6141,8.8096,0.0,0.0,0.0,0.0,0.0,0.0,0.0,0.0,0.0,0.0,0.0,0.0,0.0,0.0,0.0,0.0,0.0,0.0,0.0,0.0,0.0,0.0,0.0,0.0,0.0,0.0,0.0,0.0,0.0,0.0,0.0,0.0,0.0,4.6078,0.0,4.9991,4.7677,4.714,4.6423,4.5663,4.5847,4.581,4.5626,4.5626,4.5255,0.0,0.0,0.0,0.0,0.0,0.0,0.0,4.3319,4.3836,4.4432,4.4939,4.5974,4.7447,4.9729,5.4502,0.0,0.0,7.311,8.01,8.4035,8.5945,8.6839,8.6548,0.0,0.0,0.0,0.0,0.0,0.0,0.0,0.0,0.0,0.0,0.0,0.0,0.0,0.0,0.0,0.0,0.0,0.0,0.0,0.0,0.0,0.0,0.0,8.2868,8.2733,8.2631,8.2631,8.2631,8.2564,0.0,8.2564,8.253,8.2395,8.2733,8.28,8.2631,8.2631,8.2631,8.274,8.4188,8.5225,8.5742,8.4283,8.6031,8.8956,8.5192,8.5693,8.8096,0.0,0.0,0.0,0.0,0.0,0.0,0.0,0.0,0.0,0.0,0.0,0.0,0.0,0.0,0.0,0.0,0.0,0.0,0.0,0.0,0.0,0.0,0.0,0.0,0.0,0.0,0.0,0.0,0.0,0.0,0.0,0.0,0.0,4.6924,0.0,5.1289,4.8006,4.869,4.7806,4.5957,4.6728,4.6833,4.6461,4.6461,0.0,0.0,0.0,0.0,0.0,0.0,0.0,0.0,0.0,0.0,4.4743,4.5447,4.5703,4.6771,5.1514,5.7047,0.0,7.2538,0.0,8.4011,8.499,8.5824,8.6264,8.5872,8.7563,0.0,0.0,0.0,0.0,0.0,0.0,0.0,0.0,0.0,0.0,0.0,0.0,0.0,0.0,0.0,0.0,0.0,0.0,0.0,0.0,8.28,8.2395,8.2395,8.1718,8.1359,8.1359,8.1359,8.1177,8.0805,8.1177,8.1143,8.0839,8.1562,8.2069,8.2395,8.2035,8.1866,8.1969,8.3148,8.3764,8.3895,8.2929,8.4521,8.7117,8.4543,8.5297,8.7573,0.0,0.0,0.0,0.0,0.0,0.0,0.0,0.0,0.0,0.0,0.0,0.0,0.0,0.0,0.0,0.0,0.0,0.0,0.0,0.0,0.0,0.0,0.0,0.0,0.0,0.0,0.0,0.0,0.0,0.0,0.0,0.0,0.0,4.8293,0.0,0.0,4.8632,5.0424,4.9218,4.625,4.7714,4.7893,4.7301,0.0,0.0,0.0,0.0,0.0,0.0,0.0,0.0,0.0,0.0,0.0,4.4845,4.6056,4.5356,4.5739,5.3091,5.9465,6.71,7.9953,8.4623,0.0,8.4811,8.5215,8.577,8.5635,8.7259,0.0,0.0,0.0,0.0,0.0,0.0,0.0,0.0,0.0,0.0,0.0,0.0,0.0,0.0,0.0,0.0,0.0,0.0,0.0,8.3084,8.2408,8.1955,8.182,8.0648,7.9938,7.9803,7.9803,7.9498,7.8911,7.9532,7.9498,7.8945,8.0187,8.1122,8.1786,8.1054,8.0729,8.0818,8.1759,8.1884,8.1494,8.1308,8.2616,8.4542,8.373,8.4541,8.6098,0.0,0.0,0.0,0.0,0.0,0.0,0.0,0.0,0.0,0.0,0.0,0.0,0.0,0.0,0.0,0.0,0.0,0.0,0.0,0.0,0.0,0.0,0.0,0.0,0.0,0.0,0.0,0.0,0.0,0.0,0.0,0.0,0.0,4.8948,0.0,0.0,0.0,4.8185,4.7594,4.7007,4.7929,4.8228,0.0,0.0,0.0,0.0,0.0,0.0,0.0,0.0,0.0,0.0,0.0,0.0,4.4642,4.4845,4.5952,4.7948,5.1663,6.1574,7.269,0.0,8.3465,8.4785,0.0,0.0,8.5601,0.0,8.6048,8.7164,0.0,0.0,0.0,0.0,0.0,0.0,0.0,0.0,0.0,0.0,0.0,0.0,0.0,0.0,0.0,0.0,0.0,0.0,8.1575,8.0885,8.0209,7.9553,7.935,7.8957,7.8293,7.8293,7.8259,7.8157,7.8259,7.8259,7.8157,7.836,7.8822,7.9486,7.8754,7.8428,7.844,7.8579,7.919,7.9901,7.8907,7.9901,8.1962,8.2472,8.2429,8.2501,0.0,0.0,0.0,0.0,0.0,0.0,0.0,0.0,0.0,0.0,0.0,0.0,0.0,0.0,0.0,0.0,0.0,0.0,0.0,0.0,0.0,0.0,0.0,0.0,0.0,0.0,0.0,0.0,0.0,0.0,0.0,4.7041,4.8935,0.0,0.0,0.0,0.0,0.0,0.0,0.0,0.0,0.0,0.0,0.0,0.0,0.0,0.0,0.0,0.0,0.0,0.0,0.0,4.3482,0.0,0.0,0.0,4.6567,4.9278,5.6726,6.3857,7.1118,7.9268,8.2009,8.2983,8.3781,8.4559,8.5033,8.4681,8.5134,8.5743,0.0,0.0,0.0,0.0,0.0,0.0,0.0,0.0,0.0,0.0,0.0,0.0,0.0,0.0,0.0,0.0,0.0,8.0695,8.0695,7.9972,7.9046,7.7896,7.7422,7.6826,7.6115,7.6487,7.6702,7.6702,7.6284,7.6082,7.6082,7.6082,7.6961,7.8483,7.8157,7.7988,7.7988,7.7988,7.8308,7.8695,7.8186,7.9002,8.05,8.0815,8.113,8.1673,0.0,0.0,0.0,0.0,0.0,0.0,0.0,0.0,0.0,0.0,0.0,0.0,0.0,0.0,0.0,0.0,0.0,0.0,0.0,0.0,0.0,0.0,0.0,0.0,0.0,0.0,0.0,0.0,0.0,0.0,4.6575,4.7861,5.0533,0.0,5.2182,0.0,0.0,0.0,0.0,0.0,0.0,0.0,0.0,0.0,0.0,0.0,0.0,0.0,0.0,0.0,0.0,0.0,0.0,0.0,0.0,0.0,0.0,4.9024,5.8319,6.2768,6.6838,7.5381,7.8714,8.0357,0.0,0.0,8.4072,0.0,8.4323,8.4492,8.5093,0.0,0.0,0.0,0.0,0.0,0.0,0.0,0.0,0.0,0.0,0.0,0.0,0.0,0.0,0.0,0.0,7.9837,7.9634,7.8957,7.793,7.6657,7.5845,7.5067,7.4311,7.4864,7.5134,7.5134,7.4593,7.4322,7.4322,7.4322,7.5236,7.6872,7.7041,7.7142,7.7109,7.6939,7.6872,7.6872,7.7075,7.7674,7.8477,7.9174,7.9828,8.0532,0.0,0.0,0.0,0.0,0.0,0.0,0.0,0.0,0.0,0.0,0.0,0.0,0.0,0.0,0.0,0.0,0.0,0.0,0.0,0.0,0.0,0.0,0.0,0.0,0.0,0.0,0.0,0.0,0.0,0.0,4.8849,4.9627,5.3458,5.958,5.6598,5.4065,5.1876,0.0,0.0,0.0,0.0,4.8301,0.0,0.0,0.0,0.0,0.0,0.0,0.0,0.0,0.0,0.0,0.0,0.0,0.0,0.0,0.0,0.0,5.1197,5.5846,6.0805,6.7006,7.2316,7.6758,0.0,0.0,8.2699,8.3422,8.3558,8.3558,8.3592,0.0,0.0,0.0,0.0,0.0,0.0,0.0,0.0,0.0,0.0,0.0,0.0,0.0,0.0,0.0,0.0,7.8843,7.8157,7.7401,7.6623,7.5777,7.5021,7.4289,7.3556,7.359,7.3624,7.3624,7.359,7.3556,7.3556,7.3556,7.3624,7.3759,7.448,7.4784,7.4717,7.403,7.3725,7.3793,7.448,7.4797,7.5178,7.7717,7.8176,7.7796,0.0,0.0,0.0,0.0,0.0,0.0,0.0,0.0,0.0,0.0,0.0,0.0,0.0,0.0,3.259,3.3274,3.3441,0.0,0.0,0.0,0.0,0.0,0.0,0.0,0.0,0.0,0.0,0.0,0.0,4.1231,4.6913,4.9094,5.2629,5.7064,5.4939,5.3248,5.187,5.0011,0.0,0.0,4.8228,4.86,0.0,0.0,0.0,0.0,0.0,0.0,0.0,0.0,0.0,0.0,0.0,0.0,0.0,0.0,0.0,4.6188,5.0737,5.2943,5.5502,6.2043,6.7218,7.1481,7.4492,7.8213,8.1054,8.1325,8.2137,8.2644,8.2184,8.2678,0.0,0.0,0.0,0.0,0.0,0.0,0.0,0.0,0.0,0.0,0.0,0.0,0.0,0.0,0.0,0.0,7.6601,7.6284,7.5337,7.3646,7.3341,7.3071,7.28,7.2326,7.2326,7.2812,7.2326,7.209,7.209,7.2563,7.2812,7.2812,7.3071,7.3443,7.3883,7.3624,7.3488,7.3522,7.3781,7.4187,7.4674,7.5139,7.5732,7.6497,0.0,0.0,0.0,0.0,0.0,0.0,0.0,0.0,0.0,0.0,0.0,0.0,0.0,0.0,0.0,3.3997,3.3763,3.3589,3.357,3.3692,0.0,0.0,0.0,0.0,0.0,0.0,0.0,0.0,0.0,0.0,0.0,0.0,5.1311,5.4748,5.2814,0.0,0.0,0.0,0.0,4.836,0.0,0.0,4.951,0.0,0.0,0.0,0.0,0.0,0.0,0.0,0.0,0.0,0.0,0.0,0.0,0.0,0.0,0.0,4.8968,0.0,0.0,5.7868,6.1434,6.4884,7.0398,7.4153,7.6961,7.872,8.0073,8.0851,8.0615,8.075,8.1021,0.0,0.0,0.0,0.0,0.0,0.0,0.0,0.0,0.0,0.0,0.0,0.0,0.0,0.0,0.0,7.5045,7.4728,7.3815,7.209,7.2011,7.2011,7.2011,7.1537,7.1537,7.2011,7.1537,7.13,7.1334,7.1808,7.2011,7.2011,7.2011,7.2462,7.3116,7.2879,7.2766,7.2812,7.3048,7.3443,7.3871,7.3883,7.4737,7.6029,0.0,0.0,0.0,0.0,0.0,0.0,0.0,0.0,0.0,0.0,0.0,0.0,0.0,0.0,0.0,3.3944,3.3513,3.3587,3.4279,3.4214,0.0,0.0,0.0,0.0,0.0,0.0,0.0,0.0,0.0,0.0,0.0,0.0,4.9781,0.0,5.085,5.2714,5.7618,0.0,5.5233,5.2983,0.0,4.9792,5.039,0.0,0.0,0.0,5.5136,5.3308,0.0,0.0,0.0,0.0,0.0,0.0,0.0,0.0,0.0,0.0,0.0,0.0,0.0,0.0,0.0,5.7112,6.7364,6.9259,7.0364,7.5574,7.7278,7.8056,7.8809,7.8382,7.8124,7.8809,0.0,0.0,0.0,0.0,0.0,0.0,0.0,0.0,0.0,0.0,0.0,0.0,0.0,7.4255,7.3522,7.2778,7.2056,7.1334,7.13,7.13,7.13,7.13,7.13,7.13,7.13,7.13,7.13,7.13,7.13,7.13,7.13,7.1706,7.2326,7.1605,7.13,7.1368,7.209,7.2394,7.2563,7.3972,7.5185,7.624,0.0,0.0,0.0,0.0,0.0,0.0,0.0,0.0,0.0,0.0,0.0,0.0,0.0,0.0,0.0,3.5648,3.5162,3.4818,3.4677,3.4818,3.5408,3.6604,3.7819,3.8812,0.0,0.0,0.0,0.0,0.0,0.0,0.0,0.0,0.0,0.0,5.0934,5.1763,5.1935,5.0437,0.0,0.0,5.1214,5.2934,0.0,0.0,0.0,0.0,0.0,5.5023,0.0,0.0,5.1192,4.8263,0.0,0.0,0.0,0.0,0.0,0.0,4.5421,0.0,0.0,0.0,0.0,0.0,0.0,6.0892,6.4783,6.9417,7.1853,7.3702,7.5528,7.5664,7.5439,7.51,7.6872,0.0,0.0,0.0,0.0,0.0,0.0,0.0,0.0,0.0,0.0,0.0,7.3793,7.3488,7.2732,7.2022,7.1503,7.13,7.13,7.13,7.13,7.13,7.13,7.13,7.13,7.13,7.13,7.13,7.13,7.13,7.13,7.1436,7.1605,7.1402,7.13,7.1334,7.1537,7.1921,7.2394,7.2247,7.3085,7.44,0.0,0.0,0.0,0.0,0.0,0.0,0.0,0.0,0.0,0.0,0.0,0.0,0.0,0.0,0.0,0.0,3.5696,3.5265,3.5427,3.5384,3.6074,3.7647,3.8654,3.9615,4.0603,0.0,0.0,0.0,0.0,0.0,0.0,0.0,0.0,0.0,0.0,0.0,0.0,0.0,0.0,0.0,5.235,0.0,0.0,5.8178,5.9957,0.0,0.0,0.0,5.9082,5.8299,5.4966,0.0,0.0,0.0,0.0,0.0,0.0,0.0,0.0,0.0,0.0,0.0,0.0,0.0,5.3611,5.6528,5.9573,0.0,6.7614,6.9553,7.1436,7.2586,7.3093,7.2665,7.4571,0.0,0.0,0.0,0.0,0.0,0.0,0.0,0.0,7.2766,7.2563,7.2563,7.2563,7.2394,7.1943,7.1537,7.13,7.13,7.13,7.13,7.13,7.13,7.13,7.13,7.13,7.13,7.13,7.13,7.13,7.13,7.13,7.13,7.13,7.13,7.13,7.13,7.13,7.1571,7.1921,7.1808,7.2496,7.3706,0.0,0.0,0.0,0.0,0.0,0.0,0.0,0.0,0.0,0.0,0.0,0.0,0.0,0.0,0.0,0.0,3.6069,3.5653,3.6511,3.6132,3.6829,3.8979,3.9595,4.0515,4.1854,4.1273,0.0,0.0,0.0,0.0,0.0,0.0,0.0,0.0,0.0,0.0,0.0,0.0,0.0,4.8915,5.3526,5.6322,0.0,0.0,6.5387,0.0,6.6771,6.554,6.2811,6.1796,5.8582,0.0,0.0,0.0,0.0,0.0,4.8375,0.0,0.0,0.0,0.0,0.0,0.0,0.0,5.3704,5.4194,5.4761,0.0,6.3429,6.4996,6.6711,6.8842,7.0252,7.0083,7.165,7.3015,0.0,0.0,0.0,0.0,0.0,0.0,7.2293,7.1672,7.13,7.13,7.13,7.13,7.13,7.13,7.13,7.13,7.13,7.13,7.13,7.13,7.13,7.13,7.13,7.13,7.13,7.13,7.13,7.13,7.13,7.13,7.13,7.13,7.13,7.13,7.13,7.13,7.1368,7.2056,7.2732,7.3616,0.0,0.0,0.0,0.0,0.0,0.0,0.0,0.0,0.0,0.0,0.0,0.0,0.0,0.0,0.0,0.0,0.0,3.8456,3.8161,3.7695,3.8119,3.9583,4.0214,4.1136,4.2491,4.2367,4.2154,0.0,0.0,0.0,0.0,0.0,0.0,0.0,0.0,0.0,0.0,0.0,0.0,4.8988,5.296,0.0,6.2659,6.3739,6.6285,6.923,6.8285,6.7563,6.6563,0.0,6.1281,5.9102,0.0,0.0,0.0,0.0,0.0,0.0,0.0,0.0,0.0,0.0,0.0,0.0,4.7131,4.8485,5.0736,0.0,5.5683,5.7755,6.1028,6.299,6.3744,6.2482,6.6068,7.0071,7.3082,0.0,0.0,0.0,0.0,0.0,7.1571,7.1402,7.13,7.13,7.13,7.13,7.13,7.13,7.13,7.13,7.13,7.13,7.13,7.13,7.13,7.13,7.13,7.13,7.13,7.13,7.13,7.13,7.13,7.13,7.13,7.13,7.13,7.13,7.13,7.13,7.1334,7.147,7.1988,7.2733,0.0,0.0,0.0,0.0,0.0,0.0,0.0,0.0,0.0,0.0,0.0,0.0,0.0,0.0,0.0,0.0,0.0,0.0,0.0,3.8564,3.903,4.0274,4.0927,4.1706,4.2679,4.2688,4.2397,0.0,0.0,0.0,0.0,0.0,0.0,0.0,0.0,0.0,0.0,0.0,4.6798,4.8616,5.4707,0.0,6.4716,6.7217,6.9681,7.163,7.0749,7.013,6.9021,6.4193,6.2447,0.0,0.0,5.5401,5.4499,0.0,5.1348,5.0763,0.0,0.0,0.0,4.737,0.0,0.0,0.0,4.7953,4.8646,5.1209,5.2063,5.3154,5.5716,5.7476,5.8635,5.8939,6.2458,6.6079,6.8684,7.0973,0.0,0.0,0.0,0.0,7.1334,7.13,7.13,7.13,7.13,7.13,7.13,7.13,7.13,7.13,7.13,7.13,7.13,7.13,7.13,7.13,7.13,7.13,7.13,7.13,7.13,7.13,7.13,7.13,7.13,7.13,7.13,7.13,7.13,7.13,7.13,7.13,7.1988,7.3015,0.0,0.0,0.0,0.0,0.0,0.0,0.0,0.0,0.0,0.0,0.0,0.0,0.0,0.0,0.0,0.0,0.0,0.0,0.0,0.0,4.0147,4.1256,4.1774,4.2368,4.308,4.285,4.2397,4.1805,0.0,0.0,0.0,0.0,0.0,0.0,0.0,0.0,0.0,0.0,0.0,4.9885,0.0,6.1176,6.3775,6.9006,7.1276,7.1735,7.2285,7.198,7.051,6.5485,0.0,6.3386,5.9149,5.7885,0.0,0.0,0.0,0.0,0.0,0.0,0.0,0.0,0.0,4.8321,0.0,0.0,0.0,4.9549,4.956,0.0,0.0,0.0,0.0,0.0,0.0,0.0,0.0,6.6227,0.0,0.0,0.0,0.0,0.0,7.0184,7.0252,7.0827,7.0455,7.0489,7.1064,7.1233,7.13,7.13,7.13,7.13,7.13,7.13,7.13,7.13,7.13,7.13,7.13,7.13,7.13,7.13,7.13,7.13,7.13,7.13,7.13,7.13,7.13,7.13,7.13,7.13,7.2225,7.3488,0.0,0.0,0.0,0.0,0.0,0.0,0.0,0.0,0.0,0.0,0.0,0.0,0.0,0.0,0.0,0.0,0.0,0.0,4.6747,0.0,0.0,4.2739,4.2764,4.3314,4.4455,4.3325,4.2397,4.1805,0.0,0.0,0.0,0.0,0.0,0.0,4.2628,0.0,0.0,0.0,4.9945,0.0,5.8187,5.8114,0.0,6.254,6.5757,6.7817,7.0519,7.1412,7.1036,0.0,6.779,6.6017,0.0,6.155,0.0,0.0,0.0,0.0,0.0,0.0,0.0,0.0,5.3224,0.0,0.0,0.0,4.7973,4.5786,0.0,0.0,0.0,0.0,0.0,0.0,0.0,0.0,5.4059,5.8118,6.2347,0.0,0.0,0.0,0.0,6.6125,6.6474,6.9147,6.7489,6.75,7.0172,7.0939,7.13,7.13,7.13,7.13,7.13,7.13,7.13,7.13,7.13,7.13,7.13,7.13,7.13,7.13,7.13,7.13,7.13,7.13,7.13,7.13,7.13,7.13,7.13,7.13,7.2225,7.3488,0.0,0.0,0.0,0.0,0.0,0.0,0.0,0.0,0.0,0.0,0.0,0.0,0.0,0.0,0.0,0.0,0.0,4.7554,0.0,0.0,0.0,4.3648,4.3175,4.3448,4.4678,4.3025,4.2047,4.1805,4.0868,0.0,0.0,0.0,0.0,0.0,4.3277,0.0,4.7445,0.0,5.1214,0.0,0.0,0.0,0.0,6.4679,6.8606,6.9576,7.0848,7.13,7.1026,0.0,6.804,0.0,0.0,0.0,0.0,0.0,0.0,0.0,0.0,0.0,0.0,0.0,0.0,0.0,4.9363,0.0,4.6583,0.0,0.0,0.0,0.0,0.0,0.0,0.0,4.9695,0.0,0.0,0.0,5.7171,0.0,0.0,0.0,0.0,0.0,0.0,0.0,6.5774,6.6248,6.75,6.8707,6.9553,7.0015,7.0432,7.0669,7.0669,7.1097,7.13,7.13,7.13,7.13,7.13,7.13,7.13,7.13,7.13,7.13,7.13,7.13,7.13,7.13,7.13,7.13,7.13,7.13,7.2225,7.3488,0.0,0.0,0.0,0.0,0.0,0.0,0.0,0.0,0.0,0.0,0.0,0.0,5.6173,5.5995,0.0,0.0,0.0,5.2376,0.0,0.0,4.6671,4.5443,4.4188,0.0,0.0,4.3456,4.2361,4.2185,4.1198,0.0,0.0,0.0,0.0,0.0,0.0,4.7287,5.0406,0.0,0.0,5.5224,5.8969,5.9928,5.9902,6.7281,7.0586,7.13,7.13,7.13,7.1028,6.9171,6.8332,0.0,6.845,0.0,0.0,0.0,0.0,0.0,5.5967,0.0,0.0,0.0,0.0,0.0,0.0,0.0,0.0,0.0,0.0,0.0,0.0,0.0,0.0,0.0,0.0,0.0,0.0,0.0,0.0,0.0,0.0,0.0,0.0,0.0,0.0,0.0,0.0,6.3812,6.503,6.6518,6.776,6.8741,6.9485,6.9902,6.9902,7.0635,7.0996,7.0996,7.1199,7.13,7.13,7.13,7.13,7.13,7.13,7.13,7.13,7.13,7.13,7.13,7.13,7.13,7.13,7.13,7.2225,7.3488,0.0,3.4314,0.0,0.0,0.0,0.0,0.0,0.0,0.0,0.0,0.0,0.0,0.0,0.0,0.0,0.0,0.0,6.0588,5.9742,0.0,5.0293,0.0,0.0,4.5829,0.0,0.0,4.3728,4.316,4.2526,0.0,0.0,0.0,0.0,0.0,0.0,5.0704,5.4211,5.5818,6.0694,6.7153,6.5205,6.6979,7.0475,0.0,6.875,7.13,7.13,0.0,0.0,6.9632,6.9802,0.0,0.0,0.0,0.0,0.0,0.0,0.0,0.0,0.0,0.0,5.5233,0.0,0.0,0.0,0.0,4.9483,0.0,0.0,0.0,0.0,0.0,0.0,0.0,0.0,0.0,0.0,0.0,0.0,0.0,0.0,0.0,0.0,0.0,0.0,0.0,0.0,0.0,6.3352,6.4952,6.6451,6.7895,6.8707,6.9147,6.9147,6.9868,7.024,7.024,7.0973,7.13,7.13,7.13,7.13,7.13,7.13,7.13,7.13,7.13,7.13,7.13,7.13,7.13,7.13,7.13,7.2225,7.3488,0.0,0.0,0.0,0.0,0.0,0.0,0.0,4.7273,0.0,0.0,0.0,0.0,0.0,0.0,6.945,0.0,0.0,6.6,6.326,5.8853,0.0,0.0,0.0,4.872,0.0,0.0,0.0,0.0,0.0,0.0,0.0,0.0,0.0,0.0,0.0,5.1222,0.0,0.0,0.0,0.0,0.0,6.7015,7.0499,0.0,0.0,7.13,7.13,7.13,0.0,7.229,7.1735,7.0895,7.2016,7.0587,6.8244,6.6893,6.6886,0.0,0.0,0.0,6.8121,6.0009,0.0,0.0,0.0,0.0,0.0,0.0,0.0,0.0,0.0,0.0,0.0,0.0,0.0,0.0,0.0,0.0,0.0,0.0,0.0,0.0,0.0,0.0,0.0,0.0,5.4456,0.0,0.0,6.1917,6.3981,6.4975,6.7647,6.8842,6.8301,6.9563,6.9969,6.9485,7.0229,7.0567,7.0601,7.1064,7.13,7.13,7.13,7.13,7.13,7.13,7.13,7.13,7.13,7.13,7.13,7.13,7.2225,7.3725,3.7925,0.0,0.0,0.0,0.0,0.0,0.0,0.0,0.0,0.0,6.395,0.0,7.2953,0.0,7.3995,0.0,7.3849,7.1481,6.6136,6.4038,0.0,5.8356,5.5203,0.0,0.0,0.0,0.0,0.0,0.0,4.3612,4.3112,4.3112,0.0,0.0,0.0,5.2085,5.6277,6.1127,6.3835,0.0,0.0,6.8673,0.0,0.0,7.1131,7.0939,0.0,7.13,7.1557,7.3226,7.297,7.2315,7.4192,7.2694,7.0073,6.9229,6.8825,6.8274,6.6623,6.8825,0.0,6.3716,6.2472,0.0,5.3142,0.0,0.0,0.0,0.0,0.0,0.0,0.0,0.0,0.0,0.0,0.0,0.0,4.1339,0.0,0.0,0.0,0.0,0.0,0.0,5.0634,5.0423,5.1344,0.0,0.0,0.0,6.1511,6.3047,6.6203,6.776,6.7512,6.8741,6.9147,6.8707,6.9699,7.0206,7.024,7.0962,7.13,7.13,7.13,7.13,7.13,7.13,7.13,7.13,7.13,7.13,7.13,7.13,7.2225,7.3827,0.0,0.0,0.0,0.0,4.1483,0.0,0.0,0.0,5.7905,0.0,6.5688,6.9805,7.2773,7.5598,7.7272,7.7237,7.9126,0.0,6.8977,6.9699,0.0,0.0,6.0084,5.8982,5.619,0.0,0.0,0.0,0.0,0.0,4.4709,4.4642,4.4608,0.0,4.9221,0.0,5.7103,6.2381,6.7174,7.1368,7.2045,7.1909,7.1267,7.13,7.0838,7.0308,7.103,7.13,7.1457,7.2519,7.3512,7.4328,7.462,7.4812,7.45,7.2114,7.1975,7.1945,6.8905,6.9199,6.9633,6.6396,0.0,0.0,0.0,0.0,5.7936,0.0,0.0,0.0,0.0,0.0,0.0,0.0,0.0,0.0,0.0,0.0,0.0,0.0,0.0,0.0,0.0,4.8056,4.7988,4.8748,4.8781,5.0101,0.0,0.0,5.9142,6.2154,6.4522,6.6102,6.6869,6.7557,6.7929,6.7963,6.9462,7.0172,7.024,7.0962,7.13,7.13,7.13,7.13,7.13,7.13,7.13,7.13,7.13,7.13,7.13,7.1368,7.2293,7.3827,4.0585,4.1295,4.2221,0.0,4.3355,4.4649,0.0,0.0,0.0,0.0,7.1413,7.6039,8.2128,8.2713,8.2415,8.1858,8.1832,0.0,0.0,0.0,0.0,6.9902,6.6231,6.3638,6.2347,5.7029,0.0,5.1792,0.0,0.0,4.6225,4.5115,4.4608,4.4777,0.0,5.2993,5.635,6.2144,6.7174,7.1334,7.1503,7.1142,0.0,0.0,7.0838,7.0308,7.103,7.13,7.1579,7.3312,7.4072,7.4484,7.5402,7.5735,7.5425,7.3634,7.3663,7.4103,7.3296,7.3773,7.378,7.0573,6.8435,6.5906,0.0,0.0,0.0,0.0,0.0,0.0,0.0,0.0,0.0,0.0,0.0,0.0,0.0,0.0,0.0,4.2191,0.0,0.0,4.3951,4.4343,4.4884,4.5684,4.5717,0.0,0.0,0.0,0.0,5.98,6.4197,6.6869,6.7624,6.7793,6.8199,6.8808,6.918,6.9665,7.024,7.0962,7.13,7.13,7.13,7.13,7.13,7.13,7.13,7.13,7.13,7.13,7.1436,7.2529,7.3184,7.3725,4.1617,0.0,0.0,4.6796,0.0,0.0,5.3332,0.0,0.0,6.8894,7.3686,0.0,8.2274,8.4163,8.4979,8.4552,8.3781,0.0,0.0,0.0,0.0,7.3657,7.1627,6.9316,6.6643,6.1264,0.0,5.3991,0.0,0.0,4.6278,4.5142,4.4608,4.4777,4.8883,5.2393,5.5674,6.2956,6.7726,7.0387,7.103,0.0,0.0,7.1131,7.103,7.0737,7.1165,7.13,7.1546,7.3125,7.3953,7.4492,7.562,7.6021,7.5836,7.4588,7.4294,7.4368,7.4368,7.4698,7.4616,7.2726,7.1163,6.8931,6.4567,6.3985,6.4001,0.0,0.0,0.0,0.0,0.0,0.0,0.0,0.0,0.0,0.0,0.0,0.0,0.0,4.2293,0.0,4.1853,4.2787,4.3457,4.3586,4.4235,0.0,0.0,0.0,0.0,5.7974,6.3115,6.6328,6.7421,6.8098,6.847,6.8571,6.9248,6.98,7.024,7.0962,7.13,7.13,7.13,7.13,7.13,7.13,7.13,7.1334,7.1639,7.1774,7.1943,7.3443,7.3793,7.3759,4.2653,0.0,0.0,0.0,0.0,0.0,0.0,6.1658,0.0,6.9504,0.0,7.8716,7.9115,8.3233,8.5939,8.5939,0.0,8.3172,7.9139,8.1866,8.0919,7.4774,7.6217,7.4965,7.0229,6.6058,0.0,0.0,0.0,0.0,4.5831,4.4973,4.4608,4.4743,4.8349,5.1936,0.0,6.4005,6.8098,6.9248,7.0725,7.13,7.13,7.13,7.13,7.13,7.1199,7.1233,7.1446,7.2342,7.3332,7.4292,7.5205,7.5705,7.5799,7.5131,7.4331,7.3751,7.3971,7.3788,7.3512,7.349,7.2717,7.1012,6.748,6.6548,6.6417,6.6417,6.4759,6.3903,0.0,0.0,0.0,0.0,0.0,0.0,0.0,0.0,0.0,0.0,0.0,0.0,0.0,4.2516,4.2956,4.2225,0.0,0.0,0.0,0.0,0.0,5.6731,6.1704,0.0,6.6937,0.0,6.8741,6.8368,6.9597,7.024,7.0375,7.1007,7.13,7.13,7.13,7.13,7.13,7.13,7.13,7.1368,7.2022,7.2326,7.2563,7.3939,7.4153,7.4063,0.0,0.0,0.0,0.0,0.0,6.2892,6.8186,7.2045,7.4828,7.618,8.1508,8.5239,8.533,8.6163,8.669,8.669,8.6589,0.0,0.0,0.0,0.0,8.0052,7.916,7.7727,7.5574,6.9406,6.4231,0.0,0.0,0.0,0.0,0.0,4.4608,4.4743,4.7808,5.2909,5.9404,6.3463,0.0,6.9248,7.0725,7.13,7.13,7.13,7.13,7.1233,7.0601,7.077,7.1344,7.1767,7.2528,7.3396,7.3793,7.4456,7.5094,7.4948,7.4331,7.4008,7.5322,7.4147,7.2714,7.3343,7.2607,7.14,7.003,7.0051,7.0319,7.0319,6.9045,6.7151,6.4569,0.0,0.0,0.0,0.0,0.0,0.0,0.0,0.0,0.0,0.0,4.4316,0.0,0.0,0.0,0.0,0.0,0.0,0.0,0.0,0.0,0.0,6.0689,0.0,0.0,0.0,6.8967,7.0692,7.0364,7.0511,7.1097,7.1233,7.13,7.13,7.13,7.13,7.13,7.13,7.13,7.1289,7.1436,7.1842,7.2496,7.3387,7.439,7.5371,0.0,0.0,0.0,0.0,0.0,0.0,0.0,7.9947,0.0,7.8931,8.1364,8.3409,8.3409,8.5858,8.7482,8.7482,8.6771,8.6027,8.5283,8.483,8.395,8.2488,8.1021,0.0,7.7515,7.1977,6.6565,6.1298,0.0,0.0,0.0,0.0,0.0,4.5192,4.8582,5.3379,0.0,0.0,0.0,6.8121,7.0387,7.13,7.1267,7.0872,7.0737,7.0635,6.9891,6.9857,7.0171,7.0303,7.0988,7.1827,7.1958,7.2724,7.3562,7.3562,7.3607,7.3788,7.4147,7.3273,7.2196,7.1672,7.0687,6.9747,6.9262,6.9661,7.0263,7.0635,7.0455,6.8865,6.4323,5.8008,0.0,0.0,0.0,0.0,0.0,0.0,0.0,0.0,0.0,0.0,0.0,0.0,0.0,0.0,0.0,0.0,0.0,0.0,0.0,0.0,0.0,0.0,0.0,0.0,0.0,7.0737,7.077,7.0973,7.13,7.13,7.13,7.13,7.13,7.13,7.13,7.13,7.13,7.1334,7.1706,7.2326,7.3048,7.3781,7.5033,7.6318,0.0,5.8336,0.0,0.0,7.1309,0.0,7.955,8.4859,8.6723,8.1669,8.1629,8.2069,8.2069,8.577,8.8226,8.8226,8.7157,8.6379,8.6041,8.5439,8.4695,8.3761,8.2475,8.0796,7.8733,7.4458,6.8797,0.0,0.0,0.0,0.0,0.0,0.0,0.0,0.0,0.0,0.0,0.0,6.4874,6.7275,7.015,7.13,7.1233,7.0466,7.0308,7.0308,6.9417,6.9113,6.9079,6.891,6.9517,7.0342,7.0342,7.113,7.205,7.205,7.2725,7.3311,7.2658,7.2091,7.1409,7.0008,6.8908,6.8076,6.7927,6.8504,6.9316,7.0037,7.0534,6.9271,6.4197,5.9191,0.0,0.0,0.0,0.0,0.0,0.0,0.0,0.0,0.0,0.0,4.2976,0.0,0.0,0.0,0.0,0.0,0.0,0.0,0.0,0.0,0.0,6.3692,6.6293,0.0,7.0703,0.0,7.103,7.13,7.13,7.13,7.13,7.13,7.13,7.13,7.13,7.13,7.13,7.1368,7.1943,7.2699,7.3556,7.4153,7.5427,7.6893,0.0,0.0,0.0,0.0,0.0,0.0,8.0878,8.5095,8.7836,8.7259,8.78,8.8274,8.8274,8.868,8.8984,8.8984,8.8883,8.824,8.6859,8.6724,8.6048,8.4546,8.3727,8.259,8.1033,7.7244,7.1345,0.0,0.0,0.0,0.0,0.0,0.0,0.0,0.0,0.0,0.0,6.1622,6.5178,6.7996,7.0353,7.13,7.1233,7.0466,7.0601,7.0996,6.9609,6.9113,6.8977,6.8267,6.8665,6.952,6.952,7.029,7.122,7.122,7.188,7.2556,7.2371,7.116,6.9866,6.958,6.8702,6.7921,6.7882,6.8504,6.9316,7.0037,6.9733,6.7895,6.3338,6.3091,6.1796,0.0,0.0,0.0,0.0,0.0,0.0,5.1472,0.0,0.0,0.0,4.5909,0.0,0.0,0.0,0.0,0.0,0.0,0.0,5.3376,0.0,6.1045,6.4681,6.7756,0.0,7.1199,7.1267,7.13,7.13,7.13,7.13,7.13,7.13,7.13,7.13,7.13,7.13,7.13,7.1368,7.2259,7.3522,7.359,7.4999,7.6893,0.0,0.0,0.0,0.0,0.0,0.0,0.0,8.7301,8.8158,8.8612,8.8917,8.9086,8.9086,8.9086,8.9086,8.9086,8.8294,8.7516,8.6927,8.6048,8.5222,8.4614,8.3477,8.234,8.1304,7.809,7.3037,0.0,0.0,0.0,0.0,0.0,0.0,0.0,0.0,5.5831,5.9628,6.3279,6.6305,6.8741,7.0094,7.0635,7.05,6.9282,6.9011,6.9102,6.8087,6.7715,6.7749,6.7861,6.7876,6.7841,6.7841,6.8946,7.0273,7.0273,7.1672,7.3098,7.2424,7.1679,7.0816,6.971,6.8665,6.803,6.8504,6.8876,6.9316,7.0037,6.962,6.8538,6.6745,6.4691,6.2932,0.0,0.0,0.0,0.0,0.0,0.0,0.0,0.0,4.7699,0.0,0.0,0.0,0.0,0.0,0.0,0.0,0.0,0.0,5.3412,0.0,6.2091,6.5889,6.8908,7.0725,7.13,7.13,7.13,7.13,7.13,7.13,7.13,7.13,7.13,7.13,7.13,7.13,7.13,7.13,7.1921,7.2868,7.3353,7.4639,7.6318,7.422,0.0,7.6066,0.0,8.2292,8.3195,8.8768,8.8872,8.8511,8.9018,8.9086,8.9086,8.9086,8.9086,8.9086,8.9086,8.7955,8.713,8.6927,8.5675,8.4864,8.4614,8.3612,0.0,8.1642,7.8957,7.4728,6.891,6.3869,0.0,0.0,0.0,0.0,0.0,5.615,5.9012,6.2302,6.5152,6.7421,6.918,6.9902,7.0071,6.9733,6.8402,6.8064,6.8166,6.7411,6.7106,6.7208,6.7726,6.7421,6.6836,6.7072,6.8295,6.9708,6.9708,7.122,7.2708,7.1745,7.1197,7.052,6.9011,6.81,6.7726,6.829,6.8425,6.8639,6.936,6.9282,6.9045,6.8808,6.5967,6.4005,6.4884,0.0,0.0,0.0,0.0,0.0,0.0,4.956,4.7022,4.5413,4.4647,0.0,0.0,0.0,0.0,0.0,0.0,0.0,0.0,0.0,0.0,0.0,6.9599,7.1097,7.13,7.13,7.13,7.13,7.13,7.13,7.13,7.13,7.13,7.13,7.13,7.13,7.13,7.13,7.1875,7.2812,7.3319,7.4436,7.5912,7.8099,7.8496,7.9819,8.5784,8.6819,8.7326,8.8877,8.91,8.9086,8.9086,8.9086,8.9086,8.9086,8.9086,8.9086,8.9086,8.8409,8.7685,8.6961,8.6196,8.5418,0.0,0.0,8.387,8.2428,8.0196,7.6509,7.1267,0.0,0.0,5.6715,0.0,5.5527,5.7823,6.0055,6.2323,6.4691,6.6914,6.8335,6.918,6.9902,6.9766,6.9011,6.8199,6.8402,6.8977,6.8166,6.7895,6.7895,6.7895,6.7421,6.6937,6.7658,6.871,6.9708,6.9708,7.0383,7.0942,6.998,6.9019,6.8024,6.7071,6.6812,6.6836,6.6836,6.6836,6.7039,6.7793,6.8538,6.8876,6.8064,6.7275,6.6058,6.3883,0.0,0.0,0.0,0.0,0.0,0.0,5.2274,5.0777,4.7131,4.8013,0.0,0.0,0.0,0.0,0.0,0.0,0.0,5.6554,5.9566,0.0,6.6774,6.9057,7.0567,7.13,7.13,7.13,7.13,7.13,7.13,7.13,7.13,7.13,7.13,7.13,7.13,7.13,7.13,7.2191,7.3488,7.3488,7.4436,7.5912,8.1787,8.3191,8.4674,8.6555,8.7719,8.8545,8.9018,8.9086,8.9086,8.9086,8.9086,8.9086,8.9086,8.8646,8.8342,0.0,8.7225,8.6413,0.0,8.5418,8.4864,8.4614,8.3646,8.2868,8.2395,7.9735,7.6758,7.3567,0.0,0.0,0.0,5.9331,6.0287,6.2432,6.4191,6.598,6.7793,6.9474,7.0094,6.9834,6.9553,6.8977,6.8199,6.7444,6.7309,6.7512,6.7242,6.714,6.714,6.714,6.7005,6.6836,6.7072,6.7834,6.8676,6.8676,6.9377,7.0052,6.9629,6.9254,6.8779,6.7797,6.7557,6.7557,6.7557,6.7557,6.7749,6.8571,6.8504,6.8199,6.7963,6.7309,6.6396,6.5189,6.3937,0.0,0.0,0.0,0.0,0.0,5.0228,4.8638,0.0,4.81,0.0,0.0,0.0,0.0,0.0,0.0,0.0,0.0,6.176,0.0,6.8399,7.011,7.1064,7.13,7.13,7.13,7.13,7.13,7.13,7.13,7.13,7.13,7.13,7.13,7.13,7.13,7.13,7.1875,7.2812,7.3319,7.4436,7.5912,8.4302,8.552,8.667,8.7211,8.8057,8.8781,8.9052,8.9086,8.9086,8.9086,8.9086,8.9086,8.9086,8.8443,0.0,8.7989,8.6907,8.6108,8.5804,8.5033,8.4614,8.4614,8.3443,8.2543,8.2002,0.0,0.0,7.4615,7.0094,6.6462,6.3696,6.3464,6.4377,6.6291,6.7507,6.8774,6.9981,7.059,7.0466,6.9733,6.8944,6.8199,6.7444,6.6971,6.6802,6.6802,6.6802,6.6802,6.6802,6.6802,6.6802,6.6802,6.6802,6.7213,6.7737,6.8107,6.8638,6.9098,6.8968,6.868,6.8275,6.7624,6.7489,6.7489,6.7489,6.7929,6.8335,6.8256,6.8064,6.7827,6.7557,6.6869,6.6136,6.5402,6.3429,6.1332,5.9539,0.0,0.0,0.0,0.0,0.0,0.0,4.9661,0.0,0.0,0.0,0.0,0.0,0.0,0.0,5.9238,6.4515,0.0,6.9974,7.0854,7.13,7.13,7.13,7.13,7.13,7.13,7.13,7.13,7.13,7.13,7.13,7.13,7.13,7.13,7.13,7.174,7.2496,7.3218,7.4436,7.5912,8.5669,8.5872,0.0,0.0,8.8023,0.0,8.8984,8.9086,8.9086,8.9086,8.9086,8.9086,8.9086,8.8511,8.8023,8.7922,0.0,0.0,0.0,8.5033,8.458,8.4512,8.3815,8.2712,8.127,7.9735,7.7456,7.4446,7.0195,6.8132,6.8132,6.7444,6.7884,6.9282,6.9969,7.0669,7.1267,7.0578,6.9868,6.9113,6.8368,6.758,6.6869,6.6869,6.6836,6.6802,6.6802,6.6802,6.6802,6.6802,6.6802,6.6802,6.6802,6.6802,6.6967,6.7857,6.8117,6.8117,6.8117,6.7485,6.6802,6.6802,6.6802,6.6802,6.6802,6.7918,6.8527,6.7106,6.7343,6.7624,6.6937,6.617,6.5368,6.458,6.255,6.0283,5.7992,0.0,0.0,0.0,0.0,0.0,0.0,5.2334,5.3281,0.0,0.0,0.0,0.0,0.0,6.0797,6.3396,6.7491,7.0192,7.1278,7.13,7.13,7.13,7.13,7.13,7.13,7.13,7.13,7.13,7.13,7.13,7.13,7.13,7.13,7.13,7.13,7.174,7.2496,7.3218,7.4402,7.5845,0.0,0.0,8.7583,8.7922,8.8477,8.8883,8.9052,8.9086,8.9086,8.9086,8.9086,8.9086,8.9086,8.8951,8.8409,8.7265,8.6501,8.6007,8.5804,8.5033,8.4356,8.3795,8.3037,8.1968,8.0479,7.845,7.5946,7.2935,7.13,7.0489,7.0489,7.0319,7.0421,7.0793,7.0962,7.1131,7.13,7.1097,7.0601,6.9936,6.9733,6.8842,6.7658,6.7658,6.7275,6.6802,6.6802,6.6802,6.6802,6.6802,6.6802,6.6802,6.6802,6.6802,6.6854,6.7081,6.713,6.713,6.713,6.6967,6.6802,6.6802,6.6802,6.6802,6.6802,6.7072,6.7242,6.6869,6.6937,6.7005,6.6836,6.5719,6.441,6.3135,6.0564,5.7924,5.5691,5.4304,0.0,0.0,5.2909,5.3526,5.3526,5.4033,5.4499,0.0,0.0,0.0,0.0,6.1977,6.3719,6.4204,6.8681,7.1181,7.1312,7.13,7.13,7.13,7.13,7.13,7.13,7.13,7.13,7.13,7.13,7.13,7.13,7.13,7.13,7.13,7.13,7.174,7.2496,7.3218,7.4086,7.5089,8.623,8.7211,8.8091,8.8443,8.8815,8.9086,8.9086,8.9086,8.9086,8.9086,8.9086,8.8984,8.8646,8.8612,8.8125,8.6995,8.6535,8.5993,8.5317,8.483,8.4289,8.3524,8.278,8.1549,7.9735,7.7874,7.5439,7.2394,7.1672,7.13,7.13,7.13,7.13,7.13,7.13,7.13,7.13,7.0939,7.0578,7.0172,6.9834,6.8988,6.7895,6.7895,6.7444,6.6802,6.6802,6.6802,6.6802,6.6802,6.7005,6.7242,6.6903,6.7039,6.7242,6.6903,6.6802,6.6802,6.6802,6.7039,6.7377,6.7749,6.8087,6.8267,6.7918,6.8121,6.8267,6.7918,6.7546,6.7309,6.7309,6.555,6.3622,6.2144,5.8804,5.5861,5.4296,5.3145,0.0,5.3746,5.5175,5.6368,5.7045,5.8051,5.8244,5.7288,0.0,0.0,6.2003,6.5479,6.7058,6.6256,7.009,7.1866,7.1312,7.13,7.13,7.13,7.13,7.13,7.13,7.13,7.13,7.13,7.13,7.13,7.13,7.13,7.13,7.13,7.13,7.1537,7.2011,7.3116,7.395,7.4818,8.6758,8.7482,8.8192,8.8815,8.8917,8.8984,8.9086,8.9086,8.9086,8.9086,8.8984,8.8714,8.8057,8.7908,8.7522,8.6792,8.6724,8.6183,8.4864,8.4661,8.4221,8.3355,8.2644,8.1211,7.8978,7.7266,7.5033,7.2225,7.1605,7.13,7.13,7.13,7.13,7.13,7.13,7.13,7.1267,7.0635,7.0375,7.0308,6.9688,6.8977,6.8233,6.8132,6.7624,6.6937,6.6836,6.6802,6.6836,6.6937,6.7309,6.7658,6.7275,6.7478,6.7793,6.714,6.6971,6.6937,6.6836,6.7354,6.8098,6.891,6.9553,6.9868,6.9248,6.9586,6.9868,6.9214,6.8571,6.803,6.7929,6.5584,6.3081,6.1255,5.7476,5.4406,5.3306,0.0,5.2926,5.5699,5.7645,5.9302,6.0791,6.2608,6.2733,6.0501,6.4324,6.6179,0.0,6.8314,6.9842,6.8835,7.1265,7.214,7.1312,7.13,7.13,7.13,7.13,7.13,7.13,7.13,7.13,7.13,7.13,7.1401,7.1534,7.1534,7.16,7.1743,7.1601,7.1602,7.1852,7.305,7.395,7.4784,8.6893,8.7482,8.8023,8.8158,8.8158,8.8375,8.8984,8.9086,8.9086,8.9086,8.8545,8.8125,8.8023,8.7453,8.6763,8.6027,8.5966,8.5885,8.5635,8.4965,8.3971,8.2631,8.1866,8.0424,7.8225,7.5451,7.3184,7.147,7.1368,7.13,7.13,7.13,7.13,7.13,7.13,7.13,7.1289,7.1165,7.1131,7.1131,7.0996,7.05,6.9766,6.9147,6.8436,6.7658,6.7005,6.6802,6.6903,6.7523,6.7377,6.7174,6.8358,6.8368,6.7895,6.776,6.7726,6.759,6.6971,6.7354,6.8098,6.891,6.918,6.9248,6.9113,6.918,6.9248,6.9113,6.9011,6.8707,6.803,6.6,6.3318,5.9902,5.7187,5.4583,5.1945,0.0,5.564,5.7349,6.0554,6.3217,6.4691,6.458,6.5019,6.6406,6.5579,6.63,6.9318,6.938,6.9851,7.1041,7.1375,7.1457,7.13,7.13,7.13,7.13,7.13,7.13,7.13,7.13,7.13,7.13,7.13,7.1764,7.2572,7.2572,7.3084,7.3758,7.29,7.2951,7.3479,7.3493,7.395,7.4717,8.6825,8.7164,8.755,8.7922,8.7989,8.8091,8.8477,8.8849,8.9086,8.9086,8.8477,8.7854,8.7448,8.6757,8.6,8.5202,8.5155,8.5141,8.5134,8.4796,8.3937,8.2462,8.2069,8.0276,7.6838,7.4605,7.2766,7.13,7.13,7.13,7.13,7.13,7.13,7.13,7.13,7.13,7.13,7.13,7.13,7.13,7.13,7.0872,7.0105,6.9383,6.8605,6.7793,6.7072,6.6802,6.6869,6.7174,6.7614,6.8087,6.8368,6.8774,6.9045,6.8673,6.8233,6.7929,6.8019,6.8571,6.9316,7.0083,7.0286,7.0286,7.0286,7.0286,7.0286,7.0286,6.9958,6.9462,6.8707,6.6373,6.3768,6.1231,5.7611,0.0,0.0,5.5327,5.6993,6.052,6.3159,6.5425,6.7364,6.7218,6.7286,6.7861,6.7354,6.8061,7.0436,7.0373,7.1061,7.2783,7.1842,7.13,7.13,7.13,7.13,7.13,7.13,7.13,7.13,7.13,7.13,7.1334,7.1873,7.2385,7.2838,7.3382,7.3869,7.4187,7.3181,7.3584,7.4677,7.3797,7.4321,7.5458,8.6535,8.6623,8.6805,8.738,8.7617,8.7786,8.7955,8.8646,8.9086,8.9086,8.8294,8.7516,8.6961,8.6088,8.5263,8.4647,8.4614,8.4614,8.4614,8.4444,8.3781,8.2462,8.1718,7.96,7.5777,7.4266,7.2879,7.1571,7.1402,7.13,7.13,7.13,7.13,7.13,7.13,7.13,7.13,7.13,7.13,7.13,7.13,7.0872,7.0105,6.9383,6.8605,6.7793,6.7072,6.6903,6.7072,6.7072,6.7952,6.9011,6.8571,6.9259,7.0105,6.9519,6.891,6.8571,6.918,6.9766,7.0375,7.1131,7.13,7.13,7.13,7.13,7.13,7.13,7.0838,7.0229,6.9485,6.7015,6.4478,6.2458,0.0,0.0,0.0,5.7408,5.8955,6.3487,6.5493,6.732,6.9417,6.962,6.935,6.8741,6.9474,7.0277,7.0998,7.1584,7.2487,7.3757,7.2323,7.147,7.13,7.147,7.1571,7.1571,7.174,7.1808,7.1808,7.1808,7.1706,7.1605,7.2615,7.308,7.3222,7.4234,7.4776,7.4894,7.3816,7.4352,7.5589,7.4237,7.473,7.6045,8.5872,8.5872,8.5905,8.5939,8.6535,8.7198,8.7888,8.8646,8.9086,8.9086,8.7854,8.6961,8.6893,8.5561,8.4647,8.4614,8.4614,8.4614,8.4614,8.395,8.3219,8.2428,7.9769,7.7515,7.5743,7.4266,7.3116,7.2326,7.1639,7.13,7.13,7.13,7.13,7.13,7.13,7.13,7.13,7.13,7.13,7.13,7.13,7.0872,7.0105,6.9383,6.8605,6.7793,6.7072,6.7242,6.7827,6.7827,6.8402,6.9214,6.9834,7.0105,7.0172,7.0139,7.0071,7.0037,7.0105,7.0172,7.0375,7.1131,7.13,7.13,7.13,7.13,7.13,7.13,7.1267,7.0996,7.024,6.8199,6.5483,6.1931,0.0,0.0,5.7137,5.9785,6.2797,6.5233,6.7489,6.944,7.0996,7.1131,7.1097,7.1052,7.1979,7.2459,7.2271,7.3176,7.3664,7.3514,7.2744,7.1977,7.13,7.1988,7.2326,7.2326,7.3015,7.3353,7.3353,7.3353,7.2981,7.2361,7.3362,7.3941,7.4263,7.5254,7.6247,7.6937,7.5688,7.5706,7.6277,7.4979,7.5058,7.5739,8.5702,8.5384,8.5215,8.5702,8.6041,8.6298,8.6582,8.7245,8.7753,8.7753,8.6839,8.623,8.623,8.5236,8.4614,8.4614,8.4614,8.4614,8.4614,8.3477,8.2259,8.1088,7.9105,7.7278,7.5743,7.4695,7.3612,7.2394,7.2124,7.174,7.13,7.13,7.13,7.13,7.13,7.13,7.13,7.13,7.13,7.13,7.13,7.0872,7.0172,6.9902,6.9316,6.8605,6.8335,6.8402,6.8639,6.8639,6.9147,6.9834,7.0105,7.05,7.0872,7.0872,7.0872,7.0872,7.0872,7.0872,7.0962,7.1233,7.13,7.13,7.13,7.13,7.13,7.13,7.13,7.1064,7.0342,6.9113,6.759,6.5696,0.0,6.2922,6.298,6.3835,6.5266,6.7533,6.8988,7.0195,7.1199,7.13,7.13,7.13,7.1655,7.2017,7.2383,7.3629,7.4275,7.4199,7.3905,7.3409,7.2665,7.2935,7.3082,7.3082,7.3353,7.3488,7.3488,7.3488,7.3116,7.2508,7.4125,7.4622,7.4367,7.5396,7.6027,7.6253,7.4977,7.5339,7.6397,7.5093,7.5478,7.6611,8.5317,8.4965,8.4749,8.5317,8.5635,8.5804,8.5804,8.6433,8.6893,8.6893,8.6264,8.5804,8.5804,8.5067,8.4614,8.4614,8.4614,8.4614,8.4614,8.3206,8.1718,8.0276,7.88,7.7515,7.6466,7.4999,7.3747,7.2732,7.2293,7.1808,7.13,7.13,7.13,7.13,7.13,7.13,7.13,7.13,7.13,7.13,7.13,7.0872,7.0206,7.0206,6.9733,6.9113,6.9113,6.9248,6.9417,6.918,6.9755,7.0511,7.0274,7.0703,7.13,7.13,7.13,7.13,7.13,7.13,7.13,7.13,7.13,7.13,7.13,7.13,7.13,7.13,7.13,7.1131,7.0635,6.9925,6.9113,6.8064,6.6643,6.5899,6.67,6.6779,6.7421,6.9214,7.0094,7.0737,7.1267,7.1601,7.1633,7.1323,7.2089,7.2887,7.3548,7.4215,7.4717,7.4931,7.4717,7.448,7.4199,7.3962,7.386,7.386,7.4097,7.4199,7.4199,7.4199,7.3781,7.3174,7.4629,7.4872,7.4241,7.501,7.5343,7.5254,7.4537,7.5014,7.6015,7.5504,7.5945,7.6747,8.4614,8.4614,8.4614,8.4614,8.5249,8.5804,8.5804,8.6399,8.6893,8.6893,8.623,8.5804,8.5804,8.5067,8.4614,8.4614,8.4614,8.4614,8.458,8.3206,8.1718,8.0276,7.88,7.7988,7.7988,7.5045,7.35,7.3488,7.2011,7.13,7.13,7.13,7.13,7.13,7.13,7.13,7.13,7.13,7.13,7.13,7.13,7.0872,7.0206,7.0206,6.9755,6.9113,6.9113,6.9586,7.0105,6.935,7.0083,7.1165,7.0443,7.0703,7.13,7.13,7.13,7.13,7.13,7.13,7.13,7.13,7.13,7.13,7.13,7.13,7.13,7.13,7.13,7.13,7.13,7.0703,6.9699,6.8166,6.7929,6.7658,6.6937,6.8155,6.9383,7.0105,7.0861,7.13,7.13,7.2193,7.2385,7.139,7.3842,7.5565,7.6056,7.5151,7.4931,7.5676,7.4987,7.4953,7.5676,7.4953,7.4615,7.4615,7.5337,7.5709,7.5709,7.5709,7.5303,7.4618,7.49,7.4591,7.391,7.4176,7.4317,7.4344,7.4827,7.5009,7.5146,7.6441,7.6386,7.5811,8.4614,8.4614,8.4614,8.4614,8.4796,8.4965,8.4965,8.5134,8.529,8.529,8.51,8.4965,8.4965,8.4762,8.4614,8.4614,8.4614,8.439,8.3862,8.2936,8.1718,8.0276,7.88,7.7481,7.6432,7.4999,7.4018,7.3488,7.2529,7.1808,7.13,7.13,7.13,7.13,7.13,7.13,7.13,7.13,7.13,7.13,7.13,7.0872,7.0274,7.077,7.05,6.9936,7.0466,7.0793,7.0939,7.0725,7.0928,7.1267,7.103,7.1131,7.13,7.13,7.13,7.13,7.13,7.13,7.13,7.13,7.13,7.13,7.13,7.13,7.13,7.13,7.13,7.13,7.13,7.1131,7.0669,6.9665,6.9958,7.0015,6.9282,7.0026,7.0725,7.0962,7.1165,7.13,7.13,7.1556,7.1611,7.1323,7.2534,7.3597,7.4241,7.4475,7.4931,7.5676,7.5473,7.5473,7.5709,7.5473,7.5371,7.5371,7.5574,7.5709,7.5709,7.5709,7.5303,7.4652,7.5416,7.5076,7.3916,7.4005,7.4034,7.4026,7.3959,7.4276,7.49,7.6348,7.6758,7.6589,8.4614,8.4614,8.4614,8.4614,8.4614,8.4614,8.4614,8.4614,8.4614,8.4614,8.4614,8.4614,8.4614,8.4614,8.4614,8.4614,8.4614,8.4153,8.3118,8.2631,8.1481,7.9431,7.8496,7.7447,7.6183,7.4864,7.3962,7.3488,7.2462,7.174,7.13,7.13,7.13,7.13,7.13,7.13,7.13,7.13,7.13,7.13,7.13,7.103,7.0669,7.1131,7.103,7.0703,7.1131,7.13,7.13,7.13,7.13,7.13,7.13,7.13,7.13,7.13,7.13,7.13,7.13,7.13,7.13,7.13,7.13,7.13,7.13,7.13,7.13,7.13,7.13,7.13,7.13,7.13,7.1165,7.0703,7.1007,7.1131,7.0703,7.103,7.13,7.13,7.13,7.13,7.13,7.1655,7.2134,7.2704,7.2791,7.315,7.3894,7.4627,7.5089,7.527,7.554,7.5709,7.5709,7.5709,7.5709,7.5709,7.5709,7.5709,7.5709,7.5709,7.5473,7.5034,7.5379,7.5009,7.4128,7.3556,7.3498,7.3741,7.3572,7.395,7.4784,7.6318,7.6893,7.6927,8.4614,8.4614,8.4614,8.4614,8.4614,8.4614,8.4614,8.4614,8.4614,8.4614,8.4614,8.4614,8.4614,8.4614,8.4614,8.4614,8.4546,8.395,8.2598,8.2361,8.1088,7.8327,7.8056,7.765,7.6927,7.474,7.3556,7.3488,7.209,7.1357,7.13,7.13,7.13,7.13,7.13,7.13,7.13,7.13,7.13,7.13,7.13,7.13,7.13,7.13,7.13,7.13,7.13,7.13,7.13,7.13,7.13,7.13,7.13,7.13,7.13,7.13,7.13,7.13,7.13,7.13,7.13,7.13,7.13,7.13,7.13,7.13,7.13,7.13,7.13,7.13,7.13,7.13,7.13,7.13,7.13,7.13,7.13,7.1368,7.1368,7.13,7.1368,7.1368,7.13,7.2142,7.3253,7.4673,7.3923,7.3747,7.4547,7.5236,7.5337,7.4717,7.5439,7.5811,7.5811,7.5879,7.5845,7.5709,7.5709,7.5709,7.5709,7.5709,7.5709,7.5676,7.4987,7.4649,7.448,7.3071,7.2947,7.359,7.3522,7.3984,7.4886,7.6352,7.6893,7.6995,8.4614,8.4614,8.4614,8.4614,8.4614,8.4614,8.4614,8.4614,8.4614,8.4614,8.4614,8.4614,8.4614,8.4614,8.4614,8.4614,8.4052,8.3592,8.3287,8.2184,8.0999,7.9769,7.8631,7.765,7.6927,7.5224,7.4086,7.3488,7.2597,7.1875,7.13,7.13,7.13,7.13,7.13,7.13,7.13,7.13,7.13,7.13,7.13,7.13,7.13,7.13,7.13,7.13,7.13,7.13,7.13,7.13,7.13,7.13,7.13,7.13,7.13,7.13,7.13,7.13,7.13,7.13,7.13,7.13,7.13,7.13,7.13,7.13,7.13,7.13,7.13,7.13,7.13,7.13,7.13,7.13,7.13,7.13,7.13,7.1808,7.1954,7.1368,7.1808,7.1943,7.1368,7.1501,7.1996,7.2915,7.2745,7.3206,7.4547,7.475,7.5033,7.5439,7.6217,7.6657,7.6657,7.721,7.6906,7.5709,7.5709,7.5709,7.5709,7.5709,7.5709,7.5676,7.554,7.5122,7.4547,7.3612,7.368,7.4289,7.3725,7.43,7.5574,7.6555,7.6893,7.6927,8.4614,8.4614,8.4614,8.4614,8.4614,8.4614,8.4614,8.4614,8.4614,8.4614,8.4614,8.4614,8.4614,8.4614,8.4614,8.4614,8.4255,8.3714,8.3016,8.2238,8.119,7.9735,7.8597,7.765,7.6927,7.5743,7.4593,7.3488,7.2766,7.2022,7.13,7.13,7.13,7.13,7.13,7.13,7.13,7.13,7.13,7.13,7.13,7.13,7.13,7.13,7.13,7.13,7.13,7.13,7.13,7.13,7.13,7.13,7.13,7.13,7.13,7.13,7.13,7.13,7.13,7.13,7.13,7.13,7.13,7.13,7.13,7.13,7.13,7.13,7.13,7.13,7.13,7.13,7.13,7.13,7.13,7.13,7.13,7.1943,7.2259,7.1875,7.2462,7.2631,7.1909,7.1808,7.2124,7.2868,7.324,7.377,7.4547,7.492,7.5134,7.5168,7.6318,7.6893,7.6893,7.765,7.7582,7.6804,7.6804,7.6804,7.6804,7.6804,7.6589,7.6284,7.6284,7.5845,7.5033,7.3962,7.3916,7.4514,7.3793,7.4199,7.527,7.6048,7.6555,7.6995,8.4614,8.4614,8.4614,8.4614,8.4614,8.4614,8.4614,8.4614,8.4614,8.4614,8.4614,8.4614,8.4614,8.4614,8.4614,8.4614,8.4478,8.3849,8.2496,8.2259,8.1346,7.9384,7.8585,7.7841,7.7096,7.6318,7.518,7.3691,7.3071,7.2394,7.1672,7.1537,7.1503,7.147,7.1368,7.13,7.13,7.13,7.13,7.13,7.13,7.13,7.13,7.13,7.13,7.13,7.13,7.13,7.13,7.13,7.13,7.13,7.13,7.13,7.13,7.13,7.13,7.13,7.13,7.13,7.13,7.13,7.13,7.13,7.13,7.13,7.1334,7.147,7.1402,7.1334,7.147,7.1402,7.1334,7.147,7.1368,7.1402,7.1639,7.2191,7.2597,7.2597,7.3116,7.3251,7.2642,7.2597,7.2868,7.3624,7.4255,7.4649,7.4784,7.5371,7.5439,7.4818,7.6284,7.7096,7.7096,7.7954,7.8394,7.8394,7.8394,7.8225,7.7988,7.7988,7.7684,7.7063,7.6961,7.6521,7.5777,7.4165,7.4018,7.4683,7.3827,7.4018,7.4852,7.5473,7.6115,7.6893,8.4614,8.4614,8.4614,8.4614,8.4614,8.4614,8.4614,8.4614,8.4614,8.4614,8.4614,8.4614,8.4614,8.4614,8.4614,8.4614,8.4018,8.3287,8.2462,8.1799,8.1033,8.0073,7.9329,7.8619,7.7887,7.713,7.598,7.4446,7.4345,7.3916,7.3184,7.2563,7.2259,7.2225,7.1571,7.13,7.13,7.13,7.13,7.13,7.13,7.13,7.13,7.13,7.13,7.13,7.13,7.13,7.13,7.13,7.13,7.13,7.13,7.13,7.13,7.13,7.13,7.13,7.13,7.13,7.13,7.13,7.13,7.13,7.13,7.13,7.147,7.2124,7.174,7.1503,7.2124,7.174,7.1503,7.2157,7.1706,7.174,7.3015,7.3285,7.3353,7.3353,7.3454,7.3454,7.3353,7.3353,7.3657,7.4378,7.4547,7.4886,7.5506,7.5642,7.5642,7.554,7.7041,7.7853,7.7853,7.924,7.9904,7.9904,7.9904,7.9228,7.7988,7.7988,7.7954,7.7819,7.7164,7.6826,7.6555,7.4402,7.43,7.5405,7.403,7.4334,7.5574,7.5676,7.5777,7.598,8.4614,8.4614,8.4614,8.4614,8.4614,8.4614,8.4614,8.4614,8.4614,8.4614,8.4614,8.4614,8.4614,8.4614,8.4614,8.4614,8.4289,8.3612,8.2462,8.2103,8.1393,8.0242,7.9486,7.8945,7.8619,7.7874,7.6961,7.5867,7.5021,7.4018,7.2868,7.2981,7.2563,7.1774,7.1887,7.1672,7.13,7.13,7.13,7.13,7.13,7.13,7.13,7.13,7.13,7.13,7.13,7.13,7.13,7.13,7.13,7.13,7.13,7.13,7.13,7.13,7.13,7.13,7.13,7.13,7.13,7.13,7.13,7.13,7.13,7.13,7.1402,7.1706,7.1537,7.1537,7.2259,7.2124,7.2157,7.2868,7.2732,7.2778,7.3421,7.3849,7.4255,7.4672,7.4356,7.4119,7.4119,7.4119,7.4255,7.4581,7.4987,7.5371,7.5676,7.5709,7.5912,7.6352,7.7447,7.8191,7.8619,7.9667,8.0209,8.0209,8.0209,7.987,7.9228,7.9228,7.8991,7.8585,7.7841,7.7266,7.6758,7.4897,7.4842,7.5902,7.5261,7.5662,7.6599,7.6599,7.6208,7.5811]},{"header":{"parameterUnit":"m.s-1","parameterCategory":1,"la1":30.6,"la2":28.766,"lo1":-90.7593,"lo2":-88.6598,"dy":0.0162,"dx":0.0183,"nx":116,"ny":114,"refTime":"2023-03-18T18:00:00:Z","depth":0,"parameterNumber":3,"parameterNumberName":"V-component_of_WINDS"},"data":[0.0,0.0,0.0,0.0,0.0,0.0,0.0,0.0,0.0,0.0,0.0,0.0,0.0,0.0,0.0,0.0,0.0,0.0,0.0,0.0,0.0,0.0,0.0,0.0,0.0,0.0,0.0,0.0,0.0,0.0,0.0,0.0,0.0,0.0,0.0,0.0,0.0,0.0,0.0,0.0,0.0,0.0,0.0,0.0,0.0,0.0,0.0,0.0,0.0,0.0,0.0,0.0,0.0,0.0,0.0,0.0,0.0,0.0,0.0,0.0,0.0,0.0,0.0,0.0,0.0,0.0,0.0,0.0,0.0,0.0,0.0,0.0,0.0,0.0,0.0,0.0,0.0,0.0,0.0,0.0,0.0,0.0,0.0,0.0,0.0,0.0,0.0,0.0,0.0,0.0,0.0,0.0,0.0,0.0,0.0,0.0,0.0,0.0,0.0,0.0,0.0,0.0,0.0,0.0,0.0,0.0,0.0,0.0,0.0,0.0,0.0,0.0,0.0,0.0,0.0,0.0,0.0,0.0,0.0,0.0,0.0,0.0,0.0,0.0,0.0,0.0,0.0,0.0,0.0,0.0,0.0,0.0,0.0,0.0,0.0,0.0,0.0,0.0,0.0,0.0,0.0,0.0,0.0,0.0,0.0,0.0,0.0,0.0,0.0,0.0,0.0,0.0,0.0,0.0,0.0,0.0,0.0,0.0,0.0,0.0,0.0,0.0,0.0,0.0,0.0,0.0,0.0,0.0,0.0,0.0,0.0,0.0,0.0,0.0,0.0,0.0,0.0,0.0,0.0,0.0,0.0,0.0,0.0,0.0,0.0,0.0,0.0,0.0,0.0,0.0,0.0,0.0,0.0,0.0,0.0,0.0,0.0,0.0,0.0,0.0,0.0,0.0,0.0,0.0,0.0,0.0,0.0,0.0,0.0,0.0,0.0,0.0,0.0,0.0,0.0,0.0,0.0,0.0,0.0,0.0,0.0,0.0,0.0,0.0,0.0,0.0,0.0,0.0,0.0,0.0,0.0,0.0,0.0,0.0,0.0,0.0,0.0,0.0,0.0,0.0,0.0,0.0,0.0,0.0,0.0,0.0,0.0,0.0,0.0,0.0,0.0,0.0,0.0,0.0,0.0,0.0,0.0,0.0,0.0,0.0,0.0,0.0,0.0,0.0,0.0,0.0,0.0,0.0,0.0,0.0,0.0,0.0,0.0,0.0,0.0,0.0,0.0,0.0,0.0,0.0,0.0,0.0,0.0,0.0,0.0,0.0,0.0,0.0,0.0,0.0,0.0,0.0,0.0,0.0,0.0,0.0,0.0,0.0,0.0,0.0,0.0,0.0,0.0,0.0,0.0,0.0,0.0,0.0,0.0,0.0,0.0,0.0,0.0,0.0,0.0,0.0,0.0,0.0,0.0,0.0,0.0,0.0,0.0,0.0,0.0,0.0,0.0,0.0,0.0,0.0,0.0,0.0,0.0,0.0,0.0,0.0,0.0,0.0,0.0,0.0,0.0,0.0,0.0,0.0,0.0,0.0,0.0,0.0,0.0,0.0,0.0,0.0,0.0,0.0,0.0,0.0,0.0,0.0,0.0,0.0,0.0,0.0,0.0,0.0,0.0,0.0,0.0,0.0,0.0,0.0,0.0,0.0,0.0,0.0,0.0,0.0,0.0,0.0,0.0,0.0,0.0,0.0,0.0,0.0,0.0,0.0,0.0,0.0,0.0,0.0,0.0,0.0,0.0,0.0,0.0,0.0,0.0,0.0,0.0,0.0,0.0,0.0,0.0,0.0,0.0,0.0,0.0,0.0,0.0,0.0,0.0,0.0,0.0,0.0,0.0,0.0,0.0,0.0,0.0,0.0,0.0,0.0,0.0,0.0,0.0,0.0,0.0,0.0,0.0,0.0,0.0,0.0,0.0,0.0,0.0,0.0,0.0,0.0,0.0,0.0,0.0,0.0,0.0,0.0,0.0,0.0,0.0,0.0,0.0,0.0,0.0,0.0,0.0,0.0,0.0,0.0,0.0,0.0,0.0,0.0,0.0,0.0,0.0,0.0,0.0,0.0,0.0,0.0,0.0,0.0,0.0,0.0,0.0,0.0,0.0,0.0,0.0,0.0,0.0,0.0,0.0,0.0,0.0,0.0,0.0,0.0,0.0,0.0,0.0,0.0,0.0,0.0,0.0,0.0,0.0,0.0,0.0,0.0,0.0,0.0,0.0,0.0,0.0,0.0,0.0,0.0,0.0,0.0,0.0,0.0,0.0,0.0,0.0,0.0,0.0,0.0,0.0,0.0,0.0,0.0,0.0,0.0,0.0,0.0,0.0,0.0,0.0,0.0,0.0,0.0,0.0,0.0,0.0,0.0,0.0,0.0,0.0,0.0,0.0,0.0,0.0,0.0,0.0,0.0,0.0,0.0,0.0,0.0,0.0,0.0,0.0,0.0,0.0,0.0,0.0,0.0,0.0,0.0,0.0,0.0,0.0,0.0,0.0,0.0,0.0,0.0,0.0,0.0,0.0,0.0,0.0,0.0,0.0,0.0,0.0,0.0,0.0,0.0,0.0,0.0,0.0,0.0,0.0,0.0,0.0,0.0,0.0,0.0,0.0,0.0,0.0,0.0,0.0,0.0,0.0,0.0,0.0,0.0,0.0,0.0,0.0,0.0,0.0,0.0,0.0,0.0,0.0,0.0,0.0,0.0,0.0,0.0,0.0,0.0,0.0,0.0,0.0,0.0,0.0,0.0,0.0,0.0,0.0,0.0,0.0,0.0,0.0,0.0,0.0,0.0,0.0,0.0,0.0,0.0,0.0,0.0,0.0,0.0,0.0,0.0,0.0,0.0,0.0,0.0,0.0,0.0,0.0,0.0,0.0,0.0,0.0,0.0,0.0,0.0,0.0,0.0,0.0,0.0,0.0,0.0,0.0,0.0,0.0,0.0,0.0,0.0,0.0,0.0,0.0,0.0,0.0,0.0,0.0,0.0,0.0,0.0,0.0,0.0,0.0,0.0,0.0,0.0,0.0,0.0,0.0,0.0,0.0,0.0,0.0,0.0,0.0,0.0,0.0,0.0,0.0,0.0,0.0,0.0,0.0,0.0,0.0,0.0,0.0,0.0,0.0,0.0,0.0,0.0,0.0,0.0,0.0,0.0,0.0,0.0,0.0,0.0,0.0,0.0,0.0,0.0,0.0,0.0,0.0,0.0,0.0,0.0,0.0,0.0,0.0,0.0,0.0,0.0,0.0,0.0,0.0,0.0,0.0,0.0,0.0,0.0,0.0,0.0,0.0,0.0,0.0,0.0,0.0,0.0,0.0,0.0,0.0,0.0,0.0,0.0,0.0,0.0,0.0,0.0,0.0,0.0,0.0,0.0,0.0,0.0,0.0,0.0,0.0,0.0,0.0,0.0,0.0,0.0,0.0,0.0,0.0,0.0,0.0,0.0,0.0,0.0,0.0,0.0,0.0,0.0,0.0,0.0,0.0,0.0,0.0,0.0,0.0,0.0,0.0,0.0,0.0,0.0,0.0,0.0,0.0,0.0,0.0,0.0,0.0,0.0,0.0,0.0,0.0,0.0,0.0,0.0,0.0,0.0,0.0,0.0,0.0,0.0,0.0,0.0,0.0,0.0,0.0,0.0,0.0,0.0,0.0,0.0,0.0,0.0,0.0,0.0,0.0,0.0,0.0,0.0,0.0,0.0,0.0,0.0,0.0,0.0,0.0,0.0,0.0,0.0,0.0,0.0,0.0,0.0,0.0,0.0,0.0,0.0,0.0,0.0,0.0,0.0,0.0,0.0,0.0,0.0,0.0,0.0,0.0,0.0,0.0,0.0,0.0,0.0,0.0,0.0,0.0,0.0,0.0,0.0,0.0,0.0,0.0,0.0,0.0,0.0,0.0,0.0,0.0,0.0,0.0,0.0,0.0,0.0,0.0,0.0,0.0,0.0,0.0,0.0,0.0,0.0,0.0,0.0,0.0,0.0,0.0,0.0,0.0,0.0,0.0,0.0,0.0,0.0,0.0,0.0,0.0,0.0,0.0,0.0,0.0,0.0,0.0,0.0,0.0,0.0,0.0,0.0,0.0,0.0,0.0,0.0,0.0,0.0,0.0,0.0,0.0,0.0,0.0,0.0,0.0,0.0,0.0,0.0,0.0,0.0,0.0,0.0,0.0,0.0,0.0,0.0,0.0,0.0,0.0,0.0,0.0,0.0,0.0,0.0,0.0,0.0,0.0,0.0,0.0,0.0,0.0,0.0,0.0,0.0,0.0,0.0,0.0,0.0,0.0,0.0,0.0,0.0,0.0,0.0,0.0,0.0,0.0,0.0,0.0,0.0,0.0,0.0,0.0,0.0,0.0,0.0,0.0,0.0,0.0,0.0,0.0,0.0,0.0,0.0,0.0,0.0,0.0,0.0,0.0,0.0,0.0,0.0,0.0,0.0,0.0,0.0,0.0,0.0,0.0,0.0,0.0,0.0,0.0,0.0,0.0,0.0,0.0,0.0,0.0,0.0,0.0,0.0,0.0,0.0,0.0,0.0,0.0,0.0,0.0,0.0,0.0,0.0,0.0,0.0,0.0,0.0,0.0,0.0,0.0,0.0,0.0,0.0,0.0,0.0,0.0,0.0,0.0,0.0,0.0,0.0,0.0,0.0,0.0,0.0,0.0,0.0,0.0,0.0,0.0,0.0,0.0,0.0,0.0,0.0,0.0,0.0,0.0,0.0,0.0,0.0,0.0,0.0,0.0,0.0,0.0,0.0,0.0,0.0,0.0,0.0,0.0,0.0,0.0,0.0,0.0,0.0,0.0,0.0,0.0,0.0,0.0,0.0,0.0,0.0,0.0,0.0,0.0,0.0,0.0,0.0,0.0,0.0,0.0,0.0,0.0,0.0,0.0,0.0,0.0,0.0,0.0,0.0,0.0,0.0,0.0,0.0,0.0,0.0,0.0,0.0,0.0,0.0,0.0,0.0,0.0,0.0,0.0,0.0,0.0,0.0,0.0,0.0,0.0,0.0,0.0,0.0,0.0,0.0,0.0,0.0,0.0,0.0,0.0,0.0,0.0,0.0,0.0,0.0,0.0,0.0,0.0,0.0,0.0,0.0,0.0,0.0,0.0,0.0,0.0,0.0,0.0,0.0,0.0,0.0,0.0,0.0,0.0,0.0,0.0,0.0,0.0,0.0,0.0,0.0,0.0,0.0,0.0,0.0,0.0,0.0,0.0,0.0,0.0,0.0,0.0,0.0,0.0,0.0,0.0,0.0,0.0,0.0,0.0,0.0,0.0,0.0,0.0,0.0,0.0,0.0,0.0,0.0,0.0,0.0,0.0,0.0,0.0,0.0,0.0,0.0,0.0,0.0,0.0,0.0,0.0,0.0,0.0,0.0,0.0,0.0,0.0,0.0,0.0,0.0,0.0,0.0,0.0,0.0,0.0,0.0,0.0,0.0,0.0,0.0,0.0,0.0,0.0,0.0,0.0,0.0,0.0,0.0,0.0,0.0,0.0,0.0,0.0,0.0,0.0,0.0,0.0,0.0,0.0,0.0,0.0,0.0,0.0,0.0,0.0,0.0,0.0,0.0,0.0,0.0,0.0,0.0,0.0,0.0,0.0,0.0,0.0,0.0,0.0,0.0,0.0,0.0,0.0,0.0,0.0,0.0,0.0,0.0,0.0,0.0,0.0,0.0,0.0,0.0,0.0,0.0,0.0,0.0,0.0,0.0,0.0,0.0,0.0,0.0,0.0,0.0,0.0,0.0,0.0,0.0,0.0,0.0,0.0,0.0,0.0,0.0,0.0,0.0,0.0,0.0,0.0,0.0,0.0,0.0,0.0,0.0,0.0,0.0,0.0,0.0,0.0,0.0,0.0,0.0,0.0,0.0,0.0,0.0,0.0,0.0,0.0,0.0,0.0,0.0,0.0,0.0,0.0,0.0,0.0,0.0,0.0,0.0,0.0,0.0,0.0,0.0,0.0,0.0,0.0,0.0,0.0,0.0,0.0,0.0,0.0,0.0,0.0,0.0,0.0,0.0,0.0,0.0,0.0,0.0,0.0,0.0,0.0,0.0,0.0,0.0,0.0,0.0,0.0,0.0,0.0,0.0,1.0575,0.0,0.0,0.0,0.0,0.0,0.0,0.0,0.0,0.0,0.0,0.0,0.0,0.0,0.0,0.0,0.0,0.0,0.0,0.0,0.0,0.0,0.0,0.0,0.0,0.0,0.0,0.0,0.0,0.0,0.0,0.0,0.0,0.0,0.0,0.0,0.0,0.0,0.0,0.0,0.0,0.0,0.0,0.0,0.0,0.0,0.0,0.0,0.0,0.0,0.0,0.0,0.0,0.0,0.0,0.0,0.0,0.0,0.0,0.0,0.0,0.0,0.0,0.0,0.0,0.0,0.0,0.0,0.0,0.0,0.0,0.0,0.0,0.0,0.0,0.0,0.0,0.0,0.0,0.0,0.0,0.0,0.0,0.0,0.0,0.0,0.0,0.0,0.0,0.0,0.0,0.0,0.0,0.0,0.0,0.0,0.0,0.0,0.0,0.0,0.0,0.0,0.0,0.0,0.0,0.0,0.0,0.0,0.0,0.0,0.0,0.0,0.0,0.0,0.0,0.0,0.0,1.2527,0.0,0.0,0.0,0.0,0.0,0.0,0.0,0.0,0.0,0.0,0.0,0.0,0.0,0.0,0.0,0.0,0.0,0.0,0.0,0.0,0.0,0.0,0.0,0.0,0.0,0.0,0.0,0.0,0.0,0.0,0.0,0.0,0.0,0.0,0.0,0.0,0.0,0.0,0.0,0.0,0.0,0.0,0.0,0.0,0.0,0.0,0.0,0.0,0.0,0.0,0.0,0.0,0.0,0.0,0.0,0.0,0.0,0.0,0.0,0.0,0.0,0.0,0.0,0.0,0.0,0.0,0.0,0.0,0.0,0.0,0.0,0.0,0.0,0.0,0.0,0.0,0.0,0.0,0.0,0.0,0.0,0.0,0.0,0.0,0.0,0.0,0.0,0.0,0.0,0.0,0.0,0.0,0.0,0.0,0.0,0.0,0.0,0.0,0.0,0.0,0.0,0.0,0.0,0.0,0.0,0.0,0.0,0.0,1.7971,1.8852,1.9185,1.9518,1.9972,2.0328,1.7284,1.5985,1.5965,0.0,0.0,0.0,0.0,0.0,0.0,0.0,0.0,0.0,0.0,0.0,0.0,0.0,0.0,0.0,0.0,0.0,0.0,0.0,0.0,0.0,0.0,0.0,0.0,0.0,0.0,0.0,0.0,0.0,0.0,0.0,0.0,0.0,0.0,0.0,0.0,0.0,0.0,0.0,0.0,0.0,0.0,0.0,0.0,0.0,0.0,0.0,0.0,0.0,0.0,0.0,0.0,0.0,0.0,0.0,0.0,0.0,0.0,0.0,0.0,0.0,0.0,0.0,0.0,0.0,0.0,0.0,0.0,0.0,0.0,0.0,0.0,0.0,0.0,0.0,0.0,0.0,0.0,0.0,0.0,0.0,0.0,0.0,0.0,0.0,0.0,0.0,1.2692,1.3561,0.0,0.0,0.0,0.0,0.0,0.0,0.0,0.0,0.0,0.0,0.0,0.0,0.0,0.0,1.797,1.8819,1.951,2.0045,2.2038,2.2609,2.1908,2.2451,2.2909,2.3251,2.2753,0.0,1.8369,1.7542,0.0,0.0,0.0,0.0,0.0,0.0,0.0,0.0,0.0,0.0,0.0,0.0,0.0,0.0,0.0,0.0,0.0,0.0,0.0,0.0,0.0,0.0,0.0,0.0,0.0,0.0,0.0,0.0,0.0,0.0,0.0,0.0,0.0,0.0,0.0,0.0,0.0,0.0,0.0,0.0,0.0,0.0,0.0,0.0,0.0,0.0,0.0,0.0,0.0,0.0,0.0,0.0,0.0,0.0,0.0,0.0,0.0,0.0,0.0,0.0,0.0,0.0,0.0,0.0,0.0,0.0,0.0,0.0,0.0,0.0,0.0,0.0,0.0,0.0,0.0,0.0,0.0,0.0,0.0,0.0,0.0,0.0,0.0,0.0,0.0,1.2474,1.3454,1.3772,1.4416,1.4346,0.0,0.0,0.0,0.0,0.0,0.0,0.0,0.0,0.0,1.8241,1.8992,1.9933,2.1152,2.1955,2.2706,2.3407,2.4668,2.5291,2.5398,2.5646,2.6732,2.8328,2.6711,2.5722,2.5007,2.1156,1.8624,1.7088,0.0,0.0,0.0,0.0,0.0,1.5659,0.0,0.0,0.0,0.0,0.0,0.0,0.0,0.0,0.0,0.0,0.0,0.0,0.0,0.0,0.0,0.0,0.0,0.0,0.0,0.0,0.0,0.0,0.0,0.0,0.0,0.0,0.0,0.0,0.0,0.0,0.0,0.0,0.0,0.0,0.0,0.0,0.0,0.0,0.0,0.0,0.0,0.0,0.0,0.0,0.0,0.0,0.0,0.0,0.0,0.0,0.0,0.0,0.0,0.0,0.0,0.0,0.0,0.0,0.0,0.0,0.0,0.0,0.0,0.0,0.0,0.0,0.0,0.0,0.0,0.0,0.0,0.0,0.0,0.0,0.0,0.0,0.0,1.3883,1.4796,1.4347,1.5661,1.5857,0.0,0.0,0.0,0.0,0.0,0.0,1.8545,1.9253,2.0336,2.1887,2.2666,2.3442,2.4245,2.5122,2.5879,2.6533,2.7695,2.8572,2.9236,2.9838,3.1307,3.3208,3.0945,3.0663,3.1277,2.4704,2.1133,1.9691,1.8625,1.7903,1.7555,1.8023,1.8371,1.8839,0.0,0.0,0.0,0.0,0.0,0.0,0.0,0.0,0.0,0.0,0.0,0.0,0.0,0.0,0.0,0.0,0.0,0.0,0.0,0.0,0.0,0.0,0.0,0.0,0.0,0.0,0.0,0.0,0.0,0.0,0.0,0.0,0.0,0.0,0.0,0.0,0.0,0.0,0.0,0.0,0.0,0.0,0.0,0.0,0.0,0.0,0.0,0.0,0.0,0.0,0.0,0.0,0.0,0.0,0.0,0.0,0.0,0.0,0.0,0.0,0.0,0.0,0.0,0.0,0.0,0.0,0.0,0.0,0.0,0.0,0.0,0.0,0.0,0.0,0.0,0.0,0.0,0.0,0.0,1.6298,1.841,0.0,0.0,0.0,0.0,1.7782,1.8665,1.9843,2.1331,2.2211,2.3465,2.5192,2.6393,2.7309,2.7932,2.8786,2.9267,2.9329,3.1982,3.3259,3.3392,3.5687,3.6801,3.6908,3.6373,3.6019,3.5213,2.7568,2.3545,2.2135,2.124,2.0388,1.9746,2.0601,2.1111,2.1531,0.0,0.0,0.0,0.0,0.0,0.0,0.0,0.0,0.0,0.0,0.0,0.0,0.0,2.0809,0.0,0.0,0.0,0.0,0.0,0.0,0.0,0.0,0.0,0.0,0.0,0.0,0.0,0.0,0.0,0.0,0.0,0.0,0.0,0.0,0.0,0.0,0.0,0.0,0.0,0.0,0.0,0.0,0.0,0.0,0.0,0.0,0.0,0.0,0.0,0.0,0.0,0.0,0.0,0.0,0.0,0.0,0.0,0.0,0.0,0.0,0.0,0.0,0.0,0.0,0.0,0.0,0.0,0.0,0.0,0.0,0.0,0.0,0.0,0.0,0.0,0.0,0.0,0.0,0.0,1.9173,2.0933,0.0,1.932,1.9762,2.0445,2.1098,2.2138,2.3474,2.5181,2.769,2.9617,3.0809,3.323,3.4596,3.4825,3.5353,3.5605,3.5643,3.6779,3.7411,3.7598,3.8294,3.9534,4.1009,3.8998,3.8899,3.9788,3.5076,3.0779,2.7107,2.6439,2.4837,2.2962,2.3474,2.3866,2.4195,0.0,0.0,0.0,0.0,0.0,0.0,0.0,0.0,0.0,0.0,0.0,1.7995,2.1291,2.4548,0.0,0.0,0.0,0.0,0.0,0.0,0.0,0.0,0.0,0.0,0.0,2.8385,0.0,0.0,0.0,0.0,0.0,0.0,0.0,0.0,0.0,0.0,0.0,0.0,0.0,0.0,0.0,0.0,2.5008,0.0,0.0,0.0,0.0,0.0,0.0,0.0,0.0,0.0,0.0,0.0,0.0,0.0,0.0,0.0,0.0,0.0,0.0,0.0,0.0,0.0,0.0,0.0,0.0,0.0,0.0,0.0,0.0,0.0,0.0,0.0,0.0,0.0,0.0,0.0,2.2871,2.2836,2.4672,2.5297,2.3579,2.3567,2.395,2.4651,2.6564,2.8324,2.9726,3.291,3.4994,3.5664,3.78,3.8942,3.8942,3.9265,3.9449,3.9449,4.0453,4.1012,4.1212,4.1879,4.3113,4.4638,4.2573,4.253,4.3751,4.1606,3.8078,3.3803,3.1235,2.9051,2.7256,2.654,2.6453,2.674,0.0,0.0,0.0,0.0,0.0,0.0,0.0,0.0,0.0,0.0,0.0,2.0633,2.4577,2.7577,3.0438,0.0,0.0,0.0,0.0,0.0,0.0,0.0,0.0,0.0,2.766,3.1542,3.5215,3.8651,0.0,0.0,0.0,0.0,0.0,0.0,0.0,0.0,0.0,0.0,0.0,0.0,0.0,0.0,2.9305,0.0,0.0,0.0,0.0,0.0,0.0,0.0,0.0,0.0,0.0,0.0,0.0,0.0,0.0,0.0,0.0,0.0,0.0,0.0,0.0,0.0,0.0,0.0,0.0,0.0,0.0,0.0,0.0,0.0,0.0,0.0,0.0,0.0,1.9124,2.3837,2.7287,2.73,2.9732,3.0793,2.9161,2.8437,2.8194,2.8512,3.1917,3.4249,3.4834,3.7598,3.9289,3.955,3.9902,4.0079,4.0079,4.0407,4.0568,4.0614,4.2955,4.4055,4.4146,4.6544,4.764,4.762,4.7146,4.697,4.6931,4.6543,4.4853,4.1918,3.5435,3.2874,3.2536,2.979,2.8982,2.9254,0.0,0.0,0.0,0.0,0.0,0.0,0.0,0.0,0.0,0.0,2.0235,2.34,2.6986,3.0282,3.2951,3.4694,0.0,0.0,0.0,0.0,0.0,0.0,0.0,0.0,3.2648,3.5023,3.7461,3.9961,4.0664,0.0,0.0,0.0,0.0,0.0,0.0,0.0,0.0,0.0,0.0,0.0,0.0,0.0,3.1201,0.0,0.0,0.0,0.0,0.0,0.0,0.0,0.0,0.0,0.0,0.0,0.0,0.0,0.0,0.0,0.0,0.0,0.0,0.0,0.0,0.0,0.0,0.0,0.0,0.0,0.0,0.0,0.0,0.0,0.0,0.0,0.0,2.4656,2.432,2.7138,3.0361,3.3388,3.5125,3.5974,3.5836,3.5864,3.6002,3.6307,3.7453,3.8337,3.8722,4.1487,4.3104,4.3164,4.5266,4.6408,4.6408,4.6497,4.6531,4.6531,4.7197,4.7539,4.7539,4.8244,4.8538,4.8542,4.8402,4.8343,4.8323,4.7871,4.726,4.5965,3.9455,3.6734,3.6156,3.3497,3.3537,3.4686,0.0,0.0,0.0,0.0,0.0,0.0,0.0,0.0,0.0,0.0,2.2043,2.5421,2.8495,3.1753,3.3926,3.4512,3.3164,0.0,0.0,0.0,0.0,0.0,0.0,3.232,3.5723,3.75,3.918,4.0801,4.1074,4.1191,4.1191,0.0,0.0,0.0,0.0,0.0,0.0,0.0,0.0,0.0,0.0,0.0,3.4841,3.2109,3.0571,2.9534,2.7273,2.5811,2.4684,2.2821,0.0,0.0,0.0,0.0,0.0,0.0,0.0,0.0,0.0,0.0,0.0,0.0,0.0,0.0,0.0,0.0,0.0,0.0,0.0,0.0,0.0,0.0,0.0,0.0,2.5976,2.9584,3.2068,3.3659,3.5692,3.8725,3.9739,4.0332,4.0718,4.0123,3.9784,3.9938,4.1389,4.2362,4.2562,4.5348,4.6944,4.6944,4.8581,4.9437,4.9437,4.9437,4.9437,4.9437,4.9437,4.9437,4.9437,4.9437,4.9437,0.0,4.9242,4.9164,4.9125,4.8695,4.8499,0.0,0.0,0.0,0.0,0.0,3.6922,3.7249,0.0,0.0,0.0,0.0,0.0,0.0,0.0,0.0,0.0,0.0,0.0,2.6687,2.9461,3.2257,3.3824,3.35,3.227,3.061,0.0,0.0,0.0,2.8809,3.2457,3.5446,3.7539,3.9238,4.0488,4.1269,4.1308,4.1328,4.1328,4.1328,0.0,0.0,0.0,0.0,0.0,0.0,0.0,0.0,0.0,0.0,3.8848,3.572,3.5176,3.5706,3.2875,3.0394,2.8284,2.7278,0.0,0.0,0.0,0.0,0.0,0.0,0.0,0.0,0.0,0.0,0.0,0.0,0.0,0.0,0.0,0.0,0.0,0.0,0.0,0.0,0.0,0.0,0.0,0.0,3.0098,3.409,4.037,4.1533,4.2174,4.3379,4.3713,4.4042,4.448,4.2807,4.1717,4.1775,4.4518,4.6208,4.6208,0.0,0.0,0.0,0.0,5.0199,5.0199,5.0199,5.0199,5.0199,5.0199,5.0199,5.0199,5.0199,5.0199,5.018,4.9683,4.9508,4.9469,4.9066,4.8913,4.8569,4.5315,4.4011,4.3674,4.1499,4.0045,0.0,0.0,0.0,0.0,0.0,0.0,0.0,0.0,0.0,0.0,2.0921,2.3632,2.6595,3.0249,3.2085,3.3297,3.3903,3.2461,3.0728,0.0,0.0,2.9615,3.2309,3.5156,3.7519,3.9355,4.0723,4.1504,4.168,4.2012,4.2167,4.2167,4.2167,4.2167,0.0,0.0,0.0,0.0,0.0,0.0,0.0,0.0,0.0,3.9043,3.7677,3.6914,3.6345,3.4668,3.4634,3.4973,3.2397,3.1013,2.9901,2.7297,0.0,0.0,0.0,0.0,0.0,0.0,0.0,0.0,0.0,0.0,0.0,0.0,0.0,0.0,0.0,0.0,0.0,0.0,0.0,0.0,2.9359,3.3914,3.8457,4.2852,4.5397,4.6767,4.6722,4.7044,4.7557,4.8346,4.8037,4.795,4.8339,4.8956,4.9333,4.9333,4.988,0.0,5.0199,5.0199,5.0199,5.0199,5.0199,5.0199,5.0199,0.0,0.0,5.0199,5.0199,5.0199,5.018,4.9683,4.9508,4.9469,4.9066,4.8913,4.8789,4.7708,4.6061,4.4453,4.5663,4.5968,4.5097,0.0,0.0,0.0,0.0,0.0,0.0,0.0,0.0,0.0,0.0,2.2413,2.5375,2.8594,2.9512,2.998,3.0243,2.9238,0.0,0.0,3.0201,3.2504,3.553,3.7736,3.9995,4.2348,4.3018,4.3485,4.3708,4.4928,4.5013,4.4033,4.5072,4.4994,4.3993,0.0,0.0,0.0,0.0,0.0,0.0,0.0,0.0,4.0723,4.0079,3.9473,3.8827,3.793,3.7754,3.7676,3.5937,3.473,3.3609,3.1669,2.9057,2.6282,0.0,0.0,0.0,0.0,0.0,0.0,0.0,0.0,0.0,0.0,0.0,0.0,0.0,0.0,2.0869,0.0,0.0,2.9518,3.3815,3.8271,4.2449,4.6011,4.7865,4.8789,4.8574,4.8727,4.9098,4.9785,4.9844,4.9941,5.018,5.0395,5.0488,5.0488,5.0683,5.0898,5.1157,5.0918,5.1016,5.1445,5.123,5.123,5.1445,5.1255,5.1157,5.1157,5.0898,5.0683,5.0469,5.0039,4.9726,4.9469,4.9066,4.8913,4.8874,4.8636,4.7626,4.6475,4.777,4.7972,4.6867,0.0,0.0,0.0,0.0,0.0,0.0,0.0,0.0,0.0,0.0,0.0,2.3675,2.6218,2.6479,2.6335,0.0,0.0,0.0,0.0,3.2148,3.5354,3.8283,3.9922,4.2039,4.4844,4.5072,4.5539,4.6327,4.8084,4.8112,4.6494,4.8167,4.8074,4.6455,4.6455,0.0,0.0,0.0,0.0,0.0,0.0,0.0,4.2597,4.2089,4.166,4.1269,4.0801,3.9863,3.8827,3.8613,3.748,3.6016,3.531,3.3471,3.0978,2.8052,2.6701,0.0,0.0,0.0,0.0,0.0,0.0,0.0,0.0,0.0,2.0016,2.0696,2.2101,2.3919,2.626,2.9791,3.3954,3.8763,4.2291,4.5515,4.8706,4.9414,4.9664,4.9742,4.9683,4.9863,5.0371,5.043,5.0488,5.0688,5.0996,5.1172,5.1172,5.1479,5.1836,5.2187,5.1831,5.1987,5.2695,5.2383,5.2383,5.2695,5.2285,5.2114,5.2095,5.1616,5.1187,5.0781,5.0273,4.9805,4.9375,4.9027,4.8913,4.8913,4.8913,4.8675,4.8379,4.8753,4.8464,4.714,0.0,0.0,0.0,0.0,0.0,0.0,0.0,0.0,0.0,0.0,0.0,0.0,0.0,0.0,0.0,0.0,0.0,0.0,3.104,3.4411,3.748,4.0098,4.1152,4.2659,4.4844,4.5643,4.6987,4.8889,4.9528,4.9732,4.9499,4.9752,4.9732,4.9499,4.9499,0.0,0.0,0.0,0.0,0.0,0.0,0.0,4.3476,4.2636,4.207,4.168,4.1269,4.0527,3.9863,4.0585,3.9902,3.875,3.8652,3.741,3.5398,3.2385,0.0,2.6422,2.3912,2.1374,1.9382,1.9123,2.0687,2.2542,0.0,0.0,2.6282,2.6022,2.6794,2.8517,3.1779,3.3849,3.7041,4.3094,4.4892,4.6574,4.9611,5.0102,5.0234,5.0625,5.0332,5.041,5.1187,5.1265,5.1577,5.2363,5.2461,5.25,5.25,5.2539,5.2598,5.2637,5.2573,5.2617,5.2715,5.2656,5.2656,5.2695,5.2285,5.2114,5.2095,5.1616,5.1187,5.0762,4.9918,4.9355,4.8949,4.8933,4.8913,4.8913,4.8913,4.8874,4.8835,4.8894,4.8855,4.7988,0.0,0.0,0.0,0.0,0.0,0.0,0.0,0.0,0.0,0.0,0.0,0.0,0.0,0.0,0.0,0.0,0.0,0.0,3.0254,3.4785,3.8943,4.244,4.2947,4.4907,4.8714,4.9163,5.006,5.1517,5.2906,5.2987,5.1842,5.3043,5.3134,5.2264,5.2264,5.1369,0.0,0.0,0.0,0.0,0.0,0.0,4.3281,4.2636,4.1992,4.1308,4.0097,3.9296,0.0,0.0,3.8926,3.8614,3.9648,3.8281,3.5937,3.416,3.1586,0.0,2.6848,2.4751,2.34,2.4432,2.6326,2.7877,2.7585,2.8516,2.9177,2.826,3.0296,3.2753,3.4532,3.8316,4.2058,0.0,4.72,4.9124,5.0364,5.0762,5.0855,5.082,5.0859,5.1152,5.1758,5.2007,5.2299,5.2676,5.2715,5.2715,5.2715,5.2715,5.2832,5.3111,5.3111,5.3365,5.3848,5.3848,5.3848,5.3848,5.3418,5.2949,5.2441,5.2012,5.1308,5.0434,4.9762,4.9277,4.8913,4.8913,4.8913,4.8913,4.8913,4.8913,4.8913,4.8913,4.8913,4.8331,0.0,0.0,0.0,0.0,0.0,0.0,0.0,0.0,0.0,0.0,0.0,0.0,0.0,0.0,0.0,0.0,0.0,0.0,0.0,3.4355,3.9282,4.3557,4.4075,4.6505,5.1275,5.1657,5.2421,5.3733,5.5397,5.5435,5.3988,5.549,5.5596,5.453,5.453,5.3758,5.2417,0.0,0.0,0.0,0.0,0.0,4.4744,4.2941,4.1699,4.0691,3.8891,3.7793,0.0,0.0,3.6584,3.674,3.8107,3.7131,3.5254,3.4141,3.2012,2.9702,2.8251,2.7446,2.7469,2.9319,3.1739,3.3203,3.1433,3.2637,3.3568,3.1584,3.4083,3.7024,3.8276,4.2227,4.5719,4.6917,4.9277,5.103,5.1289,5.1362,5.1245,5.0859,5.0976,5.125,5.168,5.2324,5.2851,5.3223,5.3262,5.3262,5.3262,5.3262,5.3398,5.3736,5.3756,5.4107,5.487,5.4889,5.483,5.4694,5.4213,5.3529,5.2695,5.2031,5.1255,5.0312,4.9742,4.9313,4.9046,4.8952,4.8913,4.8913,4.8913,4.8913,4.8913,4.8913,4.8913,4.8397,0.0,0.0,0.0,0.0,0.0,0.0,0.0,0.0,0.0,0.0,0.0,0.0,0.0,0.0,0.0,0.0,0.0,0.0,0.0,3.3168,3.8097,4.2648,4.4014,4.6605,5.0734,5.1768,5.3283,5.5343,5.5906,5.6182,5.6127,5.6182,5.6182,5.6134,5.6134,5.5525,5.4467,5.4026,0.0,0.0,0.0,0.0,4.9028,4.3792,4.116,3.9981,3.8045,0.0,0.0,0.0,3.3281,3.3027,3.348,3.3867,0.0,3.2094,2.9785,0.0,0.0,0.0,3.0119,3.2391,3.6099,3.8345,3.524,3.8529,4.119,3.7426,3.8711,4.1403,4.4205,4.5243,4.6773,5.0103,5.106,5.1675,5.2514,5.1928,5.1245,5.0859,5.0449,5.0414,0.0,5.1973,5.3242,5.4557,5.4655,5.4655,5.4655,5.4655,5.4655,5.4674,5.4674,5.4844,5.5293,5.5293,5.5078,5.4694,5.4213,5.3529,5.2676,5.1426,5.082,5.0742,4.9879,4.9488,4.9449,4.9066,4.8913,4.8913,4.8913,4.8913,4.8913,4.8913,4.8913,4.8181,0.0,0.0,0.0,0.0,0.0,0.0,0.0,0.0,0.0,0.0,0.0,0.0,0.0,0.0,0.0,0.0,0.0,0.0,0.0,3.2814,3.8325,4.2295,4.5778,4.9036,5.214,5.2865,5.3772,5.4856,5.5056,5.5132,5.5157,5.5491,5.5867,5.62,5.6577,5.6738,5.6786,5.6626,5.5728,0.0,0.0,0.0,4.9546,4.4757,4.1461,3.8881,0.0,0.0,0.0,0.0,0.0,0.0,3.2598,0.0,0.0,2.8705,0.0,0.0,0.0,0.0,3.7393,3.9592,4.2073,4.3466,4.1582,4.2519,4.3027,4.0299,4.0855,4.2232,4.351,4.5259,4.7163,4.92,5.1074,5.2358,5.2676,5.2944,5.2436,5.0605,5.0762,0.0,0.0,0.0,0.0,5.3736,5.4082,5.4258,5.4258,5.4785,5.498,5.4713,5.5215,5.556,5.5696,5.6015,5.5801,5.5078,5.3769,5.2851,5.2266,5.1543,5.0918,5.0395,5.0078,4.9652,4.9086,4.8972,4.8913,4.8913,4.8913,4.8913,4.8913,4.8913,4.8913,4.8389,0.0,0.0,0.0,0.0,0.0,0.0,0.0,0.0,0.0,0.0,0.0,0.0,0.0,0.0,0.0,0.0,0.0,0.0,0.0,0.0,3.5632,3.953,4.3104,4.6279,4.9031,4.9414,5.0159,5.1356,5.2319,5.3122,5.3725,5.468,5.5308,5.5641,5.5993,5.647,5.6997,5.6997,5.6216,5.4708,0.0,0.0,4.8199,4.2729,3.8953,0.0,0.0,0.0,0.0,0.0,0.0,0.0,0.0,0.0,0.0,0.0,0.0,0.0,0.0,3.8497,4.1777,4.4217,4.6055,4.6812,4.5225,4.5562,4.5533,4.306,4.311,4.3626,4.3738,4.4756,4.6074,4.7718,4.9473,5.1109,5.2519,5.2676,5.2207,5.102,5.0937,5.064,0.0,0.0,0.0,5.3052,5.3828,5.4258,5.4258,5.5032,5.541,5.5137,5.5618,5.5989,5.6145,5.6289,5.584,5.4824,5.3373,5.248,5.2095,5.1616,5.1109,5.0605,5.0312,4.9965,4.9535,4.9089,4.8968,4.9105,4.8972,4.8913,4.8913,4.8913,4.8913,4.8389,0.0,0.0,0.0,0.0,0.0,0.0,0.0,0.0,0.0,0.0,0.0,0.0,0.0,0.0,0.0,0.0,0.0,0.0,0.0,0.0,0.0,3.4566,3.6625,3.9063,4.2021,4.2123,4.319,4.5336,4.7933,5.0042,5.1674,5.3298,5.4044,5.4044,5.412,5.4421,5.4888,5.4888,5.4285,5.2982,4.9256,0.0,4.5375,3.816,0.0,0.0,0.0,0.0,0.0,0.0,0.0,0.0,0.0,0.0,0.0,0.0,0.0,3.4297,3.9337,4.1699,4.3436,4.6345,4.803,4.8424,4.6353,4.7724,4.8601,4.5593,4.5212,4.5256,0.0,0.0,4.3712,4.5859,4.6755,4.8512,5.2285,5.1465,5.0922,0.0,0.0,0.0,0.0,0.0,0.0,5.2617,0.0,5.4674,5.4733,5.5508,5.593,5.5911,5.593,5.6145,5.6609,5.6106,5.5228,5.3959,5.3119,5.25,5.2056,5.1616,5.1421,5.1343,5.0547,5.0453,5.0664,4.9437,4.9164,4.9469,4.9046,4.8913,4.8913,4.8913,4.8801,4.7976,0.0,0.0,0.0,0.0,0.0,0.0,0.0,0.0,0.0,0.0,0.0,0.0,0.0,0.0,0.0,0.0,0.0,0.0,0.0,0.0,0.0,0.0,0.0,0.0,0.0,0.0,0.0,0.0,0.0,4.4522,4.5336,4.6165,4.6567,4.6577,4.7446,4.7898,4.8024,4.8024,4.8083,4.7899,0.0,4.3609,4.3685,0.0,0.0,0.0,0.0,0.0,0.0,0.0,0.0,2.8418,2.9297,3.0371,3.1758,3.4027,3.6526,3.9239,4.2519,4.5273,4.7581,4.8984,4.9633,4.9644,4.8753,4.854,4.7865,4.5475,4.3083,4.1035,0.0,0.0,0.0,4.4531,4.8457,0.0,5.3906,5.4336,0.0,5.317,0.0,5.2656,5.1724,5.2192,0.0,0.0,5.3541,5.4147,5.5098,5.5957,5.6269,5.5911,5.625,5.6465,5.6609,5.584,5.4805,5.356,5.3326,5.2637,5.1577,5.1816,5.1562,5.0933,5.0742,5.0551,5.0317,4.9629,4.9391,4.9469,4.9046,4.8913,4.8913,4.8913,4.7674,4.5544,0.0,0.0,0.0,0.0,0.0,0.0,0.0,0.0,0.0,0.0,0.0,0.0,0.0,0.0,0.0,0.0,0.0,0.0,0.0,0.0,0.0,0.0,0.0,0.0,0.0,0.0,0.0,0.0,0.0,0.0,0.0,4.1518,4.2007,4.2032,4.266,4.3087,4.3313,0.0,0.0,0.0,0.0,0.0,0.0,0.0,0.0,0.0,0.0,0.0,0.0,2.75,2.8945,3.0644,3.2324,3.375,3.5312,3.8009,4.043,4.2812,4.5627,4.7894,4.9574,5.0082,5.0336,5.0,4.8242,4.7461,4.6172,4.2871,4.0059,3.7716,3.6196,3.7871,4.0176,0.0,0.0,0.0,5.3756,5.4336,5.4427,0.0,5.4433,0.0,5.3345,5.3678,5.4205,0.0,5.4459,5.4557,5.5273,5.6113,5.6465,5.623,5.6445,5.6433,5.6035,5.5371,5.4498,5.341,5.3189,5.2598,5.1719,5.1777,5.1543,5.105,0.0,5.0781,5.0683,5.0058,4.9805,4.9766,4.9316,4.9046,4.8913,4.8913,4.726,4.463,0.0,0.0,0.0,0.0,0.0,0.0,0.0,0.0,0.0,0.0,0.0,0.0,0.0,0.0,0.0,0.0,0.0,0.0,0.0,0.0,0.0,0.0,0.0,0.0,0.0,0.0,0.0,0.0,0.0,0.0,0.0,0.0,0.0,0.0,0.0,0.0,0.0,0.0,0.0,0.0,0.0,0.0,0.0,0.0,0.0,0.0,0.0,0.0,0.0,3.1655,3.2765,3.343,3.5566,3.7185,3.8867,4.207,4.3846,4.5451,4.8284,4.9652,5.0297,5.0356,5.0586,4.9902,4.6487,4.5471,4.3888,3.9003,3.6562,3.4808,3.3109,3.5081,3.7773,4.0254,0.0,4.861,5.3033,5.334,5.375,5.5371,5.5605,5.5508,5.5163,5.5124,5.5573,5.6582,5.5976,5.5566,5.5566,5.6211,5.6609,5.6609,5.6523,5.6113,5.5312,5.4883,5.4264,5.341,5.2994,5.2578,5.2148,5.1694,5.1499,5.146,0.0,0.0,5.1343,5.0586,5.0258,5.016,4.9683,4.9258,4.8913,4.8913,4.7032,4.4163,0.0,0.0,0.0,0.0,0.0,0.0,0.0,0.0,0.0,0.0,1.2251,1.2778,0.0,0.0,0.0,0.0,0.0,0.0,0.0,0.0,0.0,0.0,0.0,0.0,0.0,0.0,0.0,0.0,0.0,0.0,0.0,0.0,0.0,0.0,0.0,0.0,0.0,0.0,0.0,0.0,0.0,0.0,0.0,0.0,0.0,0.0,0.0,0.0,0.0,0.0,3.57,3.785,4.0,4.1836,4.3555,4.5545,4.6562,4.7483,4.9437,5.0336,5.0781,5.1109,5.0991,4.9902,4.6487,4.4277,0.0,3.5993,3.3238,3.1348,2.9947,3.2695,3.6562,4.0879,4.5176,4.9629,5.4316,5.5195,5.5716,0.0,5.7207,5.741,5.7351,5.7332,0.0,0.0,0.0,5.6875,5.6875,5.6699,5.6609,5.6609,5.6204,5.5794,5.5312,5.4883,5.4264,5.341,5.3306,5.3052,5.2578,5.2168,5.1973,5.1953,0.0,0.0,5.1362,5.0898,5.0488,5.016,4.9683,4.9258,4.8913,4.8913,4.5891,4.1732,0.0,0.0,0.0,0.0,0.0,0.0,0.0,0.0,0.9981,1.1113,1.1557,1.1837,1.2014,1.1666,0.0,0.0,0.0,0.0,0.0,0.0,0.0,0.0,0.0,0.0,0.0,0.0,0.0,0.0,0.0,0.0,0.0,0.0,0.0,0.0,0.0,0.0,0.0,0.0,0.0,0.0,0.0,0.0,0.0,0.0,0.0,0.0,0.0,0.0,0.0,0.0,3.6074,4.0722,4.332,4.5176,4.6582,4.7617,4.8418,4.9144,4.9984,5.0644,5.1148,5.1362,5.0605,4.8558,4.3771,4.1015,0.0,3.1641,2.959,2.8535,2.7435,3.0947,3.5,3.7988,4.2246,4.6989,5.2226,5.3295,5.4466,5.6914,5.7793,5.8203,5.8203,5.8203,5.8097,0.0,0.0,5.7109,5.6894,5.6699,5.6609,5.6609,5.5957,5.5481,5.5312,5.4668,5.4141,5.3711,5.3502,5.3267,5.3052,5.2407,5.2114,5.2051,5.1597,0.0,5.1382,5.1187,5.0762,5.018,4.9941,4.9476,4.8913,4.8913,4.5591,4.1156,0.0,0.0,0.0,0.0,0.0,0.0,0.0,0.9337,0.9998,1.1419,1.1593,1.1566,1.1513,1.1132,1.1512,0.0,0.0,0.0,0.0,0.0,0.0,0.0,0.0,0.0,0.0,0.0,0.0,0.0,0.0,0.0,0.0,0.0,0.0,0.0,0.0,0.0,0.0,0.0,0.0,0.0,0.0,0.0,0.0,0.0,0.0,0.0,0.0,0.0,0.0,3.0874,3.5039,4.0449,4.375,4.623,4.7969,4.8148,4.9007,4.9965,5.016,5.0801,5.1401,5.1401,5.0058,4.719,4.125,3.8026,3.445,2.8034,2.6557,2.6284,2.5784,2.9263,3.2914,3.5156,3.8789,4.3456,4.9644,5.103,5.2846,5.6758,5.8039,0.0,5.8652,5.8652,0.0,0.0,0.0,0.0,5.6601,5.6504,5.6445,5.6445,5.5625,5.5176,5.5176,5.4388,5.3998,5.3998,5.3599,5.3468,5.3502,5.2544,5.2153,5.2187,5.1636,0.0,0.0,5.1401,5.0996,5.0336,5.0238,4.9711,4.9007,4.8933,4.5614,4.1163,0.0,0.0,0.0,0.0,0.0,0.0,0.0,0.9768,1.0886,1.2055,1.2225,1.2118,1.189,1.181,1.2082,0.0,0.0,0.0,0.0,0.0,0.0,0.0,0.0,0.0,0.0,0.0,0.0,0.0,0.0,0.0,0.0,0.0,0.0,0.0,0.0,0.0,0.0,0.0,0.0,0.0,0.0,0.0,0.0,0.0,0.0,0.0,0.0,0.0,2.6791,3.0757,3.2769,3.4355,3.8535,4.3144,4.6872,4.6213,4.7425,4.9183,4.9984,5.0801,5.1401,5.1401,4.982,4.6797,4.1172,3.7285,3.3164,2.7084,2.5191,2.4859,2.5569,2.709,2.9916,3.5101,3.6973,4.0528,4.8493,5.066,5.2846,5.6758,5.8332,0.0,5.9149,5.9149,5.8945,0.0,0.0,0.0,5.6601,5.6211,5.597,5.597,5.5176,5.4772,5.4772,5.4232,5.3998,5.3998,5.3599,5.3599,5.39,5.2656,5.2285,5.2598,0.0,0.0,0.0,5.1401,5.1148,5.0703,5.0356,4.9883,4.9391,4.9027,4.5585,4.1108,0.0,0.0,0.0,0.0,0.0,0.0,0.0,1.0156,1.1082,1.2435,1.243,1.2194,1.1931,1.1582,1.1399,0.0,0.0,0.0,0.0,0.0,0.0,0.0,0.0,0.0,0.0,0.0,0.0,0.0,0.0,0.0,0.0,0.0,0.0,0.0,0.0,0.0,0.0,0.0,0.0,0.0,0.0,0.0,0.0,0.0,0.0,0.0,0.0,0.0,2.6674,2.7877,3.0137,3.2457,3.2613,3.6384,4.1308,4.4082,4.623,4.8066,4.975,5.0801,5.1343,5.1089,4.8434,4.4648,3.9786,3.5215,3.0723,2.625,2.466,2.4316,2.5176,2.6204,2.8138,3.1894,3.3027,3.584,4.2734,4.5018,4.8005,5.3476,5.5742,5.7461,0.0,0.0,5.9004,0.0,0.0,0.0,5.6601,5.6145,5.5794,5.554,5.498,5.4713,5.4713,5.4213,5.3998,5.3998,5.3599,5.3482,5.3594,5.2583,5.2192,5.2305,0.0,0.0,0.0,5.1401,5.1167,5.0781,5.0625,4.9196,4.718,4.7036,4.3518,3.8807,0.0,0.0,0.0,0.0,0.0,0.8378,0.9772,1.0557,1.1425,1.2632,1.2587,1.231,1.1931,1.1132,1.0544,1.0345,0.0,0.0,0.0,0.0,0.0,0.0,0.0,0.0,0.0,0.0,0.0,0.0,0.0,0.0,0.0,0.0,0.0,0.0,0.0,0.0,0.0,0.0,0.0,0.0,0.0,0.0,0.0,0.0,0.0,0.0,0.0,0.0,0.0,0.0,0.0,3.0385,2.8803,0.0,0.0,4.0937,4.412,4.6482,4.8945,5.041,5.1148,5.0879,4.7578,4.3262,3.8888,3.3926,2.918,2.563,2.4211,2.3867,2.4719,2.5512,2.6849,2.9394,3.043,3.2965,3.8867,4.1055,4.416,4.9883,0.0,5.4336,0.0,5.8524,5.9004,0.0,0.0,0.0,5.6648,5.6145,5.5657,5.5137,5.487,5.4629,5.4492,5.4043,5.3861,5.3998,5.3437,5.3267,5.339,5.2505,5.2114,5.2051,0.0,0.0,0.0,5.1401,5.1167,5.0801,5.0664,4.9067,4.673,4.5823,4.2504,3.8344,0.0,0.0,0.0,0.0,0.0,0.0,0.0,1.0953,1.21,1.2713,1.2803,1.2565,1.1966,1.0592,0.9714,0.9714,0.0,0.0,0.0,0.0,0.0,0.0,0.0,0.0,0.0,0.0,0.0,0.0,0.0,0.0,0.0,0.0,0.0,0.0,0.0,0.0,0.0,0.0,0.0,0.0,0.0,0.0,2.5141,0.0,0.0,0.0,0.0,0.0,0.0,0.0,0.0,0.0,0.0,0.0,0.0,0.0,4.0703,4.4394,4.7402,4.9492,5.082,5.0801,4.7578,4.3262,3.8888,3.3926,2.9101,2.5203,2.3716,2.3365,2.4246,2.4797,2.5942,2.8502,3.0039,3.2832,3.8418,4.0371,4.2657,4.6501,4.7731,4.9629,5.3111,5.6941,5.9004,0.0,0.0,0.0,5.6667,5.6145,5.5521,5.4733,5.4713,5.4473,5.4017,5.3619,5.3619,5.3998,5.31,5.2949,5.339,5.2505,5.2114,0.0,0.0,0.0,0.0,5.1401,5.1167,5.0762,5.0351,4.9898,4.9102,4.6108,4.3381,4.0778,0.0,0.0,0.0,0.0,0.0,0.0,0.0,1.0096,1.0744,1.1726,1.1529,1.1283,1.1293,1.0343,0.9808,1.0085,0.0,0.0,0.0,0.0,0.0,0.0,0.0,0.0,0.0,0.0,0.0,0.0,0.0,0.0,0.0,0.0,0.0,0.0,0.0,0.0,0.0,0.0,0.0,0.0,0.0,2.4238,2.4648,0.0,0.0,0.0,0.0,0.0,0.0,0.0,0.0,0.0,0.0,0.0,0.0,0.0,0.0,4.0332,4.3086,4.4863,4.5664,4.4533,4.168,3.8319,3.5137,3.1343,2.7786,2.5375,2.4191,2.3848,2.4719,2.4738,2.5859,2.9648,3.0859,3.2559,3.6094,4.0019,4.3574,4.656,5.2129,5.6133,0.0,0.0,5.9004,0.0,0.0,0.0,5.6667,5.6145,5.5521,5.4733,5.4394,5.4023,5.3599,5.3144,5.2988,5.31,5.2558,5.2388,5.2486,5.1894,0.0,0.0,0.0,0.0,0.0,5.1089,5.0894,5.0594,4.8391,4.6175,4.3907,4.1155,3.8338,3.5759,0.0,0.0,0.0,0.0,0.0,0.0,0.0,0.9409,0.9789,1.0778,1.0731,1.0626,1.0656,0.998,0.9609,0.9866,0.0,0.0,0.0,0.0,0.0,0.0,0.0,0.0,0.0,0.0,0.0,0.0,0.0,0.0,0.0,0.0,0.0,0.0,0.0,0.0,0.0,0.0,0.0,0.0,2.3683,2.3836,2.3897,0.0,0.0,0.0,0.0,0.0,0.0,0.0,0.0,0.0,0.0,0.0,0.0,0.0,0.0,0.0,3.9259,4.1406,4.2246,4.1191,3.8553,3.5564,3.3141,2.978,2.6763,2.5168,2.4141,2.3797,2.468,2.4727,2.5703,2.8906,3.0312,3.2051,3.498,3.9277,4.3437,4.697,5.3086,0.0,0.0,5.8262,0.0,0.0,0.0,0.0,5.6648,5.6145,5.5521,5.4733,5.4414,5.3984,5.341,5.293,5.2715,5.2695,5.2109,5.1914,5.2095,5.1616,0.0,0.0,0.0,0.0,0.0,5.0742,5.0469,5.0126,4.8252,4.5652,4.2695,4.0098,3.7328,3.4734,0.0,0.0,0.0,0.0,0.0,0.0,0.0,0.0,0.0,0.9975,1.0322,1.0391,1.0098,0.9537,0.9171,0.9171,0.0,0.0,0.0,0.0,0.0,0.0,0.0,0.0,0.0,0.0,0.0,2.0556,2.0576,2.1769,2.4012,0.0,0.0,0.0,0.0,0.0,0.0,0.0,0.0,0.0,2.3296,2.3318,0.0,0.0,0.0,0.0,0.0,0.0,0.0,0.0,0.0,0.0,0.0,0.0,0.0,0.0,0.0,0.0,0.0,3.8478,3.9786,3.9708,3.7266,3.4352,3.2257,2.8973,0.0,2.4676,2.3716,2.3443,2.441,2.4836,2.5551,2.7077,2.9023,3.1538,3.4961,3.8711,0.0,0.0,5.1704,0.0,5.4115,0.0,0.0,0.0,0.0,0.0,5.6562,5.6067,5.5442,5.4668,5.4635,5.4205,5.3345,5.2851,5.2617,5.2617,5.1792,5.1616,5.2056,5.1597,0.0,0.0,0.0,0.0,0.0,5.0312,4.9902,4.9461,4.9051,4.7202,4.44,4.1644,3.9099,3.6687,0.0,0.0,0.0,0.0,0.0,0.0,0.0,0.0,0.0,0.0,0.9639,0.9592,0.9774,0.9252,0.8898,0.0,0.0,0.0,0.0,0.0,0.0,0.0,0.0,0.0,0.0,0.0,0.0,2.0049,2.041,2.1769,2.4033,2.5562,0.0,0.0,0.0,0.0,0.0,0.0,0.0,0.0,2.1809,2.128,0.0,0.0,0.0,0.0,2.0826,2.1098,0.0,0.0,0.0,0.0,0.0,0.0,0.0,0.0,2.6784,0.0,0.0,0.0,3.291,3.1879,3.0786,0.0,0.0,0.0,0.0,0.0,0.0,2.4188,2.6042,2.5379,2.5847,0.0,0.0,3.2691,3.5471,4.2266,0.0,5.2182,5.5703,5.7207,5.5618,0.0,0.0,0.0,0.0,5.6543,5.6087,5.5371,5.4726,5.4173,5.3873,5.3443,5.2871,5.2085,5.1714,5.1694,5.1499,5.146,5.1558,5.146,0.0,0.0,0.0,0.0,5.0317,4.9863,4.9605,4.9075,4.4804,4.271,4.1548,3.6913,3.4845,3.4225,0.0,0.0,0.0,0.0,0.0,0.0,0.0,0.0,0.0,0.0,0.0,0.0,0.0,0.0,0.0,0.0,0.0,0.0,0.0,0.0,0.0,0.0,0.0,0.0,0.0,0.0,0.0,0.0,0.0,2.2332,0.0,0.0,0.0,0.0,0.0,0.0,0.0,0.0,0.0,2.1049,2.1241,0.0,0.0,0.0,0.0,0.0,1.9167,1.9064,0.0,1.8988,1.9775,2.0986,0.0,0.0,0.0,0.0,2.5886,2.6459,2.6706,2.834,2.9805,2.9088,0.0,0.0,0.0,0.0,0.0,0.0,0.0,2.4199,2.5554,2.5691,0.0,0.0,3.1753,0.0,0.0,0.0,4.9867,5.4076,5.6269,5.7324,0.0,0.0,0.0,0.0,0.0,5.5911,5.5072,5.4824,5.4297,5.3432,5.3183,5.2876,5.2422,5.1953,5.1597,5.1401,5.1206,5.1128,5.1109,5.0937,5.0723,0.0,0.0,0.0,4.9844,4.9414,4.8504,4.7141,4.411,4.15,3.9059,3.6214,3.4422,3.3414,0.0,0.0,0.0,0.0,0.0,0.0,0.0,0.0,0.0,0.0,0.0,0.0,0.0,0.0,0.0,0.0,0.0,0.0,0.0,0.0,0.0,0.0,0.0,0.0,0.0,0.0,0.0,0.0,0.0,0.0,0.0,0.0,2.6017,0.0,0.0,0.0,0.0,0.0,0.0,2.0538,2.0691,0.0,0.0,0.0,0.0,0.0,0.0,0.0,0.0,1.7569,1.7848,1.8329,2.0689,0.0,0.0,0.0,0.0,0.0,2.5952,2.7526,2.899,2.8541,0.0,0.0,0.0,0.0,0.0,0.0,0.0,0.0,0.0,2.6075,0.0,0.0,0.0,0.0,4.4414,4.7171,5.016,5.4668,5.5566,0.0,0.0,0.0,0.0,0.0,0.0,5.5208,5.4076,5.4316,5.3932,5.2656,5.2539,5.2305,5.1919,5.1919,5.1699,5.1304,5.0898,5.0703,5.0703,5.0356,5.016,0.0,0.0,0.0,4.9371,4.9046,4.7353,4.4961,4.4565,4.15,3.7257,3.6854,3.5302,3.3414,0.0,0.0,0.0,0.0,0.0,0.0,0.0,0.0,0.0,0.0,0.0,0.0,0.0,0.0,0.0,0.0,0.0,0.0,0.0,0.0,0.0,0.0,0.0,0.0,0.0,0.0,0.0,0.0,0.0,0.0,2.5664,2.8269,2.8028,0.0,0.0,0.0,0.0,0.0,0.0,1.9595,1.8633,0.0,0.0,0.0,0.0,0.0,0.0,0.0,0.0,1.6954,1.7978,1.9518,2.083,0.0,0.0,0.0,0.0,0.0,2.7083,2.8666,2.9394,0.0,0.0,0.0,0.0,0.0,0.0,0.0,0.0,0.0,0.0,2.7191,2.8933,0.0,0.0,4.2383,0.0,0.0,5.3072,5.4615,0.0,0.0,0.0,0.0,0.0,0.0,0.0,0.0,5.4037,5.3756,5.317,5.2207,5.1816,5.1401,5.0996,5.0996,5.0957,5.0898,5.0469,5.0297,5.0297,5.0238,4.998,0.0,0.0,4.9316,4.8991,4.8933,4.7353,4.4796,4.2625,3.9957,3.7036,3.482,3.375,3.3414,0.0,0.0,0.0,0.0,0.0,0.0,0.0,0.0,0.0,0.0,0.0,0.0,0.0,0.0,0.0,0.0,0.0,0.0,0.0,0.0,0.0,0.0,0.0,0.0,0.0,0.0,0.0,0.0,0.0,2.6562,2.8516,2.8441,2.6956,2.4266,0.0,0.0,0.0,0.0,0.0,1.9394,0.0,0.0,0.0,0.0,0.0,0.0,0.0,0.0,0.0,0.0,1.7562,1.8586,2.0245,0.0,0.0,0.0,0.0,0.0,2.6452,2.7363,2.8027,0.0,0.0,0.0,0.0,0.0,0.0,0.0,0.0,0.0,0.0,0.0,3.3492,3.9648,0.0,4.5723,4.9883,5.1176,0.0,0.0,0.0,0.0,0.0,0.0,0.0,0.0,0.0,0.0,5.3027,0.0,5.231,5.1426,5.1191,5.0898,5.0469,5.0234,5.0234,5.0469,5.0039,4.9824,4.9824,4.9594,4.9379,4.9183,0.0,4.9066,4.8913,4.8913,4.7353,4.4748,4.2195,3.9593,3.6962,3.4361,3.3414,3.3414,0.0,0.0,0.0,0.0,0.0,0.0,0.0,0.0,0.0,0.0,0.0,0.0,0.0,0.0,0.0,0.0,0.0,0.0,0.0,0.0,0.0,0.0,0.0,0.0,0.0,0.0,2.2423,2.5227,2.7031,2.8945,3.0854,2.8535,2.6035,0.0,0.0,0.0,0.0,0.0,0.0,1.8971,0.0,0.0,0.0,0.0,0.0,0.0,0.0,0.0,0.0,0.0,0.0,0.0,0.0,0.0,0.0,2.4155,2.5171,2.5745,2.594,2.655,2.7415,0.0,0.0,0.0,0.0,0.0,0.0,0.0,0.0,0.0,0.0,3.3038,0.0,4.4689,4.6973,0.0,0.0,0.0,0.0,0.0,0.0,0.0,0.0,0.0,0.0,0.0,0.0,0.0,0.0,0.0,5.1543,5.0683,5.0547,5.0351,5.0039,4.959,4.959,5.0019,4.959,4.9375,4.9355,4.9046,4.8913,4.8913,4.8913,4.8913,4.8913,4.8913,4.7353,4.4748,4.2195,3.9229,3.6139,3.4136,3.3374,3.3307,0.0,0.0,0.0,0.0,0.0,0.0,0.0,0.0,0.0,0.0,0.0,0.0,0.0,0.0,0.0,0.0,0.0,0.0,0.0,0.0,0.0,0.0,0.0,0.0,0.0,2.1494,2.3446,2.5659,2.8984,3.0718,3.0874,2.942,2.7175,2.4305,0.0,0.0,0.0,0.0,0.0,1.7719,1.6457,0.0,0.0,0.0,0.0,0.0,0.0,0.0,0.0,0.0,0.0,0.0,0.0,0.0,2.1836,2.4745,2.5647,2.5881,2.6687,2.8105,2.9193,2.8529,0.0,0.0,0.0,0.0,0.0,0.0,0.0,0.0,0.0,3.7331,4.2246,4.5217,4.873,5.2124,0.0,0.0,0.0,0.0,0.0,0.0,0.0,0.0,0.0,0.0,0.0,0.0,0.0,0.0,0.0,5.0278,4.9801,4.9586,4.9547,4.9164,4.9164,4.9547,4.9144,4.8929,4.8952,4.8913,4.8913,4.8913,4.8913,4.8913,4.8913,4.8913,4.7353,4.4748,4.2195,3.8124,3.365,3.3464,3.324,3.3038,0.0,0.0,0.0,0.0,0.0,0.0,0.0,0.0,0.0,0.0,0.0,0.0,0.0,0.0,0.0,0.0,0.0,0.0,0.0,0.0,0.0,0.0,0.0,1.89,1.9874,2.3203,2.6355,2.9308,3.1699,3.2066,3.043,2.8881,0.0,0.0,0.0,0.0,0.0,0.0,0.0,1.7579,1.6315,1.5808,0.0,0.0,0.0,0.0,0.0,0.0,0.0,0.0,1.686,1.8206,1.9685,2.1334,2.3032,2.4467,2.5289,2.5718,2.5813,2.7663,2.9283,2.7902,0.0,0.0,0.0,0.0,0.0,0.0,0.0,0.0,0.0,0.0,4.592,4.7425,5.0942,0.0,0.0,0.0,0.0,0.0,0.0,0.0,0.0,0.0,0.0,0.0,0.0,0.0,0.0,0.0,0.0,4.9785,4.9336,4.9125,4.9125,4.8991,4.8991,4.9125,4.8968,4.8913,4.8913,4.8913,4.8913,4.8913,4.8913,4.8913,4.8913,4.8913,4.7353,4.4589,4.0416,3.6559,3.3414,3.3414,3.3227,3.2998,0.0,0.0,0.0,0.0,0.0,0.0,0.0,0.0,0.0,0.0,0.0,0.0,0.0,0.0,0.0,0.0,0.0,0.0,0.0,0.0,0.0,0.0,0.0,1.8909,2.1083,2.4855,2.8158,3.0898,3.3043,3.2613,2.9766,0.0,0.0,0.0,0.0,0.0,0.0,0.0,0.0,0.0,1.615,1.5808,0.0,0.0,0.0,0.0,0.0,0.0,0.0,0.0,1.7033,1.8577,1.9693,2.1567,2.3548,2.4513,2.5347,2.5828,2.5391,2.6907,2.8292,0.0,0.0,0.0,0.0,0.0,0.0,0.0,0.0,0.0,0.0,0.0,0.0,0.0,0.0,0.0,0.0,0.0,0.0,0.0,0.0,0.0,0.0,0.0,0.0,0.0,0.0,0.0,0.0,0.0,0.0,0.0,4.9046,4.8913,4.8913,4.8913,4.8913,4.8913,4.8913,4.8913,4.8913,4.8913,4.8913,4.8913,4.8913,4.8913,4.8913,4.8913,4.6892,4.3434,3.9908,3.6435,3.35,3.4226,3.3808,3.285,0.0,0.0,0.0,0.0,0.0,0.0,0.0,0.0,0.0,0.0,0.0,0.0,0.0,0.0,0.0,0.0,0.0,0.0,0.0,0.0,0.0,0.0,0.0,1.973,2.3661,2.6333,2.8308,2.9618,3.2609,3.2281,2.8853,2.7585,0.0,0.0,0.0,0.0,0.0,0.0,0.0,0.0,1.5808,1.5808,0.0,0.0,0.0,0.0,0.0,0.0,0.0,0.0,1.6934,1.8118,2.0459,2.185,2.3035,2.5095,2.6042,2.6289,2.5815,2.605,2.6346,0.0,0.0,0.0,0.0,0.0,0.0,0.0,0.0,0.0,0.0,0.0,0.0,0.0,0.0,0.0,0.0,0.0,0.0,0.0,0.0,0.0,0.0,0.0,0.0,0.0,0.0,0.0,0.0,0.0,0.0,0.0,4.8913,4.8913,4.8913,4.8913,4.8913,4.8913,4.8913,4.8913,4.8913,4.8913,4.8913,4.8913,4.8913,4.8913,4.8913,4.8848,4.5802,4.1187,4.1163,3.7977,3.3685,3.6036,3.5075,3.2554,0.0,0.0,0.0,0.0,0.0,0.0,0.0,0.0,0.0,0.0,0.0,0.0,0.0,0.0,0.0,0.0,0.0,0.0,0.0,0.0,0.0,0.0,0.0,0.0,0.0,0.0,2.7376,3.1436,3.1382,2.9902,0.0,0.0,0.0,2.3618,0.0,0.0,0.0,0.0,0.0,0.0,1.5888,1.5808,0.0,0.0,0.0,0.0,0.0,0.0,0.0,0.0,0.0,0.0,2.0204,2.2422,2.4864,2.5178,2.5813,2.6152,2.5086,2.6267,0.0,2.6917,0.0,0.0,0.0,0.0,0.0,0.0,0.0,0.0,0.0,0.0,0.0,0.0,0.0,0.0,0.0,0.0,0.0,0.0,0.0,0.0,0.0,0.0,0.0,0.0,0.0,0.0,0.0,0.0,0.0,0.0,4.8913,4.8913,4.8913,4.8913,4.8913,4.8913,4.8913,4.8913,4.8913,4.8913,4.8913,4.8913,4.8913,4.8913,4.8617,4.4984,4.2577,4.0962,3.8817,3.6098,3.3633,3.5667,3.4792,3.2554,0.0,0.0,0.0,0.0,0.0,0.0,0.0,0.0,0.0,0.0,0.0,0.0,0.0,0.0,0.0,0.0,0.0,0.0,0.0,0.0,0.0,0.0,0.0,0.0,0.0,2.3867,2.6641,0.0,0.0,0.0,0.0,0.0,0.0,2.4586,0.0,2.2064,0.0,0.0,1.6713,1.6297,1.6206,1.61,1.5993,0.0,0.0,0.0,0.0,0.0,0.0,0.0,0.0,0.0,0.0,0.0,2.5515,2.5774,2.5872,2.5969,2.636,2.6896,0.0,2.8246,3.1826,3.6247,0.0,0.0,0.0,0.0,0.0,0.0,0.0,0.0,0.0,0.0,0.0,0.0,0.0,0.0,0.0,0.0,0.0,0.0,0.0,0.0,0.0,0.0,0.0,0.0,0.0,0.0,0.0,0.0,4.8714,4.8617,4.8617,4.8617,4.8538,4.8405,4.8538,4.8538,4.8405,4.8737,4.8815,4.8617,4.8617,4.8617,4.823,4.3107,4.0914,4.0574,3.8719,3.5978,3.3444,3.6438,3.5368,3.2356,0.0,0.0,0.0,0.0,0.0,0.0,0.0,0.0,0.0,0.0,0.0,0.0,0.0,0.0,0.0,0.0,0.0,0.0,0.0,0.0,0.0,0.0,0.0,0.0,0.0,0.0,0.0,0.0,0.0,0.0,0.0,0.0,2.7396,2.6884,0.0,2.4199,0.0,1.9597,1.7419,1.6364,1.6607,1.654,1.6337,1.6337,0.0,0.0,0.0,0.0,0.0,0.0,0.0,0.0,2.256,2.4123,2.5383,2.653,2.6152,2.5942,2.8777,2.7733,0.0,3.0253,3.259,0.0,4.2192,4.7066,5.0414,0.0,0.0,0.0,0.0,0.0,0.0,0.0,0.0,0.0,0.0,0.0,0.0,0.0,0.0,0.0,0.0,0.0,0.0,0.0,0.0,0.0,0.0,0.0,0.0,4.8796,4.8382,4.8144,4.8144,4.8144,4.7949,0.0,4.7969,4.7949,4.764,4.8402,4.8538,4.8144,4.8144,4.8144,4.7761,4.2965,4.063,4.0136,4.0314,3.7194,3.3173,3.7828,3.6398,3.2064,0.0,0.0,0.0,0.0,0.0,0.0,0.0,0.0,0.0,0.0,0.0,0.0,0.0,0.0,0.0,0.0,0.0,0.0,0.0,0.0,0.0,0.0,0.0,0.0,0.0,0.0,0.0,0.0,0.0,0.0,0.0,0.0,0.0,2.6519,0.0,2.501,2.2534,2.001,1.8038,1.662,1.6687,1.6673,1.6607,1.6607,1.6485,0.0,0.0,0.0,0.0,0.0,0.0,0.0,2.2191,2.4049,2.562,2.5913,2.6543,2.7428,2.8711,2.8033,0.0,0.0,4.037,4.46,4.7484,4.9184,5.0137,4.9937,0.0,0.0,0.0,0.0,0.0,0.0,0.0,0.0,0.0,0.0,0.0,0.0,0.0,0.0,0.0,0.0,0.0,0.0,0.0,0.0,0.0,0.0,0.0,4.7874,4.7796,4.7737,4.7737,4.7737,4.7698,0.0,4.7698,4.7679,4.76,4.7796,4.7835,4.7737,4.7737,4.7737,4.747,4.4352,4.1884,4.0267,4.185,3.8416,3.3121,3.7513,3.6154,3.2064,0.0,0.0,0.0,0.0,0.0,0.0,0.0,0.0,0.0,0.0,0.0,0.0,0.0,0.0,0.0,0.0,0.0,0.0,0.0,0.0,0.0,0.0,0.0,0.0,0.0,0.0,0.0,0.0,0.0,0.0,0.0,0.0,0.0,2.7006,0.0,2.5206,2.2753,2.0152,1.8142,1.6727,1.7007,1.706,1.6939,1.6939,0.0,0.0,0.0,0.0,0.0,0.0,0.0,0.0,0.0,0.0,2.5784,2.6206,2.6387,2.7037,2.976,2.8891,0.0,3.7035,0.0,4.6568,4.873,4.9551,4.9805,4.9547,5.0523,0.0,0.0,0.0,0.0,0.0,0.0,0.0,0.0,0.0,0.0,0.0,0.0,0.0,0.0,0.0,0.0,0.0,0.0,0.0,0.0,4.7835,4.76,4.76,4.721,4.6973,4.6973,4.6973,4.6897,4.6682,4.6897,4.6877,4.6702,4.709,4.7383,4.76,4.7363,4.7266,4.7087,4.456,4.2622,4.1401,4.2454,3.9188,3.4316,3.7724,3.5987,3.1901,0.0,0.0,0.0,0.0,0.0,0.0,0.0,0.0,0.0,0.0,0.0,0.0,0.0,0.0,0.0,0.0,0.0,0.0,0.0,0.0,0.0,0.0,0.0,0.0,0.0,0.0,0.0,0.0,0.0,0.0,0.0,0.0,0.0,2.7759,0.0,0.0,2.3164,2.0245,1.8158,1.6834,1.7381,1.7461,1.726,0.0,0.0,0.0,0.0,0.0,0.0,0.0,0.0,0.0,0.0,0.0,2.5842,2.6557,2.5972,2.601,3.0229,3.034,3.0978,3.8162,4.2827,0.0,4.8412,4.9199,4.9488,4.941,5.0347,0.0,0.0,0.0,0.0,0.0,0.0,0.0,0.0,0.0,0.0,0.0,0.0,0.0,0.0,0.0,0.0,0.0,0.0,0.0,4.7969,4.7578,4.7346,4.7268,4.6562,4.6152,4.6074,4.6074,4.5898,4.5588,4.5918,4.5898,4.5607,4.6267,4.6836,4.7249,4.6797,4.6579,4.6425,4.442,4.311,4.2423,4.2863,4.0016,3.5968,3.8103,3.6267,3.262,0.0,0.0,0.0,0.0,0.0,0.0,0.0,0.0,0.0,0.0,0.0,0.0,0.0,0.0,0.0,0.0,0.0,0.0,0.0,0.0,0.0,0.0,0.0,0.0,0.0,0.0,0.0,0.0,0.0,0.0,0.0,0.0,0.0,2.8189,0.0,0.0,0.0,2.0546,1.8583,1.7153,1.7474,1.7568,0.0,0.0,0.0,0.0,0.0,0.0,0.0,0.0,0.0,0.0,0.0,0.0,2.5725,2.5842,2.5471,2.5478,2.756,3.2718,3.8269,0.0,4.5289,4.8459,0.0,0.0,4.9391,0.0,4.9711,5.0356,0.0,0.0,0.0,0.0,0.0,0.0,0.0,0.0,0.0,0.0,0.0,0.0,0.0,0.0,0.0,0.0,0.0,0.0,4.7067,4.6699,4.6308,4.5959,4.5842,4.5586,4.5174,4.5174,4.5154,4.5096,4.5154,4.5154,4.5096,4.5213,4.5508,4.592,4.5469,4.5252,4.5231,4.4911,4.3501,4.176,4.3851,4.1677,3.746,3.8129,3.7755,3.6355,0.0,0.0,0.0,0.0,0.0,0.0,0.0,0.0,0.0,0.0,0.0,0.0,0.0,0.0,0.0,0.0,0.0,0.0,0.0,0.0,0.0,0.0,0.0,0.0,0.0,0.0,0.0,0.0,0.0,0.0,0.0,2.7194,2.8288,0.0,0.0,0.0,0.0,0.0,0.0,0.0,0.0,0.0,0.0,0.0,0.0,0.0,0.0,0.0,0.0,0.0,0.0,0.0,2.3226,0.0,0.0,0.0,2.3472,2.4251,2.7782,3.3664,3.9371,4.1705,4.5021,4.791,4.8402,4.8851,4.9125,4.8952,4.9183,4.9535,0.0,0.0,0.0,0.0,0.0,0.0,0.0,0.0,0.0,0.0,0.0,0.0,0.0,0.0,0.0,0.0,0.0,4.656,4.656,4.6172,4.5666,4.5002,4.4728,4.4355,4.3945,4.416,4.4256,4.4256,4.4043,4.3926,4.3926,4.3926,4.4433,4.5312,4.5096,4.4998,4.4998,4.4998,4.4361,4.3509,4.4574,4.2867,3.9807,3.9963,3.9051,3.7247,0.0,0.0,0.0,0.0,0.0,0.0,0.0,0.0,0.0,0.0,0.0,0.0,0.0,0.0,0.0,0.0,0.0,0.0,0.0,0.0,0.0,0.0,0.0,0.0,0.0,0.0,0.0,0.0,0.0,0.0,2.6907,2.765,2.9193,0.0,2.6391,0.0,0.0,0.0,0.0,0.0,0.0,0.0,0.0,0.0,0.0,0.0,0.0,0.0,0.0,0.0,0.0,0.0,0.0,0.0,0.0,0.0,0.0,2.2974,2.735,3.2544,3.7503,4.053,4.3716,4.6365,0.0,0.0,4.86,0.0,4.8714,4.8812,4.9098,0.0,0.0,0.0,0.0,0.0,0.0,0.0,0.0,0.0,0.0,0.0,0.0,0.0,0.0,0.0,0.0,4.6094,4.5976,4.5586,4.5021,4.4258,4.3789,4.334,4.293,4.3223,4.3379,4.3379,4.3066,4.291,4.291,4.291,4.3437,4.4354,4.4452,4.451,4.4491,4.4393,4.4354,4.4354,4.4471,4.3416,4.1782,4.138,4.0018,3.8035,0.0,0.0,0.0,0.0,0.0,0.0,0.0,0.0,0.0,0.0,0.0,0.0,0.0,0.0,0.0,0.0,0.0,0.0,0.0,0.0,0.0,0.0,0.0,0.0,0.0,0.0,0.0,0.0,0.0,0.0,2.8203,2.8652,3.0845,3.4225,2.8566,2.4354,2.1339,0.0,0.0,0.0,0.0,1.7595,0.0,0.0,0.0,0.0,0.0,0.0,0.0,0.0,0.0,0.0,0.0,0.0,0.0,0.0,0.0,0.0,2.4591,2.8493,3.2993,3.8079,4.162,4.4316,0.0,0.0,4.7776,4.8164,4.8242,4.8242,4.8262,0.0,0.0,0.0,0.0,0.0,0.0,0.0,0.0,0.0,0.0,0.0,0.0,0.0,0.0,0.0,0.0,4.5549,4.5096,4.4687,4.4238,4.375,4.3341,4.2891,4.2441,4.246,4.248,4.248,4.246,4.2441,4.2441,4.2441,4.248,4.2558,4.3028,4.3204,4.3165,4.2714,4.2538,4.2577,4.3028,4.3103,4.2832,4.1296,4.0506,3.988,0.0,0.0,0.0,0.0,0.0,0.0,0.0,0.0,0.0,0.0,0.0,0.0,0.0,0.0,0.8771,1.0342,1.122,0.0,0.0,0.0,0.0,0.0,0.0,0.0,0.0,0.0,0.0,0.0,0.0,2.382,2.7103,2.8326,2.9776,3.1205,2.7429,2.5007,2.3519,1.959,0.0,0.0,1.7568,1.7689,0.0,0.0,0.0,0.0,0.0,0.0,0.0,0.0,0.0,0.0,0.0,0.0,0.0,0.0,0.0,2.1753,2.4285,2.7561,3.1282,3.5663,3.8809,4.1269,4.3008,4.5156,4.6797,4.6953,4.7422,4.7715,4.7419,4.7734,0.0,0.0,0.0,0.0,0.0,0.0,0.0,0.0,0.0,0.0,0.0,0.0,0.0,0.0,0.0,0.0,4.4198,4.4043,4.3496,4.2519,4.2344,4.2187,4.2031,4.1758,4.1758,4.2011,4.1758,4.1621,4.1621,4.1894,4.2011,4.2011,4.2187,4.2402,4.2656,4.248,4.2402,4.2421,4.2598,4.2832,4.3004,4.2107,4.2087,4.1913,0.0,0.0,0.0,0.0,0.0,0.0,0.0,0.0,0.0,0.0,0.0,0.0,0.0,0.0,0.0,1.1159,1.2195,1.3104,1.3884,1.5555,0.0,0.0,0.0,0.0,0.0,0.0,0.0,0.0,0.0,0.0,0.0,0.0,2.9012,2.9822,2.644,0.0,0.0,0.0,0.0,1.7661,0.0,0.0,1.8158,0.0,0.0,0.0,0.0,0.0,0.0,0.0,0.0,0.0,0.0,0.0,0.0,0.0,0.0,0.0,2.3095,0.0,0.0,3.3284,3.5469,3.7461,4.0644,4.2812,4.4433,4.5449,4.623,4.668,4.6543,4.6621,4.6777,0.0,0.0,0.0,0.0,0.0,0.0,0.0,0.0,0.0,0.0,0.0,0.0,0.0,0.0,0.0,4.33,4.3144,4.2617,4.1621,4.1602,4.1602,4.1602,4.1328,4.1328,4.1602,4.1328,4.1191,4.1211,4.1484,4.1602,4.1602,4.1602,4.1836,4.2187,4.205,4.2012,4.2011,4.2148,4.2402,4.2676,4.2656,4.25,4.1873,0.0,0.0,0.0,0.0,0.0,0.0,0.0,0.0,0.0,0.0,0.0,0.0,0.0,0.0,0.0,1.2156,1.3191,1.3945,1.4418,1.6641,0.0,0.0,0.0,0.0,0.0,0.0,0.0,0.0,0.0,0.0,0.0,0.0,2.8777,0.0,2.5909,2.4023,2.4217,0.0,2.0137,1.9464,0.0,1.9613,1.8481,0.0,0.0,0.0,2.2346,2.3266,0.0,0.0,0.0,0.0,0.0,0.0,0.0,0.0,0.0,0.0,0.0,0.0,0.0,0.0,0.0,3.2953,3.8868,3.9961,4.0625,4.3633,4.4588,4.5037,4.5529,4.5254,4.5076,4.5529,0.0,0.0,0.0,0.0,0.0,0.0,0.0,0.0,0.0,0.0,0.0,0.0,0.0,4.2871,4.2421,4.1992,4.1601,4.1211,4.1191,4.1191,4.1191,4.1191,4.1191,4.1191,4.1191,4.1191,4.1191,4.1191,4.1191,4.1191,4.1191,4.1426,4.1758,4.1367,4.1191,4.123,4.1621,4.1797,4.1894,4.2735,4.1622,3.9741,0.0,0.0,0.0,0.0,0.0,0.0,0.0,0.0,0.0,0.0,0.0,0.0,0.0,0.0,0.0,1.2843,1.3906,1.4847,1.5655,1.736,1.9025,2.0578,2.0561,2.0528,0.0,0.0,0.0,0.0,0.0,0.0,0.0,0.0,0.0,0.0,2.5482,2.4034,2.3565,1.9788,0.0,0.0,1.918,1.9709,0.0,0.0,0.0,0.0,0.0,2.6189,0.0,0.0,2.9222,2.734,0.0,0.0,0.0,0.0,0.0,0.0,2.0715,0.0,0.0,0.0,0.0,0.0,0.0,3.5156,3.7402,4.0078,4.1484,4.2579,4.3634,4.3712,4.3555,4.3359,4.4354,0.0,0.0,0.0,0.0,0.0,0.0,0.0,0.0,0.0,0.0,0.0,4.2577,4.2402,4.1992,4.1582,4.1308,4.1191,4.1191,4.1191,4.1191,4.1191,4.1191,4.1191,4.1191,4.1191,4.1191,4.1191,4.1191,4.1191,4.1191,4.1269,4.1367,4.125,4.1191,4.1211,4.1328,4.1523,4.1797,4.1738,4.1692,4.1427,0.0,0.0,0.0,0.0,0.0,0.0,0.0,0.0,0.0,0.0,0.0,0.0,0.0,0.0,0.0,0.0,1.4877,1.5967,1.7363,1.8653,2.0086,2.1667,2.0824,2.0253,2.0203,0.0,0.0,0.0,0.0,0.0,0.0,0.0,0.0,0.0,0.0,0.0,0.0,0.0,0.0,0.0,2.1317,0.0,0.0,2.4396,2.4797,0.0,0.0,0.0,2.9538,3.2524,3.0802,0.0,0.0,0.0,0.0,0.0,0.0,0.0,0.0,0.0,0.0,0.0,0.0,0.0,3.0972,3.2637,3.4394,0.0,3.9061,4.0156,4.1269,4.1934,4.2227,4.1953,4.3026,0.0,0.0,0.0,0.0,0.0,0.0,0.0,0.0,4.2012,4.1894,4.1894,4.1894,4.1797,4.1562,4.1328,4.1191,4.1191,4.1191,4.1191,4.1191,4.1191,4.1191,4.1191,4.1191,4.1191,4.1191,4.1191,4.1191,4.1191,4.1191,4.1191,4.1191,4.1191,4.1191,4.1191,4.1191,4.1348,4.1523,4.1484,4.1855,4.21,0.0,0.0,0.0,0.0,0.0,0.0,0.0,0.0,0.0,0.0,0.0,0.0,0.0,0.0,0.0,0.0,1.6083,1.7257,1.9197,2.0222,2.121,2.225,2.1136,2.0117,1.9309,1.8891,0.0,0.0,0.0,0.0,0.0,0.0,0.0,0.0,0.0,0.0,0.0,0.0,0.0,2.1221,2.4782,2.5334,0.0,0.0,2.9369,0.0,3.076,3.2432,3.3551,3.4674,3.1272,0.0,0.0,0.0,0.0,0.0,1.7622,0.0,0.0,0.0,0.0,0.0,0.0,0.0,3.0967,3.1289,3.1636,0.0,3.6621,3.7502,3.8516,3.9746,4.0585,4.0488,4.1367,4.2128,0.0,0.0,0.0,0.0,0.0,0.0,4.1738,4.1406,4.1191,4.1191,4.1191,4.1191,4.1191,4.1191,4.1191,4.1191,4.1191,4.1191,4.1191,4.1191,4.1191,4.1191,4.1191,4.1191,4.1191,4.1191,4.1191,4.1191,4.1191,4.1191,4.1191,4.1191,4.1191,4.1191,4.1191,4.1191,4.123,4.1601,4.1992,4.2101,0.0,0.0,0.0,0.0,0.0,0.0,0.0,0.0,0.0,0.0,0.0,0.0,0.0,0.0,0.0,0.0,0.0,1.8549,1.9918,2.1029,2.1471,2.1074,1.9845,1.8814,1.8064,1.7957,1.8452,0.0,0.0,0.0,0.0,0.0,0.0,0.0,0.0,0.0,0.0,0.0,0.0,2.4658,2.4048,0.0,2.8576,2.987,3.1063,3.2328,3.4279,3.5007,3.4812,0.0,3.1077,2.8071,0.0,0.0,0.0,0.0,0.0,0.0,0.0,0.0,0.0,0.0,0.0,0.0,2.6801,2.7975,2.9311,0.0,3.2148,3.3324,3.5234,3.6367,3.6779,3.6074,3.8144,4.043,4.2167,0.0,0.0,0.0,0.0,0.0,4.1348,4.125,4.1191,4.1191,4.1191,4.1191,4.1191,4.1191,4.1191,4.1191,4.1191,4.1191,4.1191,4.1191,4.1191,4.1191,4.1191,4.1191,4.1191,4.1191,4.1191,4.1191,4.1191,4.1191,4.1191,4.1191,4.1191,4.1191,4.1191,4.1191,4.1211,4.1289,4.1562,4.1913,0.0,0.0,0.0,0.0,0.0,0.0,0.0,0.0,0.0,0.0,0.0,0.0,0.0,0.0,0.0,0.0,0.0,0.0,0.0,2.1874,2.1844,2.1021,1.9809,1.8692,1.7719,1.7696,1.8284,0.0,0.0,0.0,0.0,0.0,0.0,0.0,0.0,0.0,0.0,0.0,2.0409,2.4355,2.6664,0.0,3.1717,3.3445,3.4718,3.5713,3.6585,3.751,3.7915,3.5104,3.2313,0.0,0.0,2.2419,1.987,0.0,1.8705,1.8822,0.0,0.0,0.0,2.2452,0.0,0.0,0.0,2.6855,2.8086,2.9584,3.0059,3.0669,3.2168,3.3184,3.3832,3.4007,3.6038,3.8126,3.963,4.0976,0.0,0.0,0.0,0.0,4.1211,4.1191,4.1191,4.1191,4.1191,4.1191,4.1191,4.1191,4.1191,4.1191,4.1191,4.1191,4.1191,4.1191,4.1191,4.1191,4.1191,4.1191,4.1191,4.1191,4.1191,4.1191,4.1191,4.1191,4.1191,4.1191,4.1191,4.1191,4.1191,4.1191,4.1191,4.1191,4.1562,4.2128,0.0,0.0,0.0,0.0,0.0,0.0,0.0,0.0,0.0,0.0,0.0,0.0,0.0,0.0,0.0,0.0,0.0,0.0,0.0,0.0,2.2326,2.1077,2.0121,1.8933,1.746,1.7612,1.8284,1.9508,0.0,0.0,0.0,0.0,0.0,0.0,0.0,0.0,0.0,0.0,0.0,2.4432,0.0,3.255,3.2978,3.6378,3.76,3.7567,3.8283,3.9669,4.0607,3.672,0.0,3.034,2.6761,2.3571,0.0,0.0,0.0,0.0,0.0,0.0,0.0,0.0,0.0,2.4158,0.0,0.0,0.0,2.8553,2.8613,0.0,0.0,0.0,0.0,0.0,0.0,0.0,0.0,3.826,0.0,0.0,0.0,0.0,0.0,4.0546,4.0585,4.0918,4.0703,4.0722,4.1054,4.1152,4.1191,4.1191,4.1191,4.1191,4.1191,4.1191,4.1191,4.1191,4.1191,4.1191,4.1191,4.1191,4.1191,4.1191,4.1191,4.1191,4.1191,4.1191,4.1191,4.1191,4.1191,4.1191,4.1191,4.1191,4.1699,4.2402,0.0,0.0,0.0,0.0,0.0,0.0,0.0,0.0,0.0,0.0,0.0,0.0,0.0,0.0,0.0,0.0,0.0,0.0,2.6922,0.0,0.0,2.0185,2.004,1.8918,1.6511,1.7271,1.8284,1.9508,0.0,0.0,0.0,0.0,0.0,0.0,2.0418,0.0,0.0,0.0,2.4309,0.0,3.2565,3.2213,0.0,3.5024,3.6473,3.6368,3.9644,4.0997,4.0395,0.0,3.263,3.0806,0.0,2.2764,0.0,0.0,0.0,0.0,0.0,0.0,0.0,0.0,2.2472,0.0,0.0,0.0,2.5845,2.6086,0.0,0.0,0.0,0.0,0.0,0.0,0.0,0.0,3.1211,3.3555,3.5996,0.0,0.0,0.0,0.0,3.8202,3.8379,3.9922,3.8965,3.8946,4.0489,4.0957,4.1191,4.1191,4.1191,4.1191,4.1191,4.1191,4.1191,4.1191,4.1191,4.1191,4.1191,4.1191,4.1191,4.1191,4.1191,4.1191,4.1191,4.1191,4.1191,4.1191,4.1191,4.1191,4.1191,4.1191,4.1699,4.2402,0.0,0.0,0.0,0.0,0.0,0.0,0.0,0.0,0.0,0.0,0.0,0.0,0.0,0.0,0.0,0.0,0.0,2.6768,0.0,0.0,0.0,2.0455,2.0176,1.8906,1.6358,1.7904,1.8982,1.9508,2.1402,0.0,0.0,0.0,0.0,0.0,2.1843,0.0,2.2108,0.0,2.5534,0.0,0.0,0.0,0.0,3.664,3.9137,3.9089,4.0647,4.1191,4.0492,0.0,3.3277,0.0,0.0,0.0,0.0,0.0,0.0,0.0,0.0,0.0,0.0,0.0,0.0,0.0,2.3264,0.0,2.4801,0.0,0.0,0.0,0.0,0.0,0.0,0.0,2.8691,0.0,0.0,0.0,3.3008,0.0,0.0,0.0,0.0,0.0,0.0,0.0,3.7951,3.8224,3.8946,3.9668,4.0156,4.0449,4.0664,4.0801,4.0801,4.1074,4.1191,4.1191,4.1191,4.1191,4.1191,4.1191,4.1191,4.1191,4.1191,4.1191,4.1191,4.1191,4.1191,4.1191,4.1191,4.1191,4.1191,4.1191,4.1699,4.2402,0.0,0.0,0.0,0.0,0.0,0.0,0.0,0.0,0.0,0.0,0.0,0.0,2.3519,2.5205,0.0,0.0,0.0,3.022,0.0,0.0,2.5704,2.2133,2.0958,0.0,0.0,1.9178,1.9979,2.0348,2.2442,0.0,0.0,0.0,0.0,0.0,0.0,2.3867,2.3891,0.0,0.0,2.9267,3.1955,3.2644,3.2609,3.7751,4.0318,4.1191,4.1191,4.1191,4.0647,3.69,3.4185,0.0,2.8989,0.0,0.0,0.0,0.0,0.0,2.0405,0.0,0.0,0.0,0.0,0.0,0.0,0.0,0.0,0.0,0.0,0.0,0.0,0.0,0.0,0.0,0.0,0.0,0.0,0.0,0.0,0.0,0.0,0.0,0.0,0.0,0.0,0.0,0.0,3.6818,3.7521,3.838,3.9121,3.9687,4.0117,4.0332,4.0332,4.0781,4.1015,4.1015,4.1133,4.1191,4.1191,4.1191,4.1191,4.1191,4.1191,4.1191,4.1191,4.1191,4.1191,4.1191,4.1191,4.1191,4.1191,4.1191,4.1699,4.2402,0.0,1.251,0.0,0.0,0.0,0.0,0.0,0.0,0.0,0.0,0.0,0.0,0.0,0.0,0.0,0.0,0.0,3.498,3.4492,0.0,2.8273,0.0,0.0,2.1508,0.0,0.0,2.1195,2.2498,2.3755,0.0,0.0,0.0,0.0,0.0,0.0,2.5679,2.6075,2.8806,3.2293,3.6035,3.6821,3.8597,4.0433,0.0,3.8084,4.1191,4.1191,0.0,0.0,3.7611,3.5088,0.0,0.0,0.0,0.0,0.0,0.0,0.0,0.0,0.0,0.0,2.0137,0.0,0.0,0.0,0.0,2.6501,0.0,0.0,0.0,0.0,0.0,0.0,0.0,0.0,0.0,0.0,0.0,0.0,0.0,0.0,0.0,0.0,0.0,0.0,0.0,0.0,0.0,3.6599,3.75,3.8341,3.9199,3.9668,3.9922,3.9922,4.0313,4.0528,4.0528,4.0976,4.1191,4.1191,4.1191,4.1191,4.1191,4.1191,4.1191,4.1191,4.1191,4.1191,4.1191,4.1191,4.1191,4.1191,4.1191,4.1699,4.2402,0.0,0.0,0.0,0.0,0.0,0.0,0.0,1.7221,0.0,0.0,0.0,0.0,0.0,0.0,3.6709,0.0,0.0,3.8105,3.6523,3.4,0.0,0.0,0.0,2.4407,0.0,0.0,0.0,0.0,0.0,0.0,0.0,0.0,0.0,0.0,0.0,2.7721,0.0,0.0,0.0,0.0,0.0,3.8691,4.0626,0.0,0.0,4.1191,4.1191,4.1191,0.0,3.666,3.4432,3.2636,2.8845,2.6369,2.4818,2.4306,2.4324,0.0,0.0,0.0,2.4815,2.186,0.0,0.0,0.0,0.0,0.0,0.0,0.0,0.0,0.0,0.0,0.0,0.0,0.0,0.0,0.0,0.0,0.0,0.0,0.0,0.0,0.0,0.0,0.0,0.0,3.146,0.0,0.0,3.5725,3.6916,3.7537,3.9081,3.9746,3.9434,4.0137,4.0371,4.0117,4.0547,4.0742,4.0762,4.1054,4.1191,4.1191,4.1191,4.1191,4.1191,4.1191,4.1191,4.1191,4.1191,4.1191,4.1191,4.1191,4.1699,4.2538,1.378,0.0,0.0,0.0,0.0,0.0,0.0,0.0,0.0,0.0,2.6591,0.0,3.568,0.0,4.0464,0.0,4.2637,4.1269,3.8184,3.6973,0.0,3.2098,2.972,0.0,0.0,0.0,0.0,0.0,0.0,2.5164,2.4859,2.4859,0.0,0.0,0.0,2.9468,3.0934,3.4826,3.6855,0.0,0.0,3.9648,0.0,0.0,4.1094,4.0957,0.0,4.1191,4.0665,3.706,3.4927,3.3195,2.9717,2.7202,2.5504,2.5197,2.505,2.485,2.4249,2.505,0.0,2.3211,2.3864,0.0,2.3834,0.0,0.0,0.0,0.0,0.0,0.0,0.0,0.0,0.0,0.0,0.0,0.0,2.3867,0.0,0.0,0.0,0.0,0.0,0.0,2.9252,2.9149,2.9662,0.0,0.0,0.0,3.5491,3.6423,3.8223,3.9121,3.9003,3.9687,3.9922,3.9668,4.0215,4.0508,4.0528,4.0996,4.1191,4.1191,4.1191,4.1191,4.1191,4.1191,4.1191,4.1191,4.1191,4.1191,4.1191,4.1191,4.1699,4.2597,0.0,0.0,0.0,0.0,1.5086,0.0,0.0,0.0,2.2355,0.0,2.869,3.2296,3.8364,4.062,4.2448,4.4424,4.5683,0.0,3.9824,4.0215,0.0,0.0,3.3091,3.2338,3.2441,0.0,0.0,0.0,0.0,0.0,2.5764,2.5725,2.5706,0.0,2.8418,0.0,3.2969,3.6016,3.8807,4.123,4.1621,4.1543,4.1172,4.1191,4.0898,4.0567,4.1035,4.1191,4.0841,3.8508,3.6402,3.4241,3.165,2.921,2.7162,2.6292,2.6219,2.6186,2.5058,2.5165,2.5344,2.4187,0.0,0.0,0.0,0.0,3.3323,0.0,0.0,0.0,0.0,0.0,0.0,0.0,0.0,0.0,0.0,0.0,0.0,0.0,0.0,0.0,0.0,2.778,2.7741,2.8144,2.8164,2.8926,0.0,0.0,3.4124,3.5862,3.7228,3.8164,3.8631,3.9004,3.9219,3.9238,4.0079,4.0489,4.0528,4.0996,4.1191,4.1191,4.1191,4.1191,4.1191,4.1191,4.1191,4.1191,4.1191,4.1191,4.1191,4.123,4.1738,4.2597,1.481,1.503,1.5341,0.0,1.5766,1.6209,0.0,0.0,0.0,0.0,3.447,3.9452,4.2981,4.5525,4.7015,4.7201,4.7246,0.0,0.0,0.0,0.0,4.0332,3.7782,3.6257,3.5996,3.2471,0.0,2.9902,0.0,0.0,2.6654,2.5998,2.5706,2.5803,0.0,3.0634,3.2554,3.5879,3.8807,4.1211,4.1308,4.1074,0.0,0.0,4.0898,4.0567,4.1035,4.1191,4.0626,3.6802,3.5157,3.3994,2.9844,2.8104,2.7476,2.68,2.6834,2.6994,2.67,2.6874,2.6854,2.573,2.7173,2.8678,0.0,0.0,0.0,0.0,0.0,0.0,0.0,0.0,0.0,0.0,0.0,0.0,0.0,0.0,0.0,2.4344,0.0,0.0,2.5359,2.5618,2.593,2.6342,2.6362,0.0,0.0,0.0,0.0,3.4547,3.7088,3.8631,3.9043,3.9141,3.9375,3.9726,3.9941,4.0196,4.0528,4.0996,4.1191,4.1191,4.1191,4.1191,4.1191,4.1191,4.1191,4.1191,4.1191,4.1191,4.1269,4.1875,4.2226,4.2538,1.5173,0.0,0.0,1.7047,0.0,0.0,2.1176,0.0,0.0,3.2492,3.7621,0.0,4.47,4.7496,4.9062,4.8785,4.8402,0.0,0.0,0.0,0.0,4.2499,4.1328,4.0019,3.8476,3.5371,0.0,3.1172,0.0,0.0,2.6719,2.603,2.5706,2.5803,2.8223,3.0268,3.2164,3.6348,3.9101,4.0664,4.1035,0.0,0.0,4.1094,4.1035,4.084,4.1113,4.1191,4.0685,3.7259,3.5497,3.4071,3.0457,2.8565,2.7602,2.7148,2.7041,2.7068,2.7068,2.7188,2.7412,2.778,2.9386,3.0916,3.0949,3.342,3.5773,0.0,0.0,0.0,0.0,0.0,0.0,0.0,0.0,0.0,0.0,0.0,0.0,0.0,2.4402,0.0,2.4149,2.4719,2.5121,2.5132,2.5491,0.0,0.0,0.0,0.0,3.3492,3.6462,3.8319,3.8926,3.9316,3.9531,3.959,3.998,4.0274,4.0528,4.0996,4.1191,4.1191,4.1191,4.1191,4.1191,4.1191,4.1191,4.1211,4.1387,4.1465,4.1562,4.2402,4.2577,4.2558,1.5524,0.0,0.0,0.0,0.0,0.0,0.0,2.679,0.0,3.6689,0.0,4.2656,4.539,4.8024,4.9586,4.9586,0.0,4.805,4.5662,4.7266,4.6719,4.3144,4.4004,4.3281,4.0547,3.8162,0.0,0.0,0.0,0.0,2.6477,2.5932,2.5706,2.5784,2.7897,2.9966,0.0,3.6953,3.9316,3.998,4.0859,4.1191,4.1191,4.1191,4.1191,4.1191,4.1133,4.1152,4.086,3.8592,3.6412,3.4225,3.1971,2.9607,2.7589,2.7369,2.7054,2.682,2.69,2.7062,2.7691,2.9785,3.2209,3.4133,3.4313,3.6415,3.8322,3.8322,3.7365,3.6894,0.0,0.0,0.0,0.0,0.0,0.0,0.0,0.0,0.0,0.0,0.0,0.0,0.0,2.4562,2.4816,2.4363,0.0,0.0,0.0,0.0,0.0,3.2754,3.5625,0.0,3.8671,0.0,3.9687,3.9473,4.0157,4.0528,4.0606,4.0996,4.1191,4.1191,4.1191,4.1191,4.1191,4.1191,4.1191,4.123,4.1582,4.1758,4.1894,4.2715,4.2812,4.2734,0.0,0.0,0.0,0.0,0.0,2.7673,3.2797,3.4508,3.6648,4.0692,4.5443,4.8687,4.9234,4.9746,5.0082,5.0082,5.0023,0.0,0.0,0.0,0.0,4.6189,4.5703,4.4904,4.3633,4.0097,3.7107,0.0,0.0,0.0,0.0,0.0,2.5706,2.5784,2.7585,3.0547,3.4297,3.6641,0.0,3.998,4.0859,4.1191,4.1191,4.1191,4.1191,4.1152,4.0762,4.0859,4.0802,3.8259,3.6013,3.3836,3.1299,2.9048,2.7355,2.7302,2.7054,2.6914,2.7415,2.8439,2.9517,3.0146,3.3496,3.6601,3.6358,3.8556,4.0625,4.0625,3.9863,3.8769,3.7303,0.0,0.0,0.0,0.0,0.0,0.0,0.0,0.0,0.0,0.0,2.5586,0.0,0.0,0.0,0.0,0.0,0.0,0.0,0.0,0.0,0.0,3.5039,0.0,0.0,0.0,3.9843,4.0839,4.0625,4.0684,4.1074,4.1152,4.1191,4.1191,4.1191,4.1191,4.1191,4.1191,4.1191,4.1211,4.1269,4.1504,4.1855,4.2343,4.2949,4.3516,0.0,0.0,0.0,0.0,0.0,0.0,0.0,3.9779,0.0,4.3808,4.6415,4.8187,4.8187,4.957,5.0508,5.0508,5.0098,4.9668,4.9238,4.9007,4.8499,4.7595,4.6777,0.0,4.4725,4.1582,3.8456,3.5391,0.0,0.0,0.0,0.0,0.0,2.4745,2.6687,2.9475,0.0,0.0,0.0,3.9354,4.0664,4.1191,4.1172,4.0918,4.084,4.0781,4.0351,4.0332,4.0335,3.907,3.7225,3.5226,3.3962,3.1315,2.8653,2.8653,2.7772,2.6834,2.6987,2.8425,3.0159,3.1187,3.3906,3.6647,3.7802,3.9337,4.0566,4.0781,4.0703,3.9784,3.7183,3.3512,0.0,0.0,0.0,0.0,0.0,0.0,0.0,0.0,0.0,0.0,0.0,0.0,0.0,0.0,0.0,0.0,0.0,0.0,0.0,0.0,0.0,0.0,0.0,0.0,0.0,4.084,4.0859,4.0976,4.1191,4.1191,4.1191,4.1191,4.1191,4.1191,4.1191,4.1191,4.1191,4.1211,4.1426,4.1758,4.2148,4.2598,4.332,4.4062,0.0,2.2539,0.0,0.0,3.0452,0.0,3.8907,4.391,4.7148,4.6825,4.7129,4.7383,4.7383,4.9488,5.0937,5.0937,5.0289,4.984,4.9644,4.9359,4.8929,4.8359,4.7617,4.6618,4.5428,4.2988,3.9745,0.0,0.0,0.0,0.0,0.0,0.0,0.0,0.0,0.0,0.0,0.0,3.7479,3.8866,4.0527,4.1191,4.1152,4.0684,4.0567,4.0567,4.0078,3.9902,3.9883,3.9785,3.8311,3.652,3.652,3.3429,2.9798,2.9798,2.8327,2.6774,2.7075,2.8762,3.0911,3.2785,3.4779,3.6794,3.875,3.9551,4.0019,4.041,4.0723,4.0019,3.7088,3.4196,0.0,0.0,0.0,0.0,0.0,0.0,0.0,0.0,0.0,0.0,2.4781,0.0,0.0,0.0,0.0,0.0,0.0,0.0,0.0,0.0,0.0,3.4717,3.7674,0.0,4.082,0.0,4.1035,4.1191,4.1191,4.1191,4.1191,4.1191,4.1191,4.1191,4.1191,4.1191,4.1191,4.123,4.1562,4.1973,4.2441,4.2812,4.3575,4.4394,0.0,0.0,0.0,0.0,0.0,0.0,4.3173,4.7351,5.0362,5.0347,5.066,5.0933,5.0933,5.1167,5.1343,5.1343,5.1284,5.0913,5.018,5.0102,4.9711,4.8874,4.834,4.7653,4.6755,4.4569,4.1191,0.0,0.0,0.0,0.0,0.0,0.0,0.0,0.0,0.0,0.0,3.5533,3.7654,3.9258,4.0644,4.1191,4.1152,4.0684,4.0762,4.1015,4.0214,3.9902,3.9824,3.9414,3.7915,3.6238,3.6238,3.3104,2.9455,2.9455,2.802,2.6902,2.901,3.0895,3.2811,3.5095,3.7278,3.8918,3.9143,3.9551,4.0019,4.041,4.0235,3.9199,3.6545,3.6426,3.57,0.0,0.0,0.0,0.0,0.0,0.0,2.9755,0.0,0.0,0.0,2.3645,0.0,0.0,0.0,0.0,0.0,0.0,0.0,2.825,0.0,3.2629,3.4777,3.8261,0.0,4.1133,4.1172,4.1191,4.1191,4.1191,4.1191,4.1191,4.1191,4.1191,4.1191,4.1191,4.1191,4.1191,4.123,4.1719,4.2421,4.246,4.3301,4.4394,0.0,0.0,0.0,0.0,0.0,0.0,0.0,4.861,5.0898,5.1128,5.1304,5.1401,5.1401,5.1401,5.1401,5.1401,5.0976,5.0527,5.0219,4.9711,4.9265,4.8913,4.8226,4.7539,4.6911,4.5057,4.2168,0.0,0.0,0.0,0.0,0.0,0.0,0.0,0.0,3.0038,3.2946,3.6098,3.8281,3.9687,4.0469,4.0781,4.0703,4.0,3.9844,3.9921,3.9335,3.912,3.9139,3.918,3.8525,3.7629,3.7629,3.4704,3.1265,3.1265,2.9071,2.7126,2.9399,3.1563,3.3635,3.5615,3.7671,3.9277,3.9551,3.9766,4.0019,4.041,4.0195,3.957,3.8535,3.7326,3.6311,0.0,0.0,0.0,0.0,0.0,0.0,0.0,0.0,2.7539,0.0,0.0,0.0,0.0,0.0,0.0,0.0,0.0,0.0,2.7675,0.0,3.2993,3.4919,3.8763,4.0859,4.1191,4.1191,4.1191,4.1191,4.1191,4.1191,4.1191,4.1191,4.1191,4.1191,4.1191,4.1191,4.1191,4.1191,4.1523,4.207,4.2324,4.3065,4.4062,3.7258,0.0,3.9229,0.0,4.3842,4.5702,4.7884,4.9802,5.1069,5.1362,5.1401,5.1401,5.1401,5.1401,5.1401,5.1401,5.0781,5.0336,5.0219,4.9496,4.9027,4.8913,4.8304,0.0,4.7107,4.5586,4.3144,3.9785,3.6875,0.0,0.0,0.0,0.0,0.0,2.9269,3.1792,3.4246,3.7072,3.8926,3.9941,4.0332,4.043,4.0235,3.9492,3.9297,3.9355,3.8944,3.8768,3.8827,3.9101,3.8926,3.8612,3.8749,3.5884,3.2505,3.2505,3.0162,2.8046,3.0223,3.2446,3.4609,3.6453,3.7967,3.9101,3.9452,3.953,3.9629,4.002,4.0,3.9863,3.9726,3.8086,3.6953,3.7461,0.0,0.0,0.0,0.0,0.0,0.0,2.8613,2.7148,2.6186,2.5244,0.0,0.0,0.0,0.0,0.0,0.0,0.0,0.0,0.0,0.0,0.0,3.9127,4.1074,4.1191,4.1191,4.1191,4.1191,4.1191,4.1191,4.1191,4.1191,4.1191,4.1191,4.1191,4.1191,4.1191,4.1191,4.1523,4.2011,4.2304,4.2948,4.3828,4.2156,4.3707,4.5968,4.9465,5.0093,5.0386,5.1216,5.1377,5.1401,5.1401,5.1401,5.1401,5.1401,5.1401,5.1401,5.1401,5.1011,5.0625,5.0238,4.9766,4.9316,0.0,0.0,4.8483,4.762,4.633,4.42,4.1172,0.0,0.0,3.2703,0.0,2.9446,3.0786,3.2079,3.4369,3.7326,3.8633,3.9453,3.9941,4.0332,4.0254,3.9844,3.9375,3.9492,3.9824,3.9355,3.9199,3.9199,3.9199,3.8926,3.8671,3.9062,3.6102,3.2505,3.2505,3.1015,2.9817,3.1915,3.3943,3.5979,3.8044,3.8574,3.8612,3.8612,3.8612,3.8729,3.9141,3.957,3.9766,3.9297,3.8866,3.8162,3.6929,0.0,0.0,0.0,0.0,0.0,0.0,3.0161,2.9316,2.7194,2.6018,0.0,0.0,0.0,0.0,0.0,0.0,0.0,2.688,2.8731,0.0,3.5668,3.8897,4.0742,4.1191,4.1191,4.1191,4.1191,4.1191,4.1191,4.1191,4.1191,4.1191,4.1191,4.1191,4.1191,4.1191,4.1191,4.168,4.2402,4.2402,4.2948,4.3828,4.6302,4.7548,4.8887,5.0004,5.0644,5.1089,5.1362,5.1401,5.1401,5.1401,5.1401,5.1401,5.1401,5.1148,5.0972,0.0,5.0328,4.9859,0.0,4.9316,4.9027,4.8913,4.8323,4.7874,4.76,4.6035,4.4316,4.25,0.0,0.0,0.0,3.3079,3.3289,3.3349,3.5673,3.7591,3.9141,4.0136,4.0469,4.0293,4.0156,3.9824,3.9375,3.8964,3.8885,3.9003,3.8846,3.8788,3.8788,3.8788,3.871,3.8612,3.8749,3.6831,3.4545,3.4545,3.3114,3.204,3.4384,3.5477,3.6474,3.8505,3.9004,3.9004,3.9004,3.9004,3.9139,3.959,3.9551,3.9375,3.9238,3.8885,3.8358,3.7637,3.6914,0.0,0.0,0.0,0.0,0.0,2.9018,2.8099,0.0,2.7231,0.0,0.0,0.0,0.0,0.0,0.0,0.0,0.0,3.0645,0.0,3.6273,3.9414,4.1054,4.1191,4.1191,4.1191,4.1191,4.1191,4.1191,4.1191,4.1191,4.1191,4.1191,4.1191,4.1191,4.1191,4.1191,4.1523,4.2011,4.2304,4.2948,4.3828,4.8672,4.9375,5.0039,5.0351,5.084,5.1226,5.1382,5.1401,5.1401,5.1401,5.1401,5.1401,5.1401,5.103,0.0,5.0801,5.0176,4.9683,4.9508,4.9125,4.8913,4.8913,4.8206,4.7656,4.7344,0.0,0.0,4.3106,4.0469,3.777,3.5035,3.6089,3.6539,3.6557,3.8462,3.9707,4.0429,4.0781,4.0684,4.0235,3.9805,3.9375,3.8964,3.869,3.8592,3.8592,3.8592,3.8592,3.8592,3.8592,3.8592,3.8592,3.8592,3.7713,3.6516,3.5738,3.462,3.3959,3.5521,3.6494,3.7408,3.8651,3.8965,3.8965,3.8965,3.9219,3.9453,3.9433,3.9297,3.916,3.9004,3.8631,3.8184,3.7736,3.6621,3.541,3.4375,0.0,0.0,0.0,0.0,0.0,0.0,2.8672,0.0,0.0,0.0,0.0,0.0,0.0,0.0,2.8057,3.1772,0.0,3.829,4.0241,4.1191,4.1191,4.1191,4.1191,4.1191,4.1191,4.1191,4.1191,4.1191,4.1191,4.1191,4.1191,4.1191,4.1191,4.1191,4.1445,4.1855,4.2246,4.2948,4.3828,4.943,4.9547,0.0,0.0,5.082,0.0,5.1343,5.1401,5.1401,5.1401,5.1401,5.1401,5.1401,5.1069,5.082,5.0762,0.0,0.0,0.0,4.9125,4.8894,4.8855,4.8421,4.7754,4.6892,4.6035,4.4748,4.3008,4.0527,3.9336,3.9336,3.8964,3.9218,4.0,4.0371,4.0801,4.1172,4.0723,4.0313,3.9902,3.9473,3.9042,3.8631,3.8631,3.8612,3.8592,3.8592,3.8592,3.8592,3.8592,3.8592,3.8592,3.8592,3.8592,3.8226,3.6294,3.5719,3.5719,3.5719,3.7143,3.8592,3.8592,3.8592,3.8592,3.8592,3.9237,3.9589,3.8768,3.8905,3.9043,3.8671,3.8203,3.7716,3.7285,3.6113,3.4805,3.3461,0.0,0.0,0.0,0.0,0.0,0.0,3.0215,3.0762,0.0,0.0,0.0,0.0,0.0,2.4912,3.077,3.244,3.5789,4.1152,4.1191,4.1191,4.1191,4.1191,4.1191,4.1191,4.1191,4.1191,4.1191,4.1191,4.1191,4.1191,4.1191,4.1191,4.1191,4.1191,4.1445,4.1855,4.2246,4.2929,4.3789,0.0,0.0,5.0566,5.0762,5.105,5.1284,5.1382,5.1401,5.1401,5.1401,5.1401,5.1401,5.1401,5.1323,5.1011,5.0414,4.9941,4.9625,4.9508,4.9125,4.8734,4.8379,4.7972,4.7324,4.6465,4.5293,4.3848,4.2109,4.1191,4.0722,4.0722,4.0625,4.0683,4.0898,4.0996,4.1094,4.1191,4.1074,4.0762,4.0352,4.0235,3.9746,3.9062,3.9062,3.8866,3.8592,3.8592,3.8592,3.8592,3.8592,3.8592,3.8592,3.8592,3.8592,3.8501,3.8025,3.786,3.786,3.786,3.8226,3.8592,3.8592,3.8592,3.8592,3.8592,3.8749,3.8846,3.8631,3.8671,3.871,3.8612,3.7967,3.7187,3.6428,3.4944,3.3422,3.2133,3.1333,0.0,0.0,3.0547,3.0884,3.0884,3.1177,3.1465,0.0,0.0,0.0,0.0,2.8469,3.0094,3.3423,3.5397,3.7947,4.1172,4.1191,4.1191,4.1191,4.1191,4.1191,4.1191,4.1191,4.1191,4.1191,4.1191,4.1191,4.1191,4.1191,4.1191,4.1191,4.1191,4.1445,4.1855,4.2246,4.2773,4.338,4.9785,5.0351,5.0859,5.103,5.1245,5.1401,5.1401,5.1401,5.1401,5.1401,5.1401,5.1343,5.1148,5.1128,5.0879,5.0258,4.9961,4.9648,4.9258,4.9007,4.8695,4.8223,4.7793,4.7112,4.6035,4.4961,4.3555,4.1797,4.1406,4.1191,4.1191,4.1191,4.1191,4.1191,4.1191,4.1191,4.1191,4.0957,4.0723,4.0489,4.0293,3.9805,3.9199,3.9199,3.8964,3.8592,3.8592,3.8592,3.8592,3.8592,3.871,3.8846,3.8651,3.8729,3.8846,3.8651,3.8592,3.8592,3.8592,3.8729,3.8925,3.9139,3.9335,3.9414,3.9237,3.9354,3.9414,3.9237,3.9022,3.8885,3.8885,3.7869,3.6756,3.5879,3.3929,3.2231,3.1348,3.0684,0.0,3.105,3.1855,3.2524,3.2914,3.3516,3.3649,3.3117,0.0,0.0,3.0241,3.229,3.3502,3.3532,3.6244,3.8817,4.1172,4.1191,4.1191,4.1191,4.1191,4.1191,4.1191,4.1191,4.1191,4.1191,4.1191,4.1191,4.1191,4.1191,4.1191,4.1191,4.1191,4.1328,4.1602,4.2187,4.2695,4.3223,5.0121,5.0508,5.0918,5.1245,5.1304,5.1343,5.1401,5.1401,5.1401,5.1401,5.1343,5.1187,5.084,5.0786,5.0594,5.0141,5.0102,4.9789,4.9027,4.891,4.8656,4.8125,4.7715,4.6917,4.5627,4.4609,4.332,4.1699,4.1367,4.1191,4.1191,4.1191,4.1191,4.1191,4.1191,4.1191,4.1172,4.0781,4.0606,4.0567,4.0234,3.9824,3.9394,3.9336,3.9043,3.8671,3.8612,3.8592,3.8612,3.8671,3.8885,3.9062,3.8866,3.8983,3.9141,3.8788,3.869,3.8671,3.8612,3.8887,3.9316,3.9785,4.0156,4.0313,3.998,4.0176,4.0313,3.9961,3.959,3.9277,3.9219,3.7889,3.6443,3.5388,3.3184,3.1391,3.0796,0.0,3.0595,3.2198,3.3281,3.4238,3.5098,3.6169,3.6265,3.4974,3.5107,3.4703,0.0,3.5847,3.6043,3.3341,3.6606,3.9296,4.1172,4.1191,4.1191,4.1191,4.1191,4.1191,4.1191,4.1191,4.1191,4.1191,4.1191,4.1016,4.0704,4.0704,4.0509,4.0255,4.0587,4.0743,4.0937,4.1989,4.2695,4.3204,5.0199,5.0508,5.082,5.0898,5.0898,5.0991,5.1343,5.1401,5.1401,5.1401,5.1089,5.0879,5.082,5.0714,5.0346,4.9668,4.9695,4.968,4.941,4.9086,4.8542,4.7737,4.7266,4.6404,4.5135,4.3534,4.2226,4.1289,4.123,4.1191,4.1191,4.1191,4.1191,4.1191,4.1191,4.1191,4.1211,4.1113,4.1094,4.1094,4.1015,4.0703,4.0254,3.9922,3.9512,3.9062,3.871,3.8592,3.8651,3.8984,3.8925,3.8807,3.9491,3.9473,3.9199,3.9121,3.9101,3.9023,3.869,3.8887,3.9316,3.9785,3.9941,3.998,3.9902,3.9941,3.998,3.9902,3.9844,3.9668,3.9277,3.8105,3.658,3.4606,3.3058,3.1553,3.0028,0.0,3.2144,3.309,3.4961,3.6521,3.7326,3.7285,3.7539,3.834,3.7505,3.6703,3.6205,3.8236,3.8595,3.6785,3.931,4.0841,4.1191,4.1191,4.1191,4.1191,4.1191,4.1191,4.1191,4.1191,4.1191,4.1191,4.1191,4.0138,3.8409,3.8409,3.7339,3.59,3.7697,3.861,3.9198,4.1527,4.2695,4.3165,5.016,5.0356,5.0547,5.0762,5.0801,5.0859,5.105,5.1265,5.1401,5.1401,5.105,5.0723,5.0488,5.0279,4.9871,4.9222,4.9226,4.9249,4.9183,4.8988,4.8522,4.764,4.7383,4.6348,4.4334,4.3046,4.2012,4.1191,4.1191,4.1191,4.1191,4.1191,4.1191,4.1191,4.1191,4.1191,4.1191,4.1191,4.1191,4.1191,4.1191,4.0918,4.045,4.0059,3.9609,3.9141,3.8749,3.8592,3.8631,3.8807,3.9061,3.9335,3.9473,3.9707,3.9863,3.9648,3.9394,3.9219,3.9296,3.959,4.0019,4.0488,4.0605,4.0605,4.0605,4.0605,4.0605,4.0605,4.0391,4.0079,3.9668,3.832,3.6816,3.5351,3.3262,0.0,0.0,3.1983,3.2926,3.4941,3.6465,3.7773,3.8868,3.8809,3.8848,3.918,3.8887,3.8116,3.6764,3.9184,3.9796,3.8091,4.0079,4.1191,4.1191,4.1191,4.1191,4.1191,4.1191,4.1191,4.1191,4.1191,4.1191,4.1133,3.9943,3.8843,3.7816,3.6662,3.5581,3.4915,3.7062,3.7392,3.7131,4.0985,4.1888,4.1451,4.9961,5.0043,5.0117,5.0449,5.0586,5.0683,5.0781,5.1148,5.1401,5.1401,5.0976,5.0527,5.0238,4.9797,4.9351,4.8933,4.8913,4.8913,4.8913,4.8815,4.8402,4.764,4.721,4.5957,4.375,4.2851,4.205,4.1348,4.125,4.1191,4.1191,4.1191,4.1191,4.1191,4.1191,4.1191,4.1191,4.1191,4.1191,4.1191,4.1191,4.0918,4.045,4.0059,3.9609,3.9141,3.8749,3.8651,3.8749,3.8749,3.9257,3.9844,3.959,3.9961,4.045,4.0137,3.9785,3.959,3.9941,4.0254,4.0606,4.1094,4.1191,4.1191,4.1191,4.1191,4.1191,4.1191,4.0898,4.0547,4.0117,3.8691,3.7226,3.6038,0.0,0.0,0.0,3.3144,3.4059,3.6677,3.7812,3.8867,4.0078,4.0195,4.0039,3.9687,3.9507,3.8955,3.7875,3.9578,4.0206,3.9424,4.0659,4.1289,4.1191,4.1289,4.1348,4.1348,4.1445,4.1484,4.1484,4.1484,4.1426,4.1211,3.8992,3.7689,3.6982,3.4813,3.3635,3.3467,3.6227,3.6465,3.5877,4.0754,4.1717,4.0861,4.9547,4.9547,4.9566,4.9586,4.9961,5.0375,5.0742,5.1148,5.1401,5.1401,5.0723,5.0238,5.0199,4.9461,4.8933,4.8913,4.8913,4.8913,4.8913,4.8499,4.8047,4.762,4.6055,4.4725,4.373,4.2851,4.2187,4.1758,4.1387,4.1191,4.1191,4.1191,4.1191,4.1191,4.1191,4.1191,4.1191,4.1191,4.1191,4.1191,4.1191,4.0918,4.045,4.0059,3.9609,3.9141,3.8749,3.8846,3.916,3.916,3.9492,3.9961,4.0293,4.045,4.0489,4.0469,4.043,4.041,4.045,4.0489,4.0606,4.1094,4.1191,4.1191,4.1191,4.1191,4.1191,4.1191,4.1172,4.1015,4.0528,3.9375,3.783,3.5779,0.0,0.0,3.2988,3.4495,3.6233,3.7638,3.8965,4.0117,4.1015,4.1094,4.1074,4.1074,3.9183,3.9035,4.1306,3.968,3.9763,4.2043,4.1893,4.1582,4.1191,4.1562,4.1758,4.1758,4.2128,4.2324,4.2324,4.2324,4.2109,4.162,3.9419,3.7118,3.4753,3.2551,3.0468,2.9125,3.3699,3.563,3.6433,4.1268,4.3198,4.3425,4.9449,4.9297,4.9199,4.9449,4.9644,4.9824,4.9957,5.0371,5.0664,5.0664,5.0137,4.9785,4.9785,4.9242,4.8913,4.8913,4.8913,4.8913,4.8913,4.8226,4.7522,4.6816,4.5642,4.4588,4.373,4.3125,4.25,4.1797,4.1641,4.1445,4.1191,4.1191,4.1191,4.1191,4.1191,4.1191,4.1191,4.1191,4.1191,4.1191,4.1191,4.0918,4.0489,4.0332,4.0019,3.9609,3.9453,3.9492,3.9629,3.9629,3.9922,4.0293,4.045,4.0703,4.0918,4.0918,4.0918,4.0918,4.0918,4.0918,4.0996,4.1152,4.1191,4.1191,4.1191,4.1191,4.1191,4.1191,4.1191,4.1054,4.0586,3.9902,3.9023,3.793,0.0,3.6328,3.6384,3.6855,3.7658,3.8966,3.9805,4.0527,4.1133,4.1191,4.1191,4.1191,4.0412,4.0486,4.1738,4.1525,4.1809,4.2812,4.2696,4.2383,4.1953,4.2109,4.2167,4.2167,4.2324,4.2402,4.2402,4.2402,4.2187,4.1599,3.8049,3.5818,3.453,3.232,3.091,3.0663,3.5436,3.6669,3.6363,4.1304,4.2459,4.1786,4.9258,4.9086,4.8991,4.9258,4.941,4.9508,4.9508,4.9902,5.0199,5.0199,4.9805,4.9508,4.9508,4.9144,4.8913,4.8913,4.8913,4.8913,4.8913,4.8069,4.721,4.6348,4.5467,4.4725,4.412,4.3301,4.2578,4.1992,4.1738,4.1484,4.1191,4.1191,4.1191,4.1191,4.1191,4.1191,4.1191,4.1191,4.1191,4.1191,4.1191,4.0918,4.0508,4.0508,4.0235,3.9902,3.9902,3.998,4.0078,3.9941,4.0273,4.0684,4.0547,4.082,4.1191,4.1191,4.1191,4.1191,4.1191,4.1191,4.1191,4.1191,4.1191,4.1191,4.1191,4.1191,4.1191,4.1191,4.1191,4.1094,4.0781,4.0371,3.9902,3.9297,3.8476,3.8047,3.8534,3.8555,3.8926,3.9961,4.0469,4.084,4.1172,4.0587,4.0451,4.1152,4.0037,3.9884,4.111,4.2391,4.3165,4.3262,4.3165,4.3028,4.2812,4.2675,4.2616,4.2616,4.2753,4.2812,4.2812,4.2812,4.2598,4.2008,3.8179,3.629,3.571,3.3397,3.2443,3.2844,3.7061,3.7939,3.7332,4.1853,4.2586,4.1616,4.8913,4.8913,4.8913,4.8913,4.9219,4.9508,4.9508,4.9883,5.0199,5.0199,4.9785,4.9508,4.9508,4.9144,4.8913,4.8913,4.8913,4.8913,4.8894,4.8069,4.721,4.6348,4.5467,4.4998,4.4998,4.33,4.2382,4.2402,4.1602,4.1191,4.1191,4.1191,4.1191,4.1191,4.1191,4.1191,4.1191,4.1191,4.1191,4.1191,4.1191,4.0918,4.0508,4.0508,4.0273,3.9902,3.9902,4.0176,4.045,4.0039,4.0488,4.1113,4.0645,4.082,4.1191,4.1191,4.1191,4.1191,4.1191,4.1191,4.1191,4.1191,4.1191,4.1191,4.1191,4.1191,4.1191,4.1191,4.1191,4.1191,4.1191,4.082,4.0215,3.9355,3.9219,3.9062,3.8671,3.9374,4.0059,4.045,4.0937,4.1191,4.1191,3.9198,3.8843,4.1036,3.7573,3.6651,3.9672,4.1925,4.3262,4.3691,4.3321,4.3302,4.3691,4.3302,4.3106,4.3106,4.3496,4.3711,4.3711,4.3711,4.3476,4.2945,4.0351,3.8933,3.8296,3.5754,3.4729,3.5038,3.8049,3.9229,3.9641,4.3138,4.4101,4.3769,4.8913,4.8913,4.8913,4.8913,4.8988,4.9086,4.9086,4.9183,4.9304,4.9304,4.9164,4.9086,4.9086,4.8968,4.8913,4.8913,4.8913,4.8753,4.8418,4.7913,4.721,4.6348,4.5467,4.4705,4.41,4.3301,4.2734,4.2402,4.1875,4.1484,4.1191,4.1191,4.1191,4.1191,4.1191,4.1191,4.1191,4.1191,4.1191,4.1191,4.1191,4.0918,4.0547,4.0859,4.0703,4.0352,4.0684,4.0898,4.0957,4.0859,4.0976,4.1172,4.1035,4.1094,4.1191,4.1191,4.1191,4.1191,4.1191,4.1191,4.1191,4.1191,4.1191,4.1191,4.1191,4.1191,4.1191,4.1191,4.1191,4.1191,4.1191,4.1094,4.0801,4.0196,4.0391,4.0449,4.0,4.043,4.0859,4.0996,4.1113,4.1191,4.1191,4.0588,4.049,4.1152,4.0362,4.0377,4.1551,4.2566,4.3262,4.3691,4.3574,4.3574,4.3711,4.3574,4.3516,4.3516,4.3633,4.3711,4.3711,4.3711,4.3476,4.2965,4.0629,3.9186,3.8453,3.7682,3.7367,3.7642,4.0366,4.165,4.2134,4.3775,4.4316,4.4219,4.8913,4.8913,4.8913,4.8913,4.8913,4.8913,4.8913,4.8913,4.8913,4.8913,4.8913,4.8913,4.8913,4.8913,4.8913,4.8913,4.8913,4.8617,4.7988,4.7737,4.7073,4.5859,4.5291,4.4686,4.3984,4.3223,4.2675,4.2402,4.1836,4.1445,4.1191,4.1191,4.1191,4.1191,4.1191,4.1191,4.1191,4.1191,4.1191,4.1191,4.1191,4.1035,4.0801,4.1094,4.1035,4.082,4.1094,4.1191,4.1191,4.1191,4.1191,4.1191,4.1191,4.1191,4.1191,4.1191,4.1191,4.1191,4.1191,4.1191,4.1191,4.1191,4.1191,4.1191,4.1191,4.1191,4.1191,4.1191,4.1191,4.1191,4.1191,4.1191,4.1113,4.082,4.0996,4.1094,4.082,4.1035,4.1191,4.1191,4.1191,4.1191,4.1191,4.0412,4.0036,4.0378,4.1419,4.2207,4.2636,4.3086,4.338,4.3457,4.3613,4.3711,4.3711,4.3711,4.3711,4.3711,4.3711,4.3711,4.3711,4.3711,4.3574,4.3239,4.1756,4.0806,4.0301,3.9963,3.9906,4.0194,4.1784,4.2695,4.3204,4.4062,4.4394,4.4414,4.8913,4.8913,4.8913,4.8913,4.8913,4.8913,4.8913,4.8913,4.8913,4.8913,4.8913,4.8913,4.8913,4.8913,4.8913,4.8913,4.8874,4.8499,4.7718,4.7581,4.6816,4.5193,4.5037,4.4803,4.4414,4.3124,4.2441,4.2402,4.1621,4.125,4.1191,4.1191,4.1191,4.1191,4.1191,4.1191,4.1191,4.1191,4.1191,4.1191,4.1191,4.1191,4.1191,4.1191,4.1191,4.1191,4.1191,4.1191,4.1191,4.1191,4.1191,4.1191,4.1191,4.1191,4.1191,4.1191,4.1191,4.1191,4.1191,4.1191,4.1191,4.1191,4.1191,4.1191,4.1191,4.1191,4.1191,4.1191,4.1191,4.1191,4.1191,4.1191,4.1191,4.1191,4.1191,4.1191,4.1191,4.123,4.123,4.1191,4.123,4.123,4.1191,3.9374,3.854,3.9365,4.124,4.2578,4.3067,4.3437,4.3496,4.3165,4.3555,4.3769,4.3769,4.3808,4.3789,4.3711,4.3711,4.3711,4.3711,4.3711,4.3711,4.3691,4.3321,4.3126,4.3028,4.2187,4.2089,4.246,4.2421,4.2715,4.3263,4.4082,4.4394,4.4453,4.8913,4.8913,4.8913,4.8913,4.8913,4.8913,4.8913,4.8913,4.8913,4.8913,4.8913,4.8913,4.8913,4.8913,4.8913,4.8913,4.8558,4.8262,4.8086,4.7419,4.6736,4.6055,4.5369,4.4803,4.4414,4.3458,4.2773,4.2402,4.1914,4.1523,4.1191,4.1191,4.1191,4.1191,4.1191,4.1191,4.1191,4.1191,4.1191,4.1191,4.1191,4.1191,4.1191,4.1191,4.1191,4.1191,4.1191,4.1191,4.1191,4.1191,4.1191,4.1191,4.1191,4.1191,4.1191,4.1191,4.1191,4.1191,4.1191,4.1191,4.1191,4.1191,4.1191,4.1191,4.1191,4.1191,4.1191,4.1191,4.1191,4.1191,4.1191,4.1191,4.1191,4.1191,4.1191,4.1191,4.1191,4.1484,4.1543,4.123,4.1484,4.1562,4.123,4.0763,4.0682,4.1201,4.1656,4.2266,4.3067,4.3184,4.332,4.3555,4.4004,4.4258,4.4258,4.4549,4.4373,4.3711,4.3711,4.3711,4.3711,4.3711,4.3711,4.3691,4.3613,4.3399,4.3067,4.25,4.2539,4.2891,4.2538,4.287,4.3633,4.4199,4.4394,4.4414,4.8913,4.8913,4.8913,4.8913,4.8913,4.8913,4.8913,4.8913,4.8913,4.8913,4.8913,4.8913,4.8913,4.8913,4.8913,4.8913,4.8675,4.8363,4.793,4.748,4.6875,4.6035,4.535,4.4803,4.4414,4.373,4.3066,4.2402,4.2012,4.1582,4.1191,4.1191,4.1191,4.1191,4.1191,4.1191,4.1191,4.1191,4.1191,4.1191,4.1191,4.1191,4.1191,4.1191,4.1191,4.1191,4.1191,4.1191,4.1191,4.1191,4.1191,4.1191,4.1191,4.1191,4.1191,4.1191,4.1191,4.1191,4.1191,4.1191,4.1191,4.1191,4.1191,4.1191,4.1191,4.1191,4.1191,4.1191,4.1191,4.1191,4.1191,4.1191,4.1191,4.1191,4.1191,4.1191,4.1191,4.1562,4.1719,4.1523,4.1836,4.1933,4.1543,4.1484,4.1641,4.207,4.2285,4.2618,4.3067,4.3282,4.3379,4.3398,4.4062,4.4394,4.4394,4.4803,4.4764,4.4315,4.4315,4.4315,4.4315,4.4315,4.4219,4.4043,4.4043,4.3789,4.332,4.2675,4.2676,4.3048,4.2577,4.2812,4.3457,4.3906,4.4199,4.4453,4.8913,4.8913,4.8913,4.8913,4.8913,4.8913,4.8913,4.8913,4.8913,4.8913,4.8913,4.8913,4.8913,4.8913,4.8913,4.8913,4.8835,4.8441,4.7659,4.7522,4.6995,4.5861,4.5371,4.4941,4.4512,4.4062,4.3378,4.2519,4.2187,4.1797,4.1406,4.1328,4.1308,4.1289,4.123,4.1191,4.1191,4.1191,4.1191,4.1191,4.1191,4.1191,4.1191,4.1191,4.1191,4.1191,4.1191,4.1191,4.1191,4.1191,4.1191,4.1191,4.1191,4.1191,4.1191,4.1191,4.1191,4.1191,4.1191,4.1191,4.1191,4.1191,4.1191,4.1191,4.1191,4.1191,4.1211,4.1289,4.125,4.1211,4.1289,4.125,4.1211,4.1289,4.123,4.125,4.1387,4.168,4.1914,4.1914,4.2187,4.2265,4.1914,4.1914,4.207,4.248,4.2871,4.3126,4.3204,4.3516,4.3555,4.3223,4.4043,4.4512,4.4512,4.4979,4.5232,4.5232,4.5232,4.5135,4.4998,4.4998,4.4822,4.4492,4.4433,4.418,4.375,4.2792,4.2734,4.3145,4.2597,4.2734,4.3243,4.3574,4.3945,4.4394,4.8913,4.8913,4.8913,4.8913,4.8913,4.8913,4.8913,4.8913,4.8913,4.8913,4.8913,4.8913,4.8913,4.8913,4.8913,4.8913,4.8538,4.8086,4.764,4.7226,4.6755,4.623,4.5801,4.5391,4.494,4.4531,4.3867,4.3008,4.295,4.2676,4.2226,4.1894,4.1719,4.1699,4.1348,4.1191,4.1191,4.1191,4.1191,4.1191,4.1191,4.1191,4.1191,4.1191,4.1191,4.1191,4.1191,4.1191,4.1191,4.1191,4.1191,4.1191,4.1191,4.1191,4.1191,4.1191,4.1191,4.1191,4.1191,4.1191,4.1191,4.1191,4.1191,4.1191,4.1191,4.1191,4.1289,4.1641,4.1445,4.1308,4.1641,4.1445,4.1308,4.166,4.1426,4.1445,4.2128,4.2285,4.2324,4.2324,4.2382,4.2382,4.2324,4.2324,4.2499,4.2969,4.3067,4.3263,4.3594,4.3672,4.3672,4.3613,4.4452,4.492,4.492,4.572,4.6133,4.6133,4.6133,4.5742,4.4998,4.4998,4.4979,4.4901,4.4551,4.4355,4.4199,4.2929,4.287,4.3535,4.2714,4.289,4.3633,4.3691,4.375,4.3867,4.8913,4.8913,4.8913,4.8913,4.8913,4.8913,4.8913,4.8913,4.8913,4.8913,4.8913,4.8913,4.8913,4.8913,4.8913,4.8913,4.8695,4.8304,4.764,4.7402,4.6992,4.6328,4.592,4.5607,4.5391,4.4961,4.4433,4.3829,4.3341,4.2734,4.207,4.2109,4.1894,4.1465,4.1504,4.1406,4.1191,4.1191,4.1191,4.1191,4.1191,4.1191,4.1191,4.1191,4.1191,4.1191,4.1191,4.1191,4.1191,4.1191,4.1191,4.1191,4.1191,4.1191,4.1191,4.1191,4.1191,4.1191,4.1191,4.1191,4.1191,4.1191,4.1191,4.1191,4.1191,4.1191,4.125,4.1426,4.1328,4.1328,4.1719,4.1641,4.166,4.207,4.1992,4.1992,4.2363,4.2637,4.2871,4.3085,4.293,4.2793,4.2793,4.2793,4.2871,4.3087,4.3321,4.3516,4.3691,4.3711,4.3828,4.4082,4.4686,4.5115,4.5391,4.5996,4.6308,4.6308,4.6308,4.6113,4.5742,4.5742,4.5605,4.5371,4.4941,4.4609,4.4316,4.3242,4.2236,4.1372,4.0997,4.1241,4.1807,4.1807,4.2596,4.3769]}]]